     2              OBSERVATION DATA    GPS                 RINEX VERSION / TYPE
teqc 1997Jun30 19970702                                     PGM / RUN BY / DATE
                                                            COMMENT
BIT 2 OF LLI FLAGS DATA COLLECTED UNDER A-S CONDITION       COMMENT
BIT 2 OF LLI FLAGS DATA COLLECTED UNDER A-S CONDITION       COMMENT
Original Marker Name: HMCP                                  COMMENT
Campaign Name: HMC San Gabriel Valley 1993-1996             COMMENT
4-Character Station Name: HMCP                              COMMENT
6-Character Antenna Code: DMRCHT                            COMMENT
Vertical Measurement Point: BPA                             COMMENT
Vertical Offset to Rinex Ref. Point: 0.0000                 COMMENT
Radial Measurement Point: RRP                               COMMENT
Radial Offset to Rinex Ref. Point: 0.0000                   COMMENT
Antenna Height from Field Measurement: 0.0000 m             COMMENT
Additional Antenna Identification Info.:                    COMMENT
Turborogue and Ashtech Choke Ring                           COMMENT
Fixed antenna mounting on roof of Parsons                   COMMENT
building, HMC.                                              COMMENT
Original XYZ: -2458572.6074 -4680483.2570 3556437.3219      COMMENT
New XYZ position is based on association with SCEC monument COMMENT
E1D0R2C7+0011. Position of that monument is believed to be  COMMENT
valid to within 1 m horizontally; vertical accuracy         COMMENT
should be no worse than 3-times this value.                 COMMENT
                                                            COMMENT
Revised Rinex header created by UCSD GPS archive for        COMMENT
GSAC on 13-Apr-1999 (1999:103) 19:57:57 GMT                 COMMENT
For assistance contact dagnew@ucsd.edu or hjohnson@ucsd.edu COMMENT
                                                            COMMENT
HARVEY MUDD COLLEGE PHYSICS                                 MARKER NAME
GAL HARVEY MUDD COLLEGE                                     OBSERVER / AGENCY
T-262/263 TURBOROGUE SNR-8000 95.03.08                      REC # / TYPE / VERS
260/329 DORNE-MARGOL. TYPE T                                ANT # / TYPE
 -2458598.0000 -4680494.0000  3556451.0000                  APPROX POSITION XYZ
        0.0000        0.0000        0.0000                  ANTENNA: DELTA H/E/N
     1     1     0                                          WAVELENGTH FACT L1/2
     5    L1    L2    C1    P2    P1                        # / TYPES OF OBSERV
     0                                                      INTERVAL
  1996     3    25     0    50   30.000000                  TIME OF FIRST OBS
  1996     3    25    23    59   30.000000                  TIME OF LAST OBS
     0                                                      # OF SATELLITES
                                                            END OF HEADER
 96  3 25  0 50 30.0000000  0  8G 6G16G20G 5G24G 4G 9G 7
         0.26154         1.70154  24396216.8714   24396218.0024
        -0.56254        -0.37854  23657402.9784   23657404.2824
        -0.70054        -0.04154  22486692.5854   22486692.9604
         0.06954         1.06154  20676428.0354   20676427.6944
        -0.40854         0.20654  20438213.9894   20438214.4864
        -1.00754         0.16554  22096914.7854   22096914.4684
        -0.29454        -0.09754  22474654.7084   22474655.4804
        -0.83554         0.60954  24284680.4134   24284682.4874
 96  3 25  0 51  0.0000000  0  8G 6G16G20G 5G24G 4G 9G 7
    -69764.84044    -54360.58344  24382941.2954   24382944.6094
    -93627.55044    -72956.37544  23639585.7494   23639588.0994
    -88513.75644    -68971.21644  22469849.2684   22469849.6694
    -45280.04344    -35282.13444  20667811.4674   20667811.1784
     17513.98244     13647.79244  20441547.0524   20441547.4104
     81389.05944     63420.99244  22112402.9714   22112403.0914
     79014.24944     61569.66444  22489691.1114   22489691.5224
     70278.31244     54763.47644  24298054.1954   24298056.8684
 96  3 25  0 51 30.0000000  0  8G 6G16G20G 5G24G 4G 9G 7
   -139405.81444   -108626.13944  24369688.8874   24369689.0904
   -187132.95444   -145817.65844  23621793.0054   23621795.5054
   -176760.04344   -137734.51944  22453056.0574   22453056.4464
    -90111.06544    -70215.39144  20659280.1654   20659280.0484
     35580.64244     27725.72044  20444984.8804   20444985.2114
    163102.64244    127093.89944  22127952.4194   22127952.3864
    158350.40244    123390.02844  22504787.8724   22504789.4144
    140655.09444    109602.53044  24311446.5684   24311449.8064
 96  3 25  0 52  0.0000000  0  8G 6G16G20G 5G24G 4G 9G 7
   -208984.02844   -162842.81544  24356448.0714   24356450.1884
   -280576.57544   -218630.76144  23604010.8074   23604012.9094
   -264809.97244   -206344.82944  22436301.1174   22436301.8114
   -134565.35944   -104855.09644  20650820.8694   20650820.8884
     54134.51544     42183.29244  20448515.6294   20448516.1044
    245058.62444    190955.69744  22143548.5094   22143548.1174
    237951.16244    185416.57444  22519935.0034   22519936.1924
    211059.48444    164463.02844  24324844.2184
 96  3 25  0 52 30.0000000  0  8G 6G16G20G 5G24G 4G 9G 7
   -278533.07044   -217036.75444  24343213.5144   24343212.9404
   -373972.57444   -291406.78444  23586237.6824   23586240.7784
   -352708.05944   -274836.81944  22419574.1774   22419575.7614
   -178660.90244   -139215.24944  20642429.7474   20642429.6864
     73152.64244     57002.62144  20452134.6954   20452135.1044
    327230.87244    254986.00944  22159185.1144   22159185.1264
    317797.76144    247634.67044  22535128.6724   22535130.4044
    281453.79844                  24338239.2054
 96  3 25  0 53  0.0000000  0  8G 6G16G20G 5G24G 4G 9G 7
   -348078.12444   -271227.62244  24329978.7964   24329980.1474
   -467312.96144   -364139.47944  23568475.3094   23568477.2404
   -440459.84644   -343214.79644  22402875.2974   22402876.4354
   -222384.67144   -173285.71544  20634109.6474   20634109.2134
     92634.63744     72183.40144  20455841.8154   20455842.4994
    409626.31344    319190.23744  22174864.5064   22174864.7034
    397904.97344    310055.83944  22550373.0774   22550374.3504
    351836.13344    274159.16444  24351632.2634
 96  3 25  0 53 30.0000000  0  8G 6G16G20G 5G24G 4G 9G 7
   -417629.59344   -325423.42944  24316743.4854   24316742.9004
   -560603.22644   -436833.11044  23550723.4984   23550724.2704
   -528064.07744   -411477.81344  22386204.8774   22386205.6004
   -265739.76344   -207068.89444  20625859.2314   20625859.0844
    112563.11844     87712.09644  20459634.2794   20459634.6454
    492240.84744    383565.18244  22190585.1584   22190585.3494
    478268.14344    372676.46644  22565665.7224   22565666.6674
    422204.51344                  24365022.5374
 96  3 25  0 54  0.0000000  0  8G 6G16G20G 5G24G 4G 9G 7
   -487136.13444   -379584.25944  24303515.9154   24303519.8144
   -653782.96944   -509440.62344  23532991.7134   23532994.4704
   -615481.89744   -479595.57844  22369569.8904   22369570.3244
   -308684.80544   -240532.55544  20617687.1524   20617686.8104
    132964.26144    103609.09644  20463516.4784   20463516.9644
    575117.72044    448144.54744  22206356.0804   22206355.7634
    558917.22244    435519.89044  22581013.4874   22581014.0214
    492607.06744                  24378420.3754
 96  3 25  0 54 30.0000000  0  8G 6G16G20G 5G24G 4G 9G 7
   -556631.43044   -433736.29844  24290292.2394   24290291.5694
   -746873.89144   -581978.91744  23515276.9864   23515278.9154
   -702725.02644   -547577.20744  22352968.2874   22352968.4684
   -351244.20344   -273695.72044  20609588.3684   20609588.0614
    153811.00444    119853.31944  20467483.2604   20467483.6914
    658239.45544    512914.72644  22222173.8774   22222174.0564
    639822.69144    498563.09244  22596409.5244   22596409.4964
    563023.80644    438720.97044  24391819.7744
 96  3 25  0 55  0.0000000  0  8G 6G16G20G 5G24G 4G 9G 7
   -626097.56644   -487865.67744  24277073.2224   24277074.9164
   -839874.71244   -654446.98344  23497579.7894   23497581.8384
   -789753.23044   -615391.36344  22336407.2584   22336407.9034
   -393412.68944   -306554.27344  20601564.0594   20601563.8754
    175101.32244    136443.18444  20471534.8194   20471535.1424
    741595.33944    577867.35544  22238035.8694   22238035.8294
    720984.74844    561806.23944  22611853.4194   22611854.0744
    633466.26944    493611.17344  24405226.3624
 96  3 25  0 55 30.0000000  0  8G 6G16G20G 5G24G 4G 9G 7
   -695500.99144   -541946.17444  24263866.8424   24263868.4344
   -932777.54444   -726838.70944  23479901.0404   23479903.4034
   -876547.80544   -683023.45044  22319890.3874   22319891.1884
   -435190.20644   -339108.17644  20593613.8664   20593613.7084
    196828.72744    153373.63644  20475669.2214   20475669.5574
    825180.41244    642998.57444  22253942.0134   22253941.9734
    802400.50544    625247.05544  22627346.2654   22627347.8404
    703943.90244                  24418636.9804
 96  3 25  0 56  0.0000000  0  8G 6G16G20G 5G24G 4G 9G 7
   -764833.56044   -595971.48344  24250673.3484   24250673.0404
  -1025561.65444   -799137.92744  23462244.6344   23462246.3644
   -963086.54644   -750456.21744  22303422.7984   22303424.0524
   -476570.74844   -371352.74344  20585739.4704   20585739.2554
    219019.81244    170665.39944  20479892.3224   20479892.6314
    909011.12044    708321.18944  22269894.5244   22269894.5694
    884080.64544    688893.87944  22642888.8544   22642890.8494
    774470.50944                  24432055.3964
 96  3 25  0 56 30.0000000  0  8G 6G16G20G 5G24G 4G 9G 7
   -834145.45944   -649980.68344  24237482.9634   24237485.5724
  -1118256.85544   -871367.85644  23444604.2894   23444607.2874
  -1049382.24844   -817699.59744  22287001.4564   22287002.2964
   -517577.23144   -403305.84444  20577936.4634   20577935.8954
    241653.11844    188301.74944  20484199.0724   20484199.2154
    993054.14844    773809.24844  22285886.9954   22285886.3824
    965997.18444    752724.91444  22658477.8304   22658479.4924
    845015.12544                  24445482.5394
 96  3 25  0 57  0.0000000  0  8G 6G16G20G 5G24G 4G 9G 7
   -903439.93544   -703976.33944  24224296.7074   24224299.7364
  -1210868.75344   -943532.86244  23426980.9994   23426983.5454
  -1135453.15144   -884767.80444  22270622.7834   22270623.6564
   -558209.05944   -434966.99544  20570204.2204   20570204.0394
    264715.04144    206272.08744  20488587.7614   20488588.2154
   1077296.85844    839452.90544  22301917.5604   22301917.3934
   1048132.30244    816726.28144  22674108.4924   22674108.9794
    915572.41544                  24458908.2544
 96  3 25  0 57 30.0000000  0  8G 6G16G20G 5G24G 4G 9G 7
   -972745.60644   -757980.65644  24211108.2224   24211110.3274
  -1303411.07744  -1015643.68144  23409370.8074   23409373.3234
  -1221339.29644   -951692.04944  22254279.2004   22254279.3014
   -598481.50944   -466348.11844  20562540.6684   20562540.3634
    288188.89644    224563.40744  20493054.4924   20493054.8804
   1161740.49544    905253.13044  22317987.0114   22317986.4854
   1130461.60844    880878.96244  22689775.6104   22689776.0654
    986124.87244                  24472333.7384
 96  3 25  0 58  0.0000000  0  8G 6G16G20G 5G24G 4G 9G 7
  -1042063.38844   -811994.42244  24197916.4944   24197918.0594
  -1395868.67044  -1087688.47444  23391776.9454   23391779.3734
  -1307034.05144  -1018467.14844  22237971.9554   22237972.5614
   -638375.73144   -497434.52044  20554948.9264   20554948.8424
    312103.19444    243197.92944  20497605.3174   20497605.6634
   1246395.60644    971218.15244  22334096.1944   22334096.0404
   1212989.81544    945186.63444  22705479.4904   22705480.4204
   1056684.86844                  24485760.9854
 96  3 25  0 58 30.0000000  0  8G 6G16G20G 5G24G 4G 9G 7
  -1111347.74244   -865982.15544  24184731.8404   24184735.7804
  -1488208.34244  -1159641.36144  23374205.2684   23374207.8214
  -1392509.73844  -1085071.55244  22221706.1434   22221706.7584
   -677832.74544   -528180.23544  20547440.6504   20547440.3474
    336480.59544    262193.31044  20502244.1594   20502244.5954
   1331285.49044   1037366.11644  22350250.8754   22350250.6604
   1295756.29544   1009679.97144  22721229.2434   22721230.4434
   1127288.03944                  24499197.2144
 96  3 25  0 59  0.0000000  0  8G 6G16G20G 5G24G 4G 9G 7
  -1180591.78444   -919938.48044  24171555.7464   24171557.9334
  -1580435.45544  -1231506.54344  23356654.9834   23356656.0504
  -1477782.33244  -1151517.70844  22205479.2454   22205480.5824
   -716849.00244   -558582.50744  20540016.0794   20540015.6904
    361310.30344    281541.14144  20506969.0374   20506969.5114
   1416408.33544   1103695.59944  22366448.7264   22366448.5434
   1378750.57044   1074350.81244  22737021.7074   22737023.1614
   1197931.08644                  24512639.9224
 96  3 25  0 59 30.0000000  0  8G 6G16G20G 5G24G 4G 9G 7
  -1249780.07844   -973851.32044  24158388.6104   24158390.7634
  -1672532.74544  -1303270.56944  23339129.1364   23339130.8924
  -1562822.00344  -1217782.36044  22189296.8934   22189297.8824
   -755404.09044   -588625.42544  20532679.1634   20532678.9524
    386623.80344    301265.95144  20511786.2334   20511786.6904
   1501778.52144   1170217.81044  22382694.2124   22382694.2114
   1461981.28144   1139205.87244  22752860.3474   22752861.1824
   1268635.04844                  24526094.1014
 96  3 25  1  0  0.0000000  0  8G 6G16G20G 5G24G 4G 9G 7
  -1318927.92844  -1027732.68744  24145230.3784   24145231.3384
  -1764524.94544  -1374952.68844  23321623.9084   23321626.0064
  -1647625.29944  -1283862.83444  22173159.4504   22173160.4934
   -793508.00144   -618316.78044  20525428.2894   20525427.8824
    412405.36644    321355.48544  20516692.2904   20516692.7634
   1587368.22144   1236911.06544  22398981.5124   22398981.7264
   1545423.55144   1204225.80444  22768739.3144   22768740.1304
   1339378.12644                  24539556.6584
 96  3 25  1  0 30.0000000  0  8G 6G16G20G 5G24G 4G 9G 7
  -1388024.23344  -1081573.84044  24132082.7914   24132085.2704
  -1856412.46844  -1446553.26144  23304137.6704   23304140.8334
  -1732185.62644  -1349753.98244  22157068.1524   22157068.5074
   -831159.83844   -647655.86944  20518263.4294   20518263.0054
    438640.78044    341798.67044  20521684.7464   20521685.2014
   1673183.54744   1303780.13944  22415311.4884   22415311.7734
   1629077.62244   1269410.77744  22784658.6374   22784659.2634
   1410166.13444                  24553025.8594
 96  3 25  1  1  0.0000000  0  8G 6G16G20G 5G24G 4G 9G 7
  -1457037.08644  -1135349.98644  24118950.2414   24118950.6984
  -1948167.20844  -1518050.35044  23286677.3474   23286679.7004
  -1816459.71744  -1415422.08044  22141031.5214   22141031.8994
   -868362.10844   -676644.64844  20511184.0884   20511183.8704
    465366.04444    362623.55644  20526770.2084   20526770.6434
   1759259.86544   1370852.58744  22431691.3174   22431691.6974
   1712959.16044   1334772.98644  22800620.0644   22800621.1004
   1481028.16244                  24566510.6184
 96  3 25  1  1 30.0000000  0  8G 6G16G20G 5G24G 4G 9G 7
  -1525972.32844  -1189065.62144  24105831.8734   24105833.8564
  -2039795.62644  -1589449.01244  23269241.3374   23269244.4884
  -1900443.45544  -1480863.92644  22125049.9284   22125050.2764
   -905139.94944   -705302.69844  20504185.3514   20504185.0744
    492558.84244    383812.75044  20531944.8484   20531945.2974
   1845585.69344   1438119.45844  22448118.3244   22448117.9204
   1797063.91844   1400309.13644  22816625.0414   22816626.1744
   1551948.51744                  24580007.2384
 96  3 25  1  2  0.0000000  0  8G 6G16G20G 5G24G 4G 9G 7
  -1594862.08844  -1242745.83744  24092722.3374   24092724.0184
  -2131322.43344  -1660768.50444  23251824.2944   23251826.4934
  -1984190.83044  -1546121.59944  22109113.1774   22109114.0734
   -941543.20244   -733668.86544  20497258.0354   20497257.7354
    520155.22444    405316.42844  20537196.2384   20537196.6364
   1932115.63844   1505545.38744  22464584.2834   22464584.2584
   1881376.82844   1466007.46944  22832669.6594   22832670.7844
   1622886.94344                  24593506.8244
 96  3 25  1  2 30.0000000  0  8G 6G16G20G 5G24G 4G 9G 7
  -1663702.55444  -1296387.64344  24079621.5884   24079624.7704
  -2222713.51944  -1731982.25344  23234432.5514   23234435.4554
  -2067697.79744  -1611191.96344  22093222.6374   22093222.8344
   -977559.00044   -761733.11544  20490404.4384   20490404.2174
    548162.91944    427140.61244  20542525.8354   20542526.4074
   2018856.28744   1573135.48944  22481090.4924   22481089.5004
   1965925.52744   1531889.54544  22848758.6114   22848759.8994
   1693867.24244                  24607012.2354
 96  3 25  1  3  0.0000000  0  8G 6G16G20G 5G24G 4G 9G 7
  -1732515.31144  -1350007.84744  24066527.6854   24066527.9284
  -2313960.01944  -1803083.33844  23217068.7814   23217071.4464
  -2150963.29144  -1676074.14944  22077378.0814   22077378.1424
  -1013171.85344   -789483.38444  20483627.8184   20483627.4644
    576588.76744    449290.62844  20547935.3164   20547935.6094
   2105793.12244   1640878.47444  22497634.7704   22497634.3584
   2050714.11544   1597958.54344  22864892.9104   22864893.2214
   1764874.50244                  24620525.0184
 96  3 25  1  3 30.0000000  0  7G 6G16G20G 5G24G 4G 9
  -1801336.83044  -1403634.93644  24053431.5444   24053432.4894
  -2405060.44244  -1874070.57744  23199732.4914   23199735.2964
  -2234025.77844  -1740798.14544  22061570.9104   22061571.6134
  -1048374.09444   -816913.69944  20476928.8614   20476928.5584
    605404.16244    471744.18844  20553418.5754   20553419.0814
   2192896.01044   1708750.84944  22514209.5184   22514209.5484
   2135721.24644   1664197.84444  22881069.0704   22881069.3954
 96  3 25  1  4  0.0000000  0  7G 6G16G20G 5G24G 4G 9
  -1870156.98644  -1457260.93444  24040336.1674   24040337.0664
  -2495984.49844  -1944920.40044  23182430.8934   23182432.2124
  -2316872.05344  -1805353.65744  22045805.4354   22045805.9924
  -1083135.81744   -844000.74744  20470313.7654   20470313.5404
    634651.22744    494534.11144  20558984.0664   20558984.5284
   2280171.99144   1776758.10444  22530818.1624   22530817.5894
   2220950.11644   1730609.92844  22897288.0174   22897289.2004
 96  3 25  1  4 30.0000000  0  8G 6G16G20G 5G24G 4G 9G 7
  -1938971.07444  -1510882.21244  24027239.6544   24027241.4244
  -2586732.01144  -2015632.65844  23165161.9724   23165165.0254
  -2399467.42944  -1869713.67144  22030088.6604   22030089.1384
  -1117439.70944   -870731.04544  20463786.0704   20463785.6984
    664363.38444    517686.44644  20564638.2714   20564638.7224
   2367625.63744   1844903.79844  22547459.4934   22547459.7034
   2306381.92044   1797180.13444  22913545.3944   22913546.3014
        -0.33454                  24661081.1354
 96  3 25  1  5  0.0000000  0  8G 6G16G20G 5G24G 4G 9G 7
  -2007773.28844  -1564494.17344  24014146.6064   24014148.1354
  -2677319.17844  -2086219.99644  23147924.0214   23147926.3384
  -2481827.06544  -1933889.99544  22014416.2014   22014416.7454
  -1151312.29144   -897125.26444  20457340.3384   20457340.0334
    694528.04744    541191.38044  20570378.2234   20570378.6134
   2455250.22744   1913182.68244  22564133.8714   22564133.4954
   2391980.00844   1863879.90844  22929834.0194   22929834.9624
     71053.76744                  24674603.1854
 96  3 25  1  5 30.0000000  0  8G 6G16G20G 5G24G 4G 9G 7
  -2076522.54544  -1618064.93744  24001065.9974   24001065.9904
  -2767726.19344  -2156666.94944  23130720.3944   23130722.4114
  -2563929.92944  -1997866.24244  21998792.4484   21998793.5024
  -1184738.90644   -923171.96744  20450979.4574   20450979.3284
    725162.78944    565062.61044  20576207.9914   20576208.3294
   2543071.82544   1981615.09944  22580845.6514   22580845.2424
   2477755.05044   1930717.57944  22946156.1404   22946158.4874
    142126.69444                  24688127.5064
 96  3 25  1  6  0.0000000  0  8G 6G16G20G 5G24G 4G 9G 7
  -2145205.92944  -1671584.39644  23987995.6904   23987994.0314
  -2857982.58744  -2226996.53244  23113544.2964   23113545.3464
  -2645760.76544  -2061630.50244  21983219.9544   21983220.9124
  -1217717.53644   -948869.59744  20444703.8664   20444703.5274
    756264.23744    589297.50844  20582126.3004   20582126.7444
   2631086.35844   2050197.83844  22597594.0744   22597594.3544
   2563707.15744   1997693.19344  22962512.3954   22962513.9474
    213204.99844                  24701654.8324
 96  3 25  1  6 30.0000000  0  8G 6G16G20G 5G24G 4G 9G 7
  -2213815.60344  -1725046.44544  23974939.4544   23974940.5864
  -2948096.72844  -2297215.25244  23096396.2844   23096398.8324
  -2727307.38044  -2125173.29744  21967702.6804   21967703.0074
  -1250239.26744   -974211.20044  20438515.1264   20438514.9364
    787808.48844    613877.44644  20588129.1464   20588129.2834
   2719298.86744   2118934.84644  22614380.6734   22614380.2644
   2649851.55544   2064818.65944  22978904.5854   22978905.2684
    284310.33744                  24715185.4574
 96  3 25  1  7  0.0000000  0  7G 6G16G20G 5G24G 4G 9
  -2282371.18444  -1778466.25244  23961892.6904   23961893.5494
  -3038064.45144  -2367319.90044  23079276.0884   23079279.0314
  -2808597.39144  -2188516.14644  21952233.7044   21952234.3064
  -1282312.88344   -999203.61944  20432411.7814   20432411.2944
    819756.15544    638771.74044  20594208.5244   20594208.9864
   2807707.60244   2187824.76544  22631204.3644   22631204.0084
   2736179.98644   2132087.54744  22995332.8034   22995333.5894
 96  3 25  1  7 30.0000000  0  7G 6G16G20G 5G24G 4G 9
  -2350889.08644  -1831856.70144  23948854.8674   23948858.0604
  -3127895.84444  -2437318.31844  23062181.4114   23062183.7484
  -2889612.54644  -2251644.82144  21936817.1064   21936817.3944
  -1313924.41144  -1023835.97644  20426396.3814   20426396.0484
    852100.40744    663975.05344  20600363.2194   20600363.7504
   2896298.17744   2256856.36044  22648062.1024   22648061.7714
   2822694.50744   2199501.42444  23011796.2204   23011797.2864
 96  3 25  1  8  0.0000000  0  7G 6G16G20G 5G24G 4G 9
  -2419338.77044  -1885194.06444  23935829.3674   23935829.6204
  -3217543.76644  -2507173.76944  23045121.9194   23045124.9764
  -2970307.14044  -2314523.70544  21921461.3054   21921461.9874
  -1345048.72644  -1048088.68244  20420473.4974   20420473.1374
    884863.41544    689504.67444  20606597.8944   20606598.2854
   2985099.31844   2326052.05144  22664960.8224   22664960.5344
   2909420.48144   2267080.08644  23028299.9934   23028301.0704
 96  3 25  1  8 30.0000000  0  7G 6G16G20G 5G24G 4G 9
  -2487744.63244  -1938497.28844  23922812.1404   23922811.7314
  -3306989.07344  -2576871.34244  23028100.9124   23028102.6454
  -3050682.92344  -2377154.16644  21906165.8374   21906166.2904
  -1375704.99444  -1071976.68244  20414639.8154   20414639.3374
    918038.11844    715355.09444  20612910.7904   20612911.4094
   3074106.13044   2395408.00644  22681898.0804   22681898.4084
   2996326.94044   2334799.38044  23044837.6004   23044838.8154
 96  3 25  1  9  0.0000000  0  7G 6G16G20G 5G24G 4G 9
  -2556146.16644  -1991797.14644  23909794.8424   23909795.1274
  -3396251.53144  -2646426.41444  23011114.8464   23011117.5804
  -3130782.28244  -2439569.22844  21890923.5414   21890924.0164
  -1405926.80544  -1095526.14544  20408888.8144   20408888.5174
    951607.16244    741512.79144  20619298.7234   20619299.1164
   3163291.48444   2464903.08344  22698869.5554   22698869.7334
   3083365.49744   2402621.60044  23061400.5524   23061402.0624
 96  3 25  1  9 30.0000000  0  8G 6G16G20G 5G24G 4G 9G 7
  -2624498.78544  -2045058.82544  23896787.8994   23896789.3844
  -3485304.11344  -2715817.96844  22994168.3994   22994170.5384
  -3210561.73644  -2501735.02344  21875742.3784   21875742.3114
  -1435682.34044  -1118712.27044  20403226.4804   20403226.0724
    985613.02944    768010.87544  20625769.9304   20625770.2874
   3252673.42244   2534551.33044  22715878.7754   22715878.6624
   3170567.84444   2470571.43044  23077993.5244   23077996.3684
        -0.56454                  24796631.4404
 96  3 25  1 10  0.0000000  0  8G 6G16G20G 5G24G 4G 9G 7
  -2692817.89044  -2098294.44344  23883787.9474   23883788.7444
  -3574148.67144  -2785047.41744  22977262.1584   22977264.7154
  -3290046.74244  -2563671.37444  21860616.5324   21860617.2284
  -1464990.00644  -1141549.41044  20397649.2304   20397648.7664
   1020037.12244    794834.84244  20632320.5794   20632321.0854
   3342236.91544   2604341.06044  22732922.4014   22732921.7584
   3257918.81044   2538637.06844  23094616.1824   23094618.2974
     71544.13244                  24810246.0044
 96  3 25  1 10 30.0000000  0  8G 6G16G20G 5G24G 4G 9G 7
  -2761147.00144  -2151537.83844  23870784.3234   23870785.3774
  -3662832.05144  -2854151.28744  22960386.9624   22960389.2284
  -3369284.16544  -2625414.79944  21845538.2084   21845538.5904
  -1493874.90444  -1164057.11944  20392152.6834   20392152.3704
   1054865.22944    821973.62944  20638948.0544   20638948.5834
   3431940.52144   2674239.97244  22749992.2164   22749992.5734
   3345403.42444   2606806.84944  23111265.0714   23111265.4554
    143070.68444    111484.43744  24823857.5374
 96  3 25  1 11  0.0000000  0  8G 6G16G20G 5G24G 4G 9G 7
  -2829454.31844  -2204764.22244  23857785.7384   23857787.0374
  -3751344.47844  -2923121.93244  22943542.7094   22943544.7554
  -3448262.56944  -2686956.39644  21830509.1964   21830509.7774
  -1522322.13244  -1186223.78744  20386739.2754   20386738.8584
   1090112.10644    849438.73244  20645655.2844   20645655.8164
   3521784.47744   2744248.21844  22767089.0884   22767088.7704
   3433054.82744   2675106.61544  23127944.4104   23127945.6034
    214599.87944                  24837468.6514
 96  3 25  1 11 30.0000000  0  8G 6G16G20G 5G24G 4G 9G 7
  -2897719.65244  -2257957.95144  23844795.3164   23844796.2344
  -3839680.59644  -2991955.20644  22926733.2814   22926735.1874
  -3526952.73544  -2748273.39344  21815535.1244   21815535.3114
  -1550320.33844  -1208040.57344  20381411.7244   20381411.4374
   1125782.68344    877233.98744  20652443.1744   20652443.7744
   3611771.75644   2814368.17144  22784213.2334   22784212.4614
   3520887.38344   2743547.52744  23144658.3494   23144659.3224
    286152.70844                  24851084.4434
 96  3 25  1 12  0.0000000  0  8G 6G16G20G 5G24G 4G 9G 7
  -2965957.27944  -2311130.06344  23831810.3384   23831811.0714
  -3927840.47844  -3060651.15344  22909956.9284   22909958.8434
  -3605355.89844  -2809366.74844  21800615.5874   21800616.4484
  -1577861.14844  -1229500.93944  20376170.7674   20376170.4434
   1161871.60444    905355.23144  20659310.7224   20659310.9144
   3701900.90744   2884598.65344  22801364.2584   22801363.2604
   3608890.96644   2812121.70444  23161404.6404   23161404.7624
    357714.00844                  24864701.8884
 96  3 25  1 12 30.0000000  0  8G 6G16G20G 5G24G 4G 9G 7
  -3034148.20944  -2364265.81744  23818834.1044   23818835.2524
  -4015813.99044  -3129201.86344  22893216.4664   22893218.7234
  -3683458.52344  -2870225.91544  21785753.1324   21785753.4164
  -1604936.15044  -1250598.34544  20371018.4594   20371018.0854
   1198377.64344    933801.49744  20666257.5444   20666258.1104
   3792180.47844   2954946.36244  22818543.8124   22818543.4844
   3697067.42644   2880830.60144  23178183.8354   23178184.8274
    429299.65844                  24878324.6534
 96  3 25  1 13  0.0000000  0  8G20G 6G16G 5G24G 4G 9G 7
  -3761236.01844  -2930831.74244  21770952.3724   21770953.0624
  -3102278.28844  -2417354.14744  23805869.3664   23805871.3834
  -4103579.35744  -3197590.39844  22876514.1274   22876515.7604
  -1631533.53844  -1271323.58144  20365956.9994   20365956.8554
   1235280.89344    962557.28044  20673280.1474   20673280.5434
   3882633.23644   3025429.00944  22835756.3784   22835755.4464
   3785402.49644   2949663.06944  23194993.1644   23194993.8514
    500938.04544                  24891957.1884
 96  3 25  1 13 30.0000000  0  8G20G 6G16G 5G24G 4G 9G 7
  -3838693.26044  -2991188.01644  21756212.5374   21756213.2544
  -3170353.55144  -2470399.72844  23792914.7144   23792914.9894
  -4191135.37344  -3265815.80244  22859853.1984   22859854.7324
  -1657643.22944  -1291668.79644  20360988.6124   20360988.1464
   1272566.25244    991610.80844  20680375.2324   20680375.7214
   3973258.76144   3096046.28244  22853001.6534   22853001.1824
   3873884.02044   3018609.67744  23211831.5194   23211833.1214
    572626.05744                  24905598.5804
 96  3 25  1 14  0.0000000  0  8G20G 6G16G 5G24G 4G 9G 7
  -3915849.58944  -3051309.82244  21741530.2554   21741530.9114
  -3238386.47344  -2523412.36244  23779968.7934   23779969.8104
  -4278470.37844  -3333868.98444  22843233.6234   22843235.2284
  -1683269.59944  -1311637.39444  20356112.2054   20356111.9104
   1310216.71244   1020948.82844  20687539.8444   20687540.1734
   4064040.31644   3166785.14744  22870276.4624   22870276.6904
   3962497.91144   3087659.42044  23228693.9124   23228696.3424
    644356.75744                  24919248.5914
 96  3 25  1 14 30.0000000  0  8G20G 6G16G 5G24G 4G 9G 7
  -3992711.15144  -3111201.92844  21726903.6804   21726904.2314
  -3306371.95044  -2576388.00044  23767032.1414   23767032.9584
  -4365587.32344  -3401752.26044  22826655.8694   22826657.4134
  -1708426.92044  -1331240.49944  20351324.6324   20351324.4864
   1348228.98044   1050568.78144  20694773.2774   20694773.6074
   4154981.31544   3237648.23244  22887581.9824   22887581.3074
   4051233.26444   3156803.80544  23245579.4794   23245580.6424
    716145.64244                  24932909.4704
 96  3 25  1 15  0.0000000  0  8G20G 6G16G 5G24G 4G 9G 7
  -4069277.13344  -3170863.72144  21712333.9454   21712334.3324
  -3374326.92944  -2629339.88644  23754100.0284   23754103.0754
  -4452489.88544  -3469468.49244  22810118.8554   22810119.7464
  -1733119.89944  -1350481.78344  20346625.8734   20346625.3284
   1386619.58544   1080483.54344  20702078.5654   20702079.1814
   4246081.88344   3308635.67944  22904917.8994   22904917.4434
   4140083.91244   3226038.03444  23262486.6544   23262489.4244
    787989.60244                  24946580.7394
 96  3 25  1 15 30.0000000  0  8G20G 6G16G 5G24G 4G 9G 7
  -4145530.64244  -3230282.02844  21697823.5774   21697823.8734
  -3442236.67644  -2682256.54444  23741177.2434   23741178.5334
  -4539163.81944  -3537006.57944  22793625.1104   22793627.3774
  -1757334.69044  -1369350.44844  20342018.0114   20342017.8224
   1425421.73544   1110718.98544  20709462.4944   20709462.9884
   4337347.18344   3379751.47444  22922284.8074   22922285.2514
   4229062.07344   3295371.61644  23279419.2654   23279420.9854
    859893.45844                  24960263.7664
 96  3 25  1 16  0.0000000  0  7G20G 6G16G 5G24G 4G 9
  -4221461.38444  -3289448.82444  21683374.5094   21683374.6734
  -3510112.65544  -2735146.84044  23728259.6044   23728262.3114
  -4625618.82444  -3604374.05744  22777173.6354   22777175.5494
  -1781085.70144  -1387857.73144  20337498.2954   20337497.8834
   1464640.96844   1141279.43144  20716925.7624   20716926.1644
   4428779.18544   3450997.17244  22939684.0644   22939683.2864
   4318153.73644   3364793.64644  23296373.2464   23296373.5894
 96  3 25  1 16 30.0000000  0  7G20G 6G16G 5G24G 4G 9
  -4297065.38344  -3348361.01744  21668987.1084   21668987.5274
  -3577961.80544  -2788016.25944  23715348.9174   23715348.6674
  -4711868.25444  -3671581.35544  22760760.5124   22760762.1464
  -1804377.32644  -1406007.04544  20333066.0424   20333065.7114
   1504281.56644   1172168.20944  20724469.0554   20724469.4184
   4520377.35444   3522372.34844  22957114.6094   22957114.2044
   4407361.72744   3434306.31944  23313348.6884   23313349.3734
 96  3 25  1 17  0.0000000  0  7G20G 6G16G 5G24G 4G 9
  -4372345.70644  -3407020.99744  21654661.5994   21654662.2084
  -3645796.57644  -2840874.49244  23702441.2484   23702441.6214
  -4797908.68444  -3738625.80244  22744387.6354   22744389.2594
  -1827210.37644  -1423799.03344  20328720.9734   20328720.5254
   1544329.10144   1203374.08544  20732089.9654   20732090.2824
   4612111.16844   3593853.22544  22974571.1674   22974571.4784
   4496691.59344   3503913.97144  23330347.8134   23330349.3464
 96  3 25  1 17 30.0000000  0  7G20G 6G16G 5G24G 4G 9
  -4447308.40644  -3465433.48144  21640396.9524   21640397.3624
  -3713611.67544  -2893717.39244  23689536.1254   23689538.1424
  -4883730.77544  -3805500.11144  22728056.4424   22728059.0324
  -1849575.05144  -1441226.05544  20324465.1284   20324464.8304
   1584752.49744   1234872.83644  20739782.3114   20739782.8114
   4703958.70144   3665422.70844  22992049.2984   22992050.1724
   4586142.15544   3573615.65444  23347369.4314   23347371.0174
 96  3 25  1 18  0.0000000  0  7G20G 6G16G 5G24G 4G 9
  -4521987.61944  -3523625.07044  21626185.7754   21626186.6104
  -3781429.63844  -2946562.51044  23676630.9044   23676630.9644
  -4969349.56344  -3872215.99844  22711763.4444   22711764.6044
  -1871490.02344  -1458302.65244  20320295.0294   20320294.6114
   1625501.68044   1266625.45244  20747536.5044   20747536.8234
   4795887.75044   3737055.70344  23009542.8564   23009542.4164
   4675696.71644   3643398.37344  23364411.2354   23364412.8724
 96  3 25  1 18 30.0000000  0  7G20G 6G16G 5G24G 4G 9
  -4596340.63544  -3581562.46944  21612037.2714   21612037.8464
  -3849193.36844  -2999365.35644  23663735.3384   23663735.7304
  -5054698.55844  -3938721.67144  22695522.1154   22695523.2264
  -1892900.24344  -1474985.94044  20316220.5954   20316220.1844
   1666615.39644   1298662.11144  20755360.1634   20755360.5254
   4887936.07944   3808781.65644  23027058.9944   23027058.8524
   4765403.91544   3713300.05644  23381481.5394   23381482.5254
 96  3 25  1 19  0.0000000  0  7G20G 6G16G 5G24G 4G 9
  -4670361.38444  -3639240.95744  21597951.3794   21597951.8774
  -3916893.93744  -3052119.02344  23650852.0754   23650851.9864
  -5139766.83744  -4005008.59244  22679334.5484   22679336.8944
  -1913799.44344  -1491271.03044  20312243.6714   20312243.3064
   1708081.72944   1330973.54544  20763250.8824   20763251.3254
   4980106.40444   3880602.66344  23044598.1534   23044597.8934
   4855246.54244   3783307.25744  23398578.6204   23398580.7424
 96  3 25  1 19 30.0000000  0  7G20G 6G16G 5G24G 4G 9
  -4744056.81644  -3696665.96344  21583927.2964   21583927.7174
  -3984543.08944  -3104832.60044  23637978.9204   23637979.2314
  -5224556.53344  -4071078.44444  22663199.3064   22663200.5644
  -1934190.95244  -1507160.52044  20308363.1884   20308362.8684
   1749903.58844   1363562.00744  20771209.3314   20771209.7684
   5072406.30844   3952524.63544  23062162.3684   23062162.8934
   4945199.35044   3853400.30344  23415695.3294   23415696.7744
 96  3 25  1 20  0.0000000  0  7G 6G16G20G 5G24G 4G 9
  -4052178.02644  -3157535.09444  23625108.6614   23625109.5904
  -5309115.65544  -4136968.62244  22647108.0864   22647109.2504
  -4817457.25944  -3753861.09944  21569959.5824   21569960.0664
  -1954114.19544  -1522685.12444  20304572.1434   20304571.8054
   1792074.55344   1396422.49944  20779234.1864   20779234.6344
   5164813.97744   4024530.59044  23079746.7814   23079746.0294
   5035216.18644   3923543.23544  23432824.8594   23432827.7114
 96  3 25  1 20 30.0000000  0  7G20G 6G16G 5G24G 4G 9
  -4890551.36744  -3810817.52644  21556050.1514   21556050.8464
  -4119805.86544  -3210232.05144  23612239.0464   23612240.0554
  -5393456.68544  -4202688.87144  22631058.8304   22631061.1054
  -1973570.22444  -1537845.66444  20300869.6674   20300869.2914
   1834619.90544   1429574.72044  20787330.4544   20787330.7994
   5257330.31544   4096621.22544  23097352.5054   23097352.8634
   5125301.87844   3993739.81144  23449969.0234   23449970.8354
 96  3 25  1 21  0.0000000  0  7G 6G16G20G 5G24G 4G 9
  -4187403.08544  -3262905.17644  23599376.6364   23599376.2344
  -5477546.92044  -4268213.69344  22615056.7874   22615058.3974
  -4963295.97844  -3867501.61944  21542207.6884   21542207.6614
  -1992522.39244  -1552613.58644  20297263.2404   20297262.8144
   1877583.73944   1463053.03244  20795506.1054   20795506.3014
   5349990.57244   4168824.00044  23114984.9304   23114984.4784
   5215496.49344   4064021.28144  23467132.0764   23467133.3564
 96  3 25  1 21 30.0000000  0  7G20G 6G16G 5G24G 4G 9
  -5035680.24344  -3923904.92844  21528433.5604   21528433.8524
  -4254977.35544  -3315560.39544  23586516.8394   23586517.0174
  -5561390.19644  -4333546.07944  22599101.4904   22599103.4514
  -2010962.08944  -1566982.17944  20293754.3484   20293753.9174
   1920976.85144   1496865.84644  20803763.3764   20803763.8584
   5442790.30044   4241135.47044  23132644.1724   23132643.9164
   5305812.63344   4134397.46544  23484318.6494   23484320.6014
 96  3 25  1 22  0.0000000  0  7G20G 6G16G 5G24G 4G 9
  -5107703.91244  -3980027.26244  21514727.6014   21514728.2284
  -4322535.41344  -3368203.01244  23573661.1384   23573661.5454
  -5645009.83744  -4398704.20544  22583189.4874   22583191.4914
  -2028908.38344  -1580966.30644  20290339.1634   20290338.9684
   1964770.04944   1530990.41144  20812096.9494   20812097.1884
   5535703.59544   4313535.41644  23150325.0164   23150325.1764
   5396244.36144   4204863.69544  23501527.9594   23501529.2654
 96  3 25  1 22 30.0000000  0  7G 6G16G20G 5G24G 4G 9
  -4390065.09344  -3420823.49044  23560811.0684   23560810.8274
  -5728372.49644  -4463662.07044  22567326.0874   22567327.7104
  -5179356.64944  -4035860.54844  21501092.2574   21501092.6864
  -2046351.41244  -1594558.27644  20287020.0124   20287019.7314
   2008950.11244   1565416.43444  20820504.3334   20820504.6724
   5628735.58744   4386027.85844  23168028.3364   23168028.3184
   5486792.95144   4275420.97744  23518758.8804   23518759.5894
 96  3 25  1 23  0.0000000  0  7G 6G16G20G 5G24G 4G 9
  -4457549.62144  -3473408.80244  23547969.9544   23547969.0264
  -5811442.13744  -4528391.61844  22551518.2874   22551520.9434
  -5250626.18544  -4091395.23244  21487530.7664   21487531.1254
  -2063277.85144  -1607747.70944  20283798.9464   20283798.5904
   2053512.78144   1600140.58944  20828984.2454   20828984.6824
   5721901.65544   4458624.77544  23185757.5504   23185756.9894
   5577446.04644   4346059.70844  23536009.1634   23536010.9714
 96  3 25  1 23 30.0000000  0  7G 6G16G20G 5G24G 4G 9
  -4524982.40044  -3525953.78544  23535136.9584   23535136.4894
  -5894224.11344  -4592897.01144  22535765.3954   22535767.6944
  -5321514.64344  -4146632.98144  21474041.0004   21474041.1894
  -2079683.92844  -1620531.66544  20280676.8534   20280676.5374
   2098446.35244   1635153.75744  20837534.6134   20837535.0704
   5815199.55444   4531324.42844  23203511.2454   23203510.3644
   5668192.77644   4416771.37844  23553276.8644   23553277.4484
 96  3 25  1 24  0.0000000  0  7G20G 6G16G 5G24G 4G 9
  -5392033.50944  -4201582.73044  21460621.2804   21460621.8194
  -4592347.32544  -3578445.87844  23522317.8084   23522318.5764
  -5976699.39444  -4657163.42644  22520070.6974   22520072.1144
  -2095579.76744  -1632918.03144  20277652.0874   20277651.7284
   2143736.64744   1670444.89344  20846153.3074   20846153.7114
   5908627.52644   4604125.42244  23221290.3664   23221290.8884
   5759016.74544   4487543.25244  23570560.4964   23570563.0244
 96  3 25  1 24 30.0000000  0  7G 6G16G20G 5G24G 4G 9
  -4659649.48644  -3630889.05044  23509510.8014   23509511.4234
  -6058854.67944  -4721180.48944  22504437.1544   22504439.0924
  -5462191.53844  -4256251.31044  21447270.9924   21447271.5164
  -2110971.46144  -1644911.56344  20274723.0574   20274722.7864
   2189370.24644   1706003.53844  20854836.9204   20854837.4334
   6002190.42944   4677031.54144  23239094.8914   23239094.5294
   5849911.64244   4558370.39244  23587857.6024   23587858.5994
 96  3 25  1 25  0.0000000  0  7G 6G16G20G 5G24G 4G 9
  -4726898.18144  -3683290.58644  23496713.9334   23496713.7324
  -6140711.97244  -4784965.35544  22488860.2434   22488862.4864
  -5531995.46544  -4310643.96944  21433987.6174   21433988.0284
  -2125869.78744  -1656520.64844  20271888.0204   20271887.5864
   2235337.59744   1741822.24944  20863584.2904   20863584.5854
   6095865.49144   4750025.10044  23256920.6974   23256920.2014
   5940880.64144   4629255.28744  23605168.7074   23605169.1904
 96  3 25  1 25 30.0000000  0  7G20G 6G16G 5G24G 4G 9
  -5601470.69144  -4364780.49944  21420767.0094   21420767.6194
  -4794119.46544  -3735670.77444  23483921.7294   23483920.7164
  -6222306.24244  -4848545.27244  22473333.3244   22473334.5044
  -2140299.69944  -1667764.73744  20269142.2304   20269142.0894
   2281610.58344   1777879.11944  20872389.6754   20872390.1314
   6189616.82944   4823078.05944  23274760.7204   23274761.4954
   6031911.20444   4700188.14144  23622491.1474   23622491.5144
 96  3 25  1 26  0.0000000  0  7G 6G16G20G 5G24G 4G 9
  -4861316.39344  -3788031.95044  23471134.4754   23471134.8944
  -6303627.78244  -4911912.66544  22457858.2214   22457860.0864
  -5670618.78144  -4418662.11744  21407608.5864   21407609.0544
  -2154275.47244  -1678654.95044  20266482.7224   20266482.1934
   2328185.40544   1814171.18544  20881252.8494   20881253.1184
   6283440.29144   4896187.25244  23292614.2494   23292613.8544
   6123012.19944   4771175.86744  23639826.2914   23639827.2084
 96  3 25  1 26 30.0000000  0  7G20G 6G16G 5G24G 4G 9
  -5739419.88644  -4472273.35444  21394516.0074   21394516.3764
  -4928493.73544  -3840377.89544  23458350.9724   23458351.7804
  -6384686.40744  -4975075.19344  22442433.6964   22442435.1444
  -2167779.01044  -1689177.19044  20263912.8114   20263912.4154
   2375089.54644   1850719.86844  20890178.2714   20890178.7014
   6377341.85244   4969357.26644  23310483.7054   23310483.5674
   6214197.69244   4842229.43644  23657178.9944   23657180.3284
 96  3 25  1 27  0.0000000  0  7G 6G16G20G 5G24G 4G 9
  -4995643.72944  -3892702.52044  23445572.9944   23445573.4024
  -6465484.80244  -5038034.94944  22427057.9714   22427059.5884
  -5807862.55744  -4525605.29544  21381491.3784   21381491.9694
  -2180782.58144  -1699309.84344  20261438.3854   20261437.9754
   2422351.10044   1887547.04744  20899171.8244   20899172.3204
   6471318.83944   5042586.05944  23328366.7294   23328367.0734
   6305467.65144   4913348.80744  23674547.2484   23674549.0224
 96  3 25  1 27 30.0000000  0  7G 6G16G20G 5G24G 4G 9
  -5062766.08744  -3945005.58944  23432799.6244   23432800.3574
  -6546015.38244  -5100786.01844  22411733.5104   22411735.2234
  -5875938.69144  -4578651.62544  21368537.0844   21368537.7894
  -2193279.63644  -1709047.81144  20259060.3784   20259059.8974
   2469982.28244   1924662.25344  20908235.8264   20908236.0084
   6565384.30744   5115883.81244  23346266.8854   23346266.2744
   6396813.55344   4984527.39744  23691930.6674   23691931.3544
 96  3 25  1 28  0.0000000  0  7G16G 6G20G 5G24G 4G 9
  -6626271.54244  -5163323.25444  22396461.2904   22396462.1474
  -5129852.62144  -3997280.73744  23420033.2544   23420033.7804
  -5943649.53244  -4631413.31344  21355652.5334   21355652.9664
  -2205266.70144  -1718388.38144  20256779.2994   20256778.9234
   2517990.87044   1962071.53944  20917371.2654   20917371.8164
   6659543.41544   5189254.52844  23364184.8704   23364184.3924
   6488223.85544   5055756.14244  23709325.3294   23709327.0224
 96  3 25  1 28 30.0000000  0  7G16G 6G20G 5G24G 4G 9
  -6706260.56344  -5225652.33144  22381240.2494   22381241.8104
  -5196917.99044  -4049538.87044  23407270.6824   23407271.0844
  -6011004.83944  -4683897.95444  21342835.1134   21342835.5474
  -2216737.66944  -1727326.80044  20254596.1784   20254595.8234
   2566355.19444   1999758.02244  20926574.6744   20926575.1724
   6753776.72044   5262683.03544  23382116.5884   23382115.4464
   6579671.22844   5127013.77244  23726726.5644   23726728.4944
 96  3 25  1 29  0.0000000  0  7G16G 6G20G 5G24G 4G 9
  -6785959.84944  -5287755.64644  22366073.3624   22366074.9974
  -5263955.17644  -4101776.20244  23394513.6434   23394514.1464
  -6078007.82644  -4736108.06544  21330085.1374   21330085.4744
  -2227683.08244  -1735855.69644  20252513.3964   20252513.0594
   2615063.34644   2037712.42844  20935843.7764   20935844.0584
   6848085.42344   5336170.31744  23400062.8554   23400062.7764
   6671154.28244   5198299.21244  23744134.7274   23744137.5404
 96  3 25  1 29 30.0000000  0  7G16G 6G20G 5G24G 4G 9
  -6865354.04144  -5349621.21744  22350965.2864   22350966.9844
  -5330966.06744  -4153992.46144  23381762.2834   23381763.9374
  -6144646.19644  -4788034.06344  21317404.1314   21317403.9774
  -2238103.88044  -1743975.80344  20250530.5984   20250530.1294
   2664109.49844   2075930.20744  20945176.8254   20945177.4194
   6942477.95344   5409722.88944  23418025.0874   23418026.3854
   6762680.20544   5269618.06744  23761551.3054   23761553.1824
 96  3 25  1 30  0.0000000  0  7G16G 6G20G 5G24G 4G 9
  -6944420.48244  -5411231.39844  22335919.1194   22335920.3184
  -5397930.95244  -4206172.82644  23369019.8364   23369020.6524
  -6210895.92744  -4839657.21844  21304796.7974   21304797.2234
  -2247984.92844  -1751675.32044  20248650.1894   20248649.8394
   2713481.57544   2114401.94944  20954572.1134   20954572.5854
   7036957.11644   5483342.98744  23436003.8664   23436004.3854
   6854262.41444   5340980.74044  23778979.9814   23778982.5744
 96  3 25  1 30 30.0000000  0  7G16G 6G20G 5G24G 4G 9
  -7023168.95144  -5472593.80944  22320934.0994   22320935.1944
  -5464856.77544  -4258322.78444  23356283.8244   23356284.8094
  -6276740.22544  -4890964.44644  21292267.2494   21292267.6214
  -2257327.59544  -1758955.32044  20246872.3504   20246871.8604
   2763169.94344   2153120.15744  20964027.5664   20964027.9564
   7131525.45044   5557032.56244  23454000.0684   23453998.8274
   6945898.90844   5412385.73544  23796417.3344   23796418.9924
 96  3 25  1 31  0.0000000  0  7G16G 6G20G 5G24G 4G 9
  -7101602.99144  -5533711.20944  22306008.1884   22306009.7804
  -5531735.63644  -4310436.14644  23343557.5024   23343557.8254
  -6342168.22144  -4941947.28944  21279816.8814   21279817.0804
  -2266143.27044  -1765824.68144  20245195.0394   20245194.7534
   2813181.87244   2192090.48644  20973544.3754   20973544.7744
   7226191.75744   5630798.48444  23472014.4464   23472014.3634
   7037584.05444   5483828.60244  23813864.4284   23813865.1744
 96  3 25  1 31 30.0000000  0  7G 6G16G20G 5G24G 4G 9
  -5598566.63244  -4362512.21444  23330839.8114   23330841.6944
  -7179730.96244  -5594590.11444  22291141.5234   22291143.1894
  -6407159.02744  -4992589.46844  21267449.6244   21267449.8014
  -2274445.94444  -1772294.29944  20243614.6824   20243614.2394
   2863506.84144   2231304.74544  20983120.8924   20983121.2154
   7320952.26544   5704637.81444  23490046.7334   23490046.7644
   7129311.97244   5555304.87144  23831320.4274   23831321.5714
 96  3 25  1 32  0.0000000  0  7G 6G16G20G 5G24G 4G 9
  -5665350.86144  -4414551.85544  23318130.0354   23318132.4924
  -7257554.82344  -5655232.04744  22276331.7364   22276332.6184
  -6471729.02944  -5042903.74844  21255162.2924   21255162.5714
  -2282247.91444  -1778373.75944  20242130.3144   20242129.9794
   2914123.89444   2270746.60144  20992753.3444   20992753.4854
   7415797.94544   5778543.51444  23508095.3564   23508094.3694
   7221064.73744   5626800.45944  23848779.7244   23848780.9414
 96  3 25  1 32 30.0000000  0  7G 6G16G20G 5G24G 4G 9
  -5732098.36544  -4466562.87344  23305429.3854   23305429.8334
  -7335066.99544  -5715631.11144  22261581.7624   22261583.2054
  -6535886.76144  -5092896.77144  21242953.1924   21242953.4244
  -2289543.28644  -1784058.47044  20240742.1134   20240741.5694
   2965054.50944   2310432.79144  21002445.0234   21002444.9534
   7510728.56044   5852515.42144  23526159.8544   23526158.5994
   7312834.03144   5698308.92444  23866243.2044   23866245.9244
 96  3 25  1 33  0.0000000  0  7G 6G16G20G 5G24G 4G 9
  -5798805.43544  -4518542.38444  23292735.7214   23292736.3534
  -7412244.67544  -5775769.52144  22246895.1664   22246896.5114
  -6599633.65844  -5142569.66244  21230822.7264   21230823.1974
  -2296323.35944  -1789341.64644  20239451.7234   20239451.2924
   3016306.09744   2350369.09144  21012197.6044   21012197.7884
   7605732.79444   5926544.65944  23544238.7644   23544238.2134
   7404625.69144   5769834.81644  23883710.2884   23883714.3804
 96  3 25  1 33 30.0000000  0  7G 6G16G20G 5G24G 4G 9
  -5865484.90544  -4570500.38244  23280046.6344   23280047.7904
  -7489070.10044  -5835633.44844  22232276.0364   22232277.1824
  -6662971.85844  -5191924.09844  21218769.9674   21218770.2894
  -2302573.65244  -1794212.01044  20238262.4914   20238262.0214
   3067879.19844   2390555.92044  21022011.9474   21022012.1614
   7700808.41344   6000629.55544  23562330.9004   23562329.7724
   7496452.95544   5841388.45844  23901183.6484   23901184.7874
 96  3 25  1 34  0.0000000  0  7G 6G16G20G 5G24G 4G 9
  -5932156.65244  -4622452.36944  23267359.4554   23267360.7364
  -7565543.77644  -5895223.28944  22217723.4294   22217724.3574
  -6725927.76644  -5240980.64144  21206789.6864   21206790.0114
  -2308300.57044  -1798674.54944  20237172.6024   20237172.3994
   3119771.04544   2430991.12244  21031886.6814   21031886.8804
   7795946.60944   6074763.18544  23580435.6304   23580435.0034
   7588306.61444   5912962.68044  23918663.4034   23918664.9864
 96  3 25  1 34 30.0000000  0  7G 6G16G20G 5G24G 4G 9
  -5998814.37744  -4674393.43044  23254675.2004   23254676.1034
  -7641663.52444  -5954537.35244  22203238.4764   22203239.9194
  -6788492.72244  -5289732.55144  21194883.9884   21194884.4704
  -2313505.65144  -1802730.46144  20236182.1164   20236181.5784
   3172002.47944   2471690.93244  21041825.9284   21041826.3194
   7891147.07344   6148945.34844  23598551.2414   23598550.6564
   7680191.53544   5984561.24444  23936149.2614   23936151.3364
 96  3 25  1 35  0.0000000  0  7G 6G16G20G 5G24G 4G 9
  -6065447.16844  -4726315.04944  23241995.8614   23241995.7914
  -7717431.06144  -6013576.95844  22188820.1124   22188821.3334
  -6850668.95344  -5338181.55444  21183052.2814   21183052.5154
  -2318193.03144  -1806382.97244  20235289.9844   20235289.6164
   3224555.34344   2512641.21144  21051826.4164   21051826.3374
   7986416.15344   6223180.97944  23616680.5394   23616681.8604
   7772105.84644   6056182.67944  23953639.7524   23953642.1594
 96  3 25  1 35 30.0000000  0  7G 6G16G20G 5G24G 4G 9
  -6132054.93944  -4778217.16544  23229321.1224   23229321.2224
  -7792863.64444  -6072355.55744  22174466.0214   22174467.2844
  -6912463.32044  -5386333.00144  21171293.3484   21171293.7074
  -2322377.46444  -1809643.57244  20234493.8984   20234493.4354
   3277421.40844   2553835.54744  21061886.1654   21061886.5664
   8081753.53944   6297469.84444  23634823.0774   23634823.2874
   7864028.50044   6127810.64744  23971131.9034   23971132.4534
 96  3 25  1 36  0.0000000  0  7G 6G16G20G 5G24G 4G 9
  -6198620.36044  -4830086.28044  23216653.5014   23216653.7904
  -7867972.22644  -6130881.69044  22160172.8934   22160173.9454
  -6973870.25344  -5434182.55144  21159607.6094   21159608.0884
  -2326076.29944  -1812525.79044  20233789.9504   20233789.5424
   3330593.50944   2595268.34644  21072004.7824   21072005.1994
   8177143.16244   6371799.43844  23652974.2284   23652974.5284
   7955940.37844   6199430.24144  23988622.8494   23988624.1524
 96  3 25  1 36 30.0000000  0  7G 6G16G20G 5G24G 4G 9
  -6265118.69244  -4881903.14044  23203999.5004   23203999.9974
  -7942736.44844  -6189139.48644  22145945.7234   22145947.0314
  -7034868.70444  -5481713.80044  21148000.0974   21148000.6504
  -2329264.64044  -1815010.21544  20233183.4834   20233183.0134
   3384069.82344   2636938.19544  21082180.9944   21082181.4964
   8272581.47844   6446166.95544  23671135.6504   23671135.7784
   8047841.12244   6271041.11144  24006110.2514   24006113.0154
 96  3 25  1 37  0.0000000  0  7G 6G16G20G 5G24G 4G 9
  -6331560.98744  -4933676.33844  23191355.7184   23191356.8814
  -8017153.29744  -6247126.60844  22131784.8174   22131786.3294
  -7095449.19144  -5528919.37144  21136472.1314   21136472.4384
  -2331935.58044  -1817091.47544  20232675.1854   20232674.7644
   3437839.09544   2678836.32844  21092413.0054   21092413.2754
   8368052.03044   6520559.56744  23689304.5704   23689304.0664
   8139731.25044   6342643.71044  24023596.1614   24023599.4824
 96  3 25  1 37 30.0000000  0  7G 6G16G20G 5G24G 4G 9
  -6397952.99144  -4985410.32344  23178722.0564   23178722.3664
  -8091204.83044  -6304829.06144  22117693.0584   22117694.6054
  -7155580.27244  -5575774.75044  21125029.3344   21125029.9294
  -2334076.41344  -1818759.66444  20232267.7404   20232267.3634
   3491915.92844   2720974.12044  21102703.4164   21102703.7354
   8463550.01044   6594973.58244  23707476.4594   23707477.3074
   8231626.63044   6414250.41644  24041084.8264   24041084.7344
 96  3 25  1 38  0.0000000  0  7G 6G16G20G 5G24G 4G 9
  -6464306.61844  -5037114.41244  23166095.0134   23166094.9674
  -8164873.56344  -6362233.23544  22103674.1714   22103676.0314
  -7215266.57744  -5622283.54844  21113671.4704   21113671.9954
  -2335672.95644  -1820003.73044  20231963.8034   20231963.4804
   3546285.44444   2763339.97344  21113049.3664   21113049.6644
   8559063.60844   6669399.76344  23725651.4804   23725651.5474
   8323536.67044   6485868.56944  24058574.9164   24058576.1934
 96  3 25  1 38 30.0000000  0  7G 6G16G20G 5G24G 4G 9
  -6530634.80344  -5088798.66144  23153473.0544   23153472.9084
  -8238155.74344  -6419336.19044  22089729.2354   22089730.1324
  -7274519.75244  -5668454.84144  21102396.3164   21102396.6274
  -2336698.52544  -1820802.88244  20231768.6334   20231768.3854
   3600951.02644   2805936.52744  21123452.0124   21123452.4164
   8654608.29044   6743850.12644  23743834.2024   23743833.9994
   8415472.01844   6557506.40044  24076069.1424   24076072.0474
 96  3 25  1 39  0.0000000  0  7G 6G16G20G 5G24G 4G 9
  -6596928.22444  -5140455.81544  23140857.4654   23140856.9384
  -8311056.02244  -6476141.55944  22075856.4534   22075858.1694
  -7333325.22744  -5714277.28144  21091205.7594   21091206.0694
  -2337143.84644  -1821149.89444  20231683.9984   20231683.7034
   3655942.25644   2848786.83744  21133916.2684   21133916.7084
   8750220.33544   6818353.03844  23762028.0564   23762028.8034
   8507461.29244   6629186.25844  24093573.5224   24093576.5454
 96  3 25  1 39 30.0000000  0  7G 6G16G20G 5G24G 4G 9
  -6663191.77044  -5192089.69344  23128247.8254   23128247.9334
  -8383590.44444  -6532661.84744  22062054.0454   22062055.2384
  -7391703.22744  -5759766.62344  21080096.7714   21080097.5104
  -2337018.07444  -1821051.89444  20231708.0734   20231707.6894
   3711239.78644   2891875.81644  21144439.2954   21144439.8134
   8845904.59044   6892912.18444  23780235.9404   23780235.3704
   8599492.34944   6700898.66544  24111086.6414   24111089.2074
 96  3 25  1 40  0.0000000  0  7G 6G16G20G 5G24G 4G 9
  -6729419.88844  -5243695.96944  23115644.9844   23115645.0714
  -8455771.42144  -6588906.72244  22048318.4404   22048319.2594
  -7449682.07044  -5804944.92544  21069063.7324   21069064.2404
  -2336332.77044  -1820517.89644  20231838.3144   20231838.0124
   3766831.16444   2935193.77244  21155017.8754   21155018.3304
   8941658.36144   6967525.51244  23798457.8674   23798457.4144
   8691556.04444   6772636.53044  24128606.5084   24128607.9654
 96  3 25  1 40 30.0000000  0  7G 6G16G20G 5G24G 4G 9
  -6795609.45944  -5295272.20244  23103049.5274   23103050.0674
  -8527609.11444  -6644884.09744  22034648.1764   22034649.1094
  -7507248.66144  -5849802.00144  21058109.2964   21058109.7224
  -2335104.41144  -1819560.73744  20232072.1594   20232071.7514
   3822720.73444   2978744.08344  21165653.4424   21165653.8894
   9037492.00644   7042201.08444  23816693.7504   23816693.9824
   8783641.25944   6844391.16044  24146129.7634   24146132.5484
 96  3 25  1 41  0.0000000  0  7G 6G16G20G 5G24G 4G 9
  -6861763.53644  -5346820.77244  23090460.9674   23090461.2114
  -8599103.51944  -6700593.98444  22021043.0504   22021044.1924
  -7564384.22144  -5894323.20344  21047236.7424   21047237.1334
  -2333350.73844  -1818194.24744  20232405.7434   20232405.3134
   3878901.35744   3022521.19044  21176344.2504   21176344.4384
   9133389.60144   7116926.47144  23834942.4174   23834943.5444
   8875735.12944   6916152.54544  24163654.8634   24163657.9584
 96  3 25  1 41 30.0000000  0  7G 6G16G20G 5G24G 4G 9
  -6927896.56544  -5398352.93544  23077876.3564   23077876.3274
  -8670252.70044  -6756034.86244  22007503.2864   22007504.9154
  -7621104.37644  -5938520.70544  21036443.0974   21036443.4224
  -2331091.25444  -1816433.61344  20232835.8924   20232835.7314
   3935341.73044   3066500.70444  21187084.5704   21187084.6194
   9229315.70144   7191674.06544  23853196.8164   23853197.6324
   8967793.55844   6987886.29244  24181172.7384   24181173.8094
 96  3 25  1 42  0.0000000  0  7G 6G16G20G 5G24G 4G 9
  -6994000.64144  -5449862.55344  23065297.0344   23065297.6804
  -8741041.64344  -6811195.03344  21994032.9524   21994034.5874
  -7677389.71944  -5982379.40844  21025732.4754   21025732.6984
  -2328319.27744  -1814273.63644  20233363.2884   20233362.9224
   3992040.66544   3110681.69144  21197873.7784   21197874.0704
   9325267.13544   7266441.41744  23871456.0714   23871455.0384
   9059793.55244   7059574.48844  24198678.9794   24198682.1184
 96  3 25  1 42 30.0000000  0  7G 6G16G20G 5G24G 4G 9
  -7060082.33844  -5501354.73044  23052722.4524   23052722.8374
  -8811479.14844  -6866081.36044  21980629.3394   21980630.8684
  -7733228.19244  -6025889.89044  21015106.7064   21015107.1444
  -2325044.87144  -1811722.15544  20233986.3894   20233986.0744
   4048993.22244   3155060.30644  21208711.6384   21208711.7804
   9421228.88244   7341216.80244  23889716.7404   23889717.3344
   9151705.48544   7131194.04944  24216169.4354   24216172.3854
 96  3 25  1 43  0.0000000  0  7G 6G16G20G 5G24G 4G 9
  -7126119.61844  -5552812.29744  23040155.9624   23040155.8574
  -8881540.41044  -6920674.51344  21967297.2344   21967298.8094
  -7788611.21144  -6069045.47044  21004567.8024   21004568.0244
  -2321253.85044  -1808768.11844  20234707.7324   20234707.3654
   4106210.88144   3199645.50244  21219599.7944   21219599.6334
   9517200.86344   7416000.16244  23907979.1984   23907979.1814
   9243537.14544   7202751.11744  24233644.7584   24233647.7054
 96  3 25  1 43 30.0000000  0  7G 6G16G20G 5G24G 4G 9
  -7192090.04344  -5604217.77444  23027601.8174   23027602.7514
  -8951195.87944  -6974951.46544  21954041.5774   21954043.6494
  -7843534.09344  -6111842.50644  20994116.0894   20994116.3974
  -2316935.81044  -1805403.41144  20235529.4764   20235529.1534
   4163707.04244   3244447.71044  21230541.1144   21230541.6504
   9613201.20844   7490805.62144  23926247.7854   23926248.3724
   9335307.01244   7274260.01744  24251108.2554   24251111.1464
 96  3 25  1 44  0.0000000  0  7G 6G16G24G20G 5G 4G 9
  -7257992.88144  -5655570.57444  23015060.8944   23015062.1234
  -9020439.12844  -7028907.19544  21940864.6074   21940866.2524
   4221494.92844   3289477.22844  21241537.6204   21241537.9854
  -7897977.56144  -6154265.97044  20983756.1464   20983756.0464
  -2312089.93744  -1801627.41244  20236451.6504   20236451.3474
   9709232.31644   7565635.05244  23944521.0924   23944522.7254
   9427045.21344   7345744.20544  24268565.2874   24268568.0024
 96  3 25  1 44 30.0000000  0  7G 6G16G24G20G 5G 4G 9
  -7323829.07244  -5706871.44844  23002532.7204   23002532.7894
  -9089274.19844  -7082544.86644  21927766.3064   21927767.9294
   4279587.02744   3334743.79744  21252592.0434   21252592.3394
  -7951951.47544  -6196323.55244  20973484.7894   20973485.0554
  -2306711.43944  -1797436.37744  20237475.2304   20237474.9014
   9805297.81944   7640491.30744  23962801.6834   23962803.7764
   9518768.73644   7417216.96644  24286020.1904   24286023.2104
 96  3 25  1 45  0.0000000  0  7G 6G16G20G 5G24G 4G 9
  -7389627.94844  -5758143.25244  22990011.1764   22990011.5554
  -9157705.04644  -7135867.56444  21914744.2094   21914745.2824
  -8005473.72344  -6238029.18244  20963299.9924   20963300.3124
  -2300796.84144  -1792827.60644  20238600.7504   20238600.4944
   4337963.33144   3380231.83244  21263700.9424   21263700.9974
   9901390.70644   7715368.87244  23981087.9564   23981088.5214
   9610476.37544   7488677.39344  24303471.8014   24303475.1444
 96  3 25  1 45 30.0000000  0  7G 6G16G20G 5G24G 4G 9
  -7455402.19244  -5809395.87144  22977494.7134   22977494.3904
  -9225742.35744  -7188883.60844  21901797.1644   21901798.8384
  -8058532.54144  -6279373.70344  20953203.2114   20953203.5574
  -2294338.69744  -1787795.28644  20239829.5694   20239829.3794
   4396609.43044   3425930.09844  21274860.8534   21274861.2244
   9997508.38344   7790265.77644  23999378.1694   23999377.3284
   9702160.70544   7560119.65644  24320917.9154   24320922.2884
 96  3 25  1 46  0.0000000  0  7G 6G16G20G 5G24G 4G 9
  -7521144.65644  -5860623.73044  22964984.2144   22964985.0724
  -9293386.77944  -7241593.49744  21888924.7204   21888926.4534
  -8111112.80344  -6320345.32044  20943197.6304   20943197.8874
  -2287322.31744  -1782327.98244  20241164.8354   20241164.5554
   4455527.14844   3471840.01044  21286072.2094   21286072.6594
  10093666.24444   7865193.96544  24017677.2994   24017675.4384
   9793811.08744   7631535.40744  24338358.5584   24338359.8044
 96  3 25  1 46 30.0000000  0  7G 6G16G20G 5G24G 4G 9
  -7586861.79444  -5911831.83344  22952479.0034   22952479.4284
  -9360633.53744  -7293993.52744  21876128.1384   21876129.2184
  -8163237.43644  -6360961.90044  20933278.6334   20933278.9524
  -2279745.11744  -1776423.66944  20242606.7644   20242606.3134
   4514704.21844   3517952.01544  21297333.6524   21297333.9834
  10189868.15744   7940156.49444  24035983.7854   24035983.0274
   9885404.12344   7702906.49044  24355789.1084   24355791.0374
 96  3 25  1 47  0.0000000  0  7G 6G16G20G 5G24G 4G 9
  -7652566.06344  -5963029.92144  22939975.6304   22939976.5584
  -9427479.22744  -7346081.03344  21863407.3444   21863409.0054
  -8214908.42744  -6401224.99644  20923445.8434   20923446.2294
  -2271641.13044  -1770108.87944  20244148.5024   20244148.2824
   4574118.56444   3564248.91644  21308639.7474   21308640.2754
  10286092.95744   8015136.87944  24054294.9874   24054294.9764
   9976929.10444   7774224.57844  24373205.7324   24373205.3644
 96  3 25  1 47 30.0000000  0  7G 6G16G20G 5G24G 4G 9
  -7718203.81244  -6014176.15844  22927485.3794   22927486.0244
  -9493896.83144  -7397834.96844  21850769.0744   21850770.2614
  -8266102.32144  -6441116.32344  20913704.0454   20913704.3204
  -2262997.32744  -1763373.45144  20245793.6654   20245793.1954
   4633800.11844   3610754.02744  21319997.0204   21319997.0984
  10382373.47944   8090160.65744  24072616.4394   24072616.9484
  10068421.72544   7845517.43244  24390614.9934   24390619.0264
 96  3 25  1 48  0.0000000  0  7G 6G16G20G 5G24G 4G 9
  -7783779.47544  -6065274.02244  22915006.3954   22915006.8434
  -9559887.92244  -7449256.55544  21838210.9414   21838212.4134
  -8316848.70644  -6480658.94244  20904047.2174   20904047.7044
  -2253824.25444  -1756225.60544  20247539.1574   20247538.8864
   4693750.29244   3657468.45844  21331404.9614   21331405.2054
  10478702.00144   8165221.88144  24090946.3554   24090946.6684
  10159883.25844   7916786.06744  24408020.9154   24408022.4794
 96  3 25  1 48 30.0000000  0  7G 6G16G20G 5G24G 4G 9
  -7849310.83044  -6116337.36544  22902536.3354   22902537.8244
  -9625463.53644  -7500354.40244  21825732.8814   21825734.6934
  -8367158.74044  -6519861.55244  20894473.7474   20894474.0434
  -2244120.88544  -1748664.54144  20249385.7074   20249385.3464
   4753970.98244   3704393.67244  21342864.3804   21342864.7964
  10575054.84444   8240302.01544  24109281.5694   24109280.4624
  10251319.34844   7988034.82644  24425420.1654   24425422.3594
 96  3 25  1 49  0.0000000  0  7G 6G16G20G 5G24G 4G 9
  -7914819.10344  -6167382.73344  22890070.7214   22890070.8784
  -9690651.93544  -7551150.49944  21813327.8984   21813329.0334
  -8417033.25844  -6558724.79944  20884982.9194   20884982.9984
  -2233900.55844  -1740700.65044  20251330.7004   20251330.5154
   4814435.10744   3751508.57644  21354370.3434   21354370.4364
  10671393.71944   8315371.30944  24127614.9434   24127614.9824
  10342713.88944   8059251.25144  24442812.1754   24442813.7324
 96  3 25  1 49 30.0000000  0  7G 6G16G20G 5G24G 4G 9
  -7980319.58044  -6218422.01044  22877605.8434   22877605.7554
  -9755454.29044  -7601645.79344  21800996.1344   21800997.3704
  -8466477.54144  -6597252.79544  20875573.9524   20875574.3164
  -2223146.56944  -1732320.91944  20253376.8724   20253376.7964
   4875131.58344   3798804.54444  21365920.6154   21365920.7104
  10767702.44844   8390417.05444  24145942.5784   24145942.4374
  10434046.56544   8130419.45244  24460192.6574   24460194.2924
 96  3 25  1 50  0.0000000  0  7G 6G16G20G 5G24G 4G 9
  -8045827.50744  -6269467.09444  22865140.3904   22865140.6314
  -9819856.41544  -7651829.22744  21788741.1454   21788742.1144
  -8515471.82144  -6635430.14444  20866250.4474   20866250.8834
  -2211846.92344  -1723515.99844  20255527.4194   20255527.2164
   4936061.08944   3846282.08544  21377514.9404   21377515.4414
  10863961.10244   8465423.83344  24164258.3284   24164259.4804
  10525299.06744   8201525.21844  24477557.8734   24477560.7944
 96  3 25  1 50 30.0000000  0  7G 6G16G20G 5G24G 4G 9
  -8111319.76544  -6320499.97044  22852677.7974   22852677.8674
  -9883829.33444  -7701678.20844  21776567.2204   21776568.5494
  -8563980.34944  -6673228.97744  20857019.4614   20857019.6904
  -2199985.93944  -1714273.67444  20257784.4374   20257784.0544
   4997224.82044   3893942.13744  21389154.0394   21389154.5924
  10960180.71844   8540400.15844  24182569.0684   24182569.5474
  10616479.07444   8272574.49944  24494908.8174   24494911.4114
 96  3 25  1 51  0.0000000  0  7G 6G16G20G 5G24G 4G 9
  -8176772.33044  -6371501.89744  22840222.2144   22840222.5864
  -9947350.31044  -7751175.02844  21764479.5984   21764480.8574
  -8611987.92844  -6710637.46944  20847883.9614   20847884.1444
  -2187569.47344  -1704598.50344  20260147.1744   20260146.8254
   5058614.58944   3941778.32744  21400836.2464   21400836.4304
  11056373.27044   8615355.40444  24200873.6544   24200873.7294
  10707582.92144   8343564.40244  24512244.0944   24512251.3424
 96  3 25  1 51 30.0000000  0  7G 6G16G20G 5G24G 4G 9
  -8242145.88644  -6422442.27344  22827782.0204   22827782.2564
 -10010402.82944  -7800306.81344  21752480.6454   21752481.7824
  -8659475.34044  -6747640.63144  20838847.5954   20838848.0014
  -2174579.97244  -1694476.81444  20262619.1794   20262618.7884
   5120257.13244   3989811.48544  21412566.5404   21412566.8684
  11152582.31944   8690323.53744  24219182.2564   24219180.5674
  10798629.62344   8414509.72344  24529570.4724   24529571.8474
 96  3 25  1 52  0.0000000  0  7G 6G16G20G 5G24G 4G 9
  -8307444.50244  -6473324.27244  22815356.2874   22815355.6664
 -10073002.21844  -7849085.51544  21740568.7674   21740569.4934
  -8706448.68944  -6784243.22944  20829908.8644   20829909.2994
  -2161020.89144  -1683911.29844  20265199.0884   20265198.7704
   5182151.66444   4038040.99144  21424344.5744   21424344.8514
  11248822.26044   8765315.73244  24237495.8334   24237496.3284
  10889612.65444   8485405.48944  24546884.2724   24546886.2834
 96  3 25  1 52 30.0000000  0  7G 6G16G20G 5G24G 4G 9
  -8372681.64944  -6524158.36244  22802942.0554   22802942.0124
 -10135175.68944  -7897532.33344  21728737.4174   21728738.7584
  -8752927.96744  -6820460.83344  20821063.9304   20821064.3814
  -2146911.97644  -1672917.33944  20267884.0374   20267883.9834
   5244282.52544   4086454.65244  21436167.7134   21436168.0834
  11345091.40544   8840330.70344  24255814.5834   24255814.2614
  10980520.98044   8556243.04944  24564184.1804   24564185.9734
 96  3 25  1 53  0.0000000  0  7G 6G16G20G 5G24G 4G 9
  -8437879.27044  -6574961.65044  22790534.7734   22790534.9914
 -10196929.82844  -7945652.39244  21716985.7484   21716986.8254
  -8798923.74444  -6856301.68744  20812311.7034   20812311.7514
  -2132267.99844  -1661506.44444  20270670.5724   20270670.1504
   5306654.61644   4135056.28944  21448036.6524   21448037.1924
  11441388.70744   8915367.54544  24274138.6654   24274137.5114
  11071345.18844   8627015.04144  24581467.2164   24581471.3864
 96  3 25  1 53 30.0000000  0  7G 6G16G20G 5G24G 4G 9
  -8503043.52644  -6625738.94044  22778134.8564   22778135.2064
 -10258259.63644  -7993441.80844  21705315.4224   21705316.5454
  -8844434.83244  -6891764.85444  20803650.9094   20803651.0964
  -2117081.38844  -1649672.72044  20273560.6864   20273560.3414
   5369279.08944   4183854.58444  21459953.6374   21459954.5234
  11537719.77044   8990430.72244  24292469.7594   24292471.9684
  11162088.24144   8697723.79544  24598734.6804   24598738.5254
 96  3 25  1 54  0.0000000  0  7G 6G16G20G 5G24G 4G 9
  -8568167.07144  -6676484.49644  22765742.2894   22765741.6454
 -10319138.33044  -8040879.70744  21693730.5754   21693731.6494
  -8889444.86344  -6926837.58944  20795085.8194   20795086.1524
  -2101341.82344  -1637408.12344  20276555.7104   20276555.3724
   5432164.32544   4232856.07044  21471920.3294   21471920.8004
  11634073.76644   9065511.75544  24310806.1404   24310808.5084
  11252765.56244   8768381.32344  24615990.1564   24615988.0304
 96  3 25  1 54 30.0000000  0  7G 6G16G20G 5G24G 4G 9
  -8633253.16944  -6727200.88844  22753356.9204   22753356.9214
 -10379573.21144  -8087971.77644  21682230.4634   21682231.5224
  -8933963.64244  -6961527.53244  20786613.8614   20786614.2064
  -2085076.45144  -1624733.80644  20279650.8484   20279650.5404
   5495284.97044   4282040.98944  21483931.9804   21483932.5594
  11730419.25444   9140586.18944  24329140.7844   24329137.8624
  11343365.84844   8838978.88244  24633231.1784   24633233.0264
 96  3 25  1 55  0.0000000  0  7G 6G16G20G 5G24G 4G 9
  -8698300.28544  -6777886.89344  22740978.6384   22740978.0504
 -10439560.13744  -8134714.78844  21670814.6484   21670815.8384
  -8978000.59744  -6995842.02544  20778234.1254   20778234.3604
  -2068291.90044  -1611654.93644  20282844.8224   20282844.4524
   5558626.03544   4331397.66744  21495985.2734   21495985.6634
  11826745.18644   9215645.46244  24347470.1474   24347472.1824
  11433881.30344   8909510.22844  24650455.3424   24650457.5444
 96  3 25  1 55 30.0000000  0  7G 6G16G20G 5G24G 4G 9
  -8763265.61244  -6828509.17344  22728615.8944   22728615.6234
 -10499080.59144  -8181094.31744  21659488.5824   21659489.5614
  -9021517.92944  -7029751.62644  20769953.0914   20769953.4444
  -2050944.19044  -1598137.23844  20286146.1654   20286145.7914
   5622197.20144   4380933.64744  21508082.2734   21508082.6684
  11923057.64944   9290694.09844  24365798.5464
  11524334.97544   8979993.50144  24667669.7314   24667671.8054
 96  3 25  1 56  0.0000000  0  7G 6G16G20G 5G24G 4G 9
  -8828134.85944  -6879056.58944  22716271.9374   22716272.2694
 -10558117.81544  -8227097.30244  21648254.5064   21648255.3634
  -9064505.79744  -7063248.64744  20761772.8394   20761772.9064
  -2033015.75744  -1584167.02844  20289557.8674   20289557.5504
   5685996.17344   4430647.13444  21520223.0024   21520223.4574
  12019356.05544   9365731.81044  24384124.4104   24384123.1004
  11614737.22344   9050436.67744  24684871.3904   24684872.6794
 96  3 25  1 56 30.0000000  0  8G 6G16G20G 5G24G 4G 9G17
  -8892947.26444  -6929559.69944  22703938.1784   22703938.2414
 -10616697.14444  -8272743.48544  21637106.5164   21637107.7294
  -9107008.08644  -7096367.30244  20753684.7384   20753684.8964
  -2014548.95644  -1569777.31144  20293072.0104   20293071.5314
   5749993.29844   4480515.02744  21532401.0104   21532401.3954
  12115614.26344   9440738.28044  24402441.5004   24402440.3474
  11705038.30044   9120801.05644  24702055.4774   24702056.9744
         0.25954                  25517391.1814
 96  3 25  1 57  0.0000000  0  8G 6G16G20G 5G24G 4G 9G17
  -8957753.40544  -6980057.93544  22691605.8614   22691605.3574
 -10674857.22644  -8318062.98144  21626039.3684   21626039.9954
  -9149076.51044  -7129147.87344  20745679.5454   20745679.6074
  -1995579.59044  -1554995.98544  20296681.3984   20296681.0904
   5814147.48644   4530505.31044  21544609.1134   21544609.4924
  12211783.15344   9515675.11844  24420741.3484   24420741.1854
  11795179.32344   9191040.66344  24719208.3804   24719211.5134
    -98307.20844                  25498684.6254
 96  3 25  1 57 30.0000000  0  8G 6G16G20G 5G24G 4G 9G17
  -9022524.11544  -7030528.57444  22679280.2404   22679280.4374
 -10732557.35344  -8363024.07044  21615059.0584   21615060.0444
  -9190664.82344  -7161554.33844  20737765.3614   20737765.2904
  -1976066.69144  -1539791.12744  20300394.5104   20300394.1674
   5878495.90644   4580646.93944  21556854.3484   21556854.9324
  12307905.91644   9590575.96944  24439032.5904   24439033.0824
  11885190.17144   9261178.89944  24736337.1604   24736341.4154
   -196549.12144                  25479990.3704
 96  3 25  1 58  0.0000000  0  8G 6G16G20G 5G24G 4G 9G17
  -9087236.16744  -7080953.50344  22666966.0284   22666966.4234
 -10789762.35944  -8407599.35544  21604173.3244   21604174.5544
  -9231749.91044  -7193568.67744  20729947.3994   20729947.5534
  -1956002.48544  -1524156.68044  20304212.8634   20304212.5904
   5943086.31244   4630977.12944  21569145.3374   21569146.2374
  12404044.98744   9665489.55044  24457327.2494   24457324.0274
  11975099.78844   9331238.22044  24753447.0504   24753449.1974
   -294698.32644                  25461311.4954
 96  3 25  1 58 30.0000000  0  7G 6G16G20G 5G24G 4G 9
  -9151917.11844  -7131354.19644  22654657.5434   22654657.5424
 -10846502.71244  -8451812.56944  21593375.9874   21593377.0704
  -9272323.13844  -7225184.16444  20722226.4764   20722226.6734
  -1935403.79644  -1508105.75044  20308132.6754   20308132.3014
   6007914.32344   4681492.46544  21581481.6624   21581482.0624
  12500192.79444   9740409.93644  24475624.0404   24475621.9074
  12064887.65344   9401202.67944  24770531.6474   24770536.5184
 96  3 25  1 59  0.0000000  0  7G 6G16G20G 5G24G 4G 9
  -9216581.20144  -7181741.75644  22642352.2574   22642353.0804
 -10902799.72644  -8495680.32544  21582662.9534   21582663.6124
  -9312366.67244  -7256386.90944  20714606.1684   20714606.3314
  -1914266.77444  -1491635.34344  20312154.8624   20312154.5614
   6072956.69944   4732174.84244  21593858.9944   21593859.1174
  12596339.27944   9815329.27644  24493920.1234   24493917.8774
  12154553.47144   9471072.00244  24787596.2564
 96  3 25  1 59 30.0000000  0  7G 6G16G20G 5G24G 4G 9
  -9281248.78544  -7232132.03544  22630046.8264   22630047.6854
 -10958680.34244  -8539223.60844  21572029.4254   21572030.1204
  -9351889.84744  -7287184.17144  20707085.3834   20707085.5944
  -1892626.14744  -1474772.51444  20316272.9624   20316272.5934
   6138197.29444   4783011.68244  21606273.9914   21606274.2484
  12692468.93344   9890235.54844  24512213.1034   24512212.4434
  12244092.11744   9540842.28344  24804633.8714   24804638.8494
 96  3 25  2  0  0.0000000  0  8G 6G16G20G 5G24G 4G 9G17
  -9345913.79644  -7282520.31844  22617741.6254   22617742.1754
 -11014130.94044  -8582431.81144  21561476.9874   21561478.1494
  -9390884.77144  -7317569.81544  20699664.8094   20699664.8444
  -1870477.36844  -1457513.71944  20320487.8564   20320487.5084
   6203645.10144   4834009.97744  21618728.0514   21618728.3534
  12788570.18444   9965119.68944  24530500.1444   24530499.5384
  12333515.81744   9610523.01144  24821651.6764   24821655.1094
        -0.98354                  25386774.6274
 96  3 25  2  0 30.0000000  0  8G 6G16G20G 5G24G 4G 9G17
  -9410476.70044  -7332829.04144  22605455.5094   22605455.5564
 -11069049.49044  -8625225.43944  21551026.6584   21551027.1574
  -9429258.13544  -7347471.12644  20692362.7984   20692362.6974
  -1847708.15944  -1439771.47544  20324820.6654   20324820.1474
   6269378.01444   4885230.43844  21631236.8294   21631237.1424
  12884700.59644  10040026.50644  24548792.4334   24548794.6034
  12422907.93744   9680179.12244  24838661.1714   24838663.4534
    -97577.74044                  25368207.1524
 96  3 25  2  1  0.0000000  0  8G 6G16G20G 5G24G 4G 9G17
  -9474971.83344  -7383084.94344  22593182.2234   22593182.7804
 -11123481.88544  -8667640.24044  21540668.6904   21540669.3434
  -9467104.47044  -7376961.75944  20685160.7524   20685160.9404
  -1824382.65244  -1421595.75244  20329259.2764   20329258.8874
   6335327.40444   4936619.58544  21643786.5264   21643787.0214
  12980790.36744  10114901.71644  24567078.5844   24567078.0854
  12512193.65144   9749752.26844  24855652.9234   24855656.7694
   -195020.03144   -151963.55244  25349665.6514
 96  3 25  2  1 30.0000000  0  8G 6G16G20G 5G24G 4G 9G17
  -9539394.22344  -7433284.16644  22580923.4724   22580923.3104
 -11177422.81544  -8709672.08644  21530403.5014   21530404.3004
  -9504451.13944  -7406063.04644  20678054.1284   20678053.9774
  -1800507.55044  -1402991.77444  20333802.6474   20333802.2464
   6401487.94144   4988173.25644  21656376.5754   21656377.0324
  13076839.31444  10189745.05144  24585355.6774   24585355.8094
  12601354.91844   9819228.49544  24872619.1204   24872620.7024
   -292346.52044   -227802.30444  25331145.7564
 96  3 25  2  2  0.0000000  0  8G 6G16G20G 5G24G 4G 9G17
  -9603739.19744  -7483423.06644  22568678.9974   22568679.1564
 -11230868.49944  -8751318.02444  21520233.3944   21520234.6324
  -9541304.01144  -7434779.55344  20671040.8234   20671041.1044
  -1776071.38744  -1383950.60744  20338452.6024   20338452.2274
   6467838.68444   5039875.14544  21669002.4014   21669002.9994
  13172848.48244  10264557.40644  24603625.6474   24603624.6404
  12690368.65344   9888589.77544  24889559.2954   24889562.8864
   -389571.70944                  25312643.8104
 96  3 25  2  2 30.0000000  0  8G 6G16G20G 5G24G 4G 9G17
  -9667997.58044  -7533494.50544  22556450.4644   22556450.2834
 -11283821.07144  -8792579.72344  21510156.7224   21510157.4854
  -9577666.36544  -7463113.84144  20664121.5774   20664121.5394
  -1751066.74244  -1364466.46844  20343210.9344   20343210.5764
   6534380.66544   5091726.05344  21681665.1304   21681664.8474
  13268830.91144  10339348.96544  24621890.2424   24621890.7084
  12779230.51244   9957832.65344  24906468.0324   24906470.5494
   -486699.44944   -379246.01344  25294159.4334
 96  3 25  2  3  0.0000000  0  8G 6G16G20G 5G24G 4G 9G17
  -9732179.27844  -7583506.17244  22544237.0634   22544237.0584
 -11336284.34544  -8833460.14944  21500173.3824   21500174.1264
  -9613534.00344  -7491062.63344  20657295.9164   20657296.3754
  -1725511.59444  -1344553.36144  20348073.8304   20348073.5064
   6601106.77244   5143720.43344  21694362.9754   21694363.0564
  13364800.95144  10414130.86844  24640153.6244   24640154.3224
  12867950.07744  10026964.66144  24923351.6414   24923355.3414
   -583723.86444                  25275689.7744
 96  3 25  2  3 30.0000000  0  8G 6G16G20G 5G24G 4G 9G17
  -9796313.06544  -7633480.50944  22532032.7214   22532033.0924
 -11388259.02844  -8873959.85744  21490282.8354   21490283.4154
  -9648886.58844  -7518610.08744  20650568.8134   20650568.6894
  -1699419.72844  -1324222.03544  20353039.0074   20353038.6364
   6668011.69344   5195854.15244  21707094.2434   21707094.4694
  13460747.62644  10488894.55044  24658411.0674   24658410.3514
  12956537.59044  10095993.82944  24940208.7424   24940210.9544
   -680635.94144                  25257244.5614
 96  3 25  2  4  0.0000000  0  8G 6G16G20G 5G24G 4G 9G17
  -9860388.86544  -7683409.65844  22519839.7614   22519839.9424
 -11439731.33044  -8914068.09944  21480487.8104   21480488.7424
  -9683697.74844  -7545735.65244  20643944.2604   20643944.2324
  -1672784.47544  -1303467.29144  20358107.4664   20358107.1424
   6735121.24344   5248147.32644  21719864.8324   21719864.8484
  13556668.38044  10563638.02444  24676663.2824   24676663.9574
  13045011.43844  10164934.39044  24957045.2944   24957048.8294
   -777406.13544                  25238830.5724
 96  3 25  2  4 30.0000000  0  8G 6G16G20G 5G24G 4G 9G17
  -9924409.82744  -7733296.07844  22507657.2104   22507656.7514
 -11490702.31444  -8953785.70344  21470788.4244   21470789.3264
  -9717965.14844  -7572437.50744  20637423.2884   20637423.5174
  -1645610.22444  -1282292.54844  20363278.5314   20363278.1504
   6802454.39044   5300614.72844  21732677.8684   21732678.3794
  13652553.58244  10638353.75944  24694909.3654   24694911.7044
  13133379.04944  10233792.17244  24973859.8274
   -874014.47644                  25220451.4844
 96  3 25  2  5  0.0000000  0  8G 6G16G20G 5G24G 4G 9G17
  -9988423.74844  -7783177.01644  22495475.6054   22495475.2654
 -11541203.99544  -8993137.61944  21461178.1684   21461178.9334
  -9751712.33844  -7598734.00844  20631001.4644   20631001.5304
  -1617943.22844  -1260733.84744  20368543.5114   20368543.2414
   6869963.61644   5353219.32244  21745524.1474   21745524.7814
  13748365.89844  10713012.76444  24713141.6214   24713141.3774
  13221602.85744  10302537.97244  24990649.7694
   -970503.08044   -756235.23944  25202095.2244   25202097.3874
 96  3 25  2  5 30.0000000  0  8G 6G16G24G20G 5G 4G 9G17
 -10052443.61144  -7833062.58944  22483293.1024   22483292.5734
 -11591241.75744  -9032128.03844  21451656.1834   21451657.1634
   6937638.81144   5405953.24744  21758402.6004   21758402.9004
  -9784947.93844  -7624631.86444  20624677.0894   20624677.1194
  -1589779.90344  -1238788.39844  20373902.7584   20373902.3694
  13844096.82144  10787608.28444  24731358.3314   24731356.7134
  13309697.02644                  25007393.0654
  -1066897.03844   -831347.30744  25183753.4084   25183754.0934
 96  3 25  2  6  0.0000000  0  7G 6G16G24G20G 5G 4G17
 -10116420.05544  -7882914.32444  22471118.7174   22471118.9604
 -11640782.15644  -9070730.90244  21442229.0084   21442229.8974
   7005501.32444   5458833.13444  21771315.7244   21771316.3644
  -9817639.79444  -7650106.02344  20618455.9664   20618455.9234
  -1561066.35544  -1216414.20544  20379366.5454   20379366.3374
  13939804.80544  10862185.97144  24749571.1334   24749571.4874
  -1163172.58244   -906367.08644  25165432.4734   25165431.3994
 96  3 25  2  6 30.0000000  0  8G 6G16G24G20G 5G 4G25G17
 -10180336.81644  -7932719.54844  22458955.6784   22458955.2724
 -11689790.58344  -9108919.24344  21432903.2104   21432903.9944
   7073549.20644   5511857.46744  21784265.4554   21784265.4004
  -9849754.38244  -7675130.36944  20612344.7994   20612344.9104
  -1531765.08144  -1193582.04244  20384942.5554   20384942.2244
  14035525.95944  10936773.88044  24767786.3064
        -0.54654        -1.24454  25216883.3274
  -1259314.70244   -981282.88344  25147137.0844   25147140.3864
 96  3 25  2  7  0.0000000  0  8G 6G16G24G20G 5G 4G25G17
 -10244192.94644  -7982477.53144  22446804.6424   22446804.4674
 -11738258.39444  -9146686.32344  21423679.4324   21423680.3254
   7141764.00944   5565011.86944  21797246.1184   21797246.2024
  -9881288.42344  -7699702.33644  20606343.8884   20606343.8644
  -1501878.63844  -1170293.90444  20390629.8204   20390629.4814
  14131257.42544  11011369.89044  24786003.6934
    -34942.53544    -27229.14444  25210233.3514
  -1355335.38844  -1056104.10744  25128864.2664   25128864.6974
 96  3 25  2  7 30.0000000  0  8G 6G16G24G20G 5G 4G25G17
 -10308029.65544  -8032220.38744  22434656.3314   22434655.7274
 -11786243.01544  -9184076.89044  21414548.8454   21414549.6724
   7210090.37944   5618253.19744  21810248.1494   21810248.6274
  -9912314.15044  -7723878.21344  20600439.8894   20600439.8114
  -1471460.84944  -1146591.73244  20396418.2014   20396417.7564
  14226937.61244  11085925.92644  24804212.2464   24804209.6984
    -69458.37544                  25203666.5764
  -1451279.09444  -1130865.34844  25110605.9744   25110604.3924
 96  3 25  2  8  0.0000000  0  8G 6G16G24G20G 5G 4G25G17
 -10371809.17144  -8081918.67144  22422519.2784   22422518.8794
 -11833718.42944  -9221070.67744  21405514.5144   21405515.2124
   7278566.86244   5671611.49244  21823279.0904   21823279.6434
  -9942798.25344  -7747632.04744  20594639.1384   20594639.1994
  -1440491.57944  -1122459.83344  20402311.3194   20402310.9864
  14322585.59044  11160456.88844  24822414.4394   24822413.9764
   -103516.40844                  25197184.8354
  -1547096.46544                  25092365.4674
 96  3 25  2  8 30.0000000  0  8G 6G16G24G20G 5G 4G25G17
 -10435526.46444  -8131568.47644  22410394.3204   22410394.1024
 -11880680.39044  -9257664.37344  21396577.8344   21396578.4024
   7347217.78344   5725105.72344  21836342.7004   21836342.9974
  -9972744.77344  -7770966.98744  20588940.4844   20588940.3384
  -1408987.79944  -1097911.43244  20408306.3524   20408305.9894
  14418179.38544  11234945.59244  24840603.8674
   -137120.94044   -106848.61444  25190791.2234
  -1642771.99244                  25074155.2104
 96  3 25  2  9  0.0000000  0  8G 6G16G24G20G 5G 4G25G17
 -10499172.75944  -8181162.95744  22398282.8674   22398282.3714
 -11927143.98744  -9293869.73044  21387735.9394   21387736.9524
   7416049.72644   5778741.01644  21849441.1534   21849441.3844
 -10002179.55944  -7793903.17444  20583339.2154   20583339.3154
  -1376974.59644  -1072966.08044  20414398.3334   20414397.9274
  14513697.34344  11309375.19144  24858781.0684   24858785.4554
   -170290.71344   -132695.16744  25184477.8334
  -1738310.78344  -1354525.86344  25055978.8874
 96  3 25  2  9 30.0000000  0  8G 6G16G24G20G 5G 4G25G17
 -10562710.65044  -8230672.96644  22386191.9524   22386192.0504
 -11973081.19944  -9329664.91644  21378994.5084   21378995.4784
   7485100.38444   5832546.73644  21862580.5524   21862580.7624
 -10031063.44444  -7816410.08844  20577842.8124   20577842.8084
  -1344412.78044  -1047593.23644  20420594.6954   20420594.2664
  14609175.65244  11383773.90344  24876949.8874   24876951.6284
   -202976.18644   -158164.38644  25178257.6934
  -1833675.08144  -1428835.50744  25037834.1484
 96  3 25  2 10  0.0000000  0  8G 6G16G24G20G 5G 4G25G17
 -10626246.71244  -8280181.55444  22374101.5304   22374101.9044
 -12018593.94644  -9365129.35044  21370333.4364   21370334.0694
   7554271.37344   5886446.20444  21875743.9094   21875743.9314
 -10059478.91544  -7838552.00144  20572435.4764   20572435.4354
  -1311404.69444  -1021872.65044  20426875.6624   20426875.2374
  14704494.09744                  24895087.6794
   -235266.94644   -183326.04344  25172113.0084
  -1928967.84344  -1503089.49744  25019701.7024
 96  3 25  2 10 30.0000000  0  8G 6G16G24G20G 5G 4G25G17
 -10689684.35044  -8329613.43844  22362029.8994   22362029.5314
 -12063583.00044  -9400185.71644  21361772.5724   21361773.1674
   7623649.27644   5940506.91644  21888946.4854   21888946.6704
 -10087325.99144  -7860251.01244  20567136.1574   20567136.2654
  -1277851.58844   -995727.37244  20433260.7804   20433260.3514
  14799744.12844                  24913213.9314
   -267071.98944                  25166060.0364
  -2024103.02244  -1577220.63344  25001600.1754
 96  3 25  2 11  0.0000000  0  8G 6G16G24G20G 5G 4G25G17
 -10752980.63844  -8378935.19044  22349984.8014   22349984.6954
 -12107997.94944  -9434794.72244  21353320.6034   21353321.0944
   7693257.91144   5994747.41344  21902191.8714   21902191.8144
 -10114538.72844  -7881455.73244  20561957.7994   20561957.9574
  -1243690.16944   -969108.08644  20439761.3654   20439761.0554
  14894983.66644                  24931337.2644
   -298331.56244                  25160112.3654
  -2119048.75744  -1651204.20544  24983533.0964   24983535.1204
 96  3 25  2 11 30.0000000  0  8G 6G16G24G20G 5G 4G25G17
 -10816215.91344  -8428209.40544  22337951.8904   22337951.5404
 -12151899.43444  -9469003.62744  21344966.3234   21344967.0584
   7763030.33044   6049115.53644  21915469.2854   21915469.4614
 -10141169.95144  -7902207.32644  20556890.0134   20556890.2464
  -1208976.70044   -942058.63044  20446367.0164   20446366.8064
  14990159.74444                  24949448.9824
   -329090.13544                  25154261.2444
  -2213867.65344  -1725088.88244  24965488.3314   24965489.4284
 96  3 25  2 12  0.0000000  0  8G 6G16G24G20G 5G 4G25G17
 -10879385.06844  -8477432.09044  22325931.2344   22325930.9924
 -12195263.50944  -9502793.77344  21336714.4294   21336715.0304
   7832973.82244   6103616.96144  21928779.2094   21928779.4624
 -10167214.02244  -7922501.39944  20551933.8674   20551934.2694
  -1173715.04344   -914582.01644  20453077.4374   20453077.0644
  15085291.87844                  24967548.3854
   -359335.59744                  25148502.0064
  -2308551.70044  -1798868.50644  24947469.6494   24947472.7214
 96  3 25  2 12 30.0000000  0  8G 6G16G24G20G 5G 4G25G17
 -10942499.09344  -8526611.82144  22313920.9804   22313920.5874
 -12238088.99344  -9536164.24144  21328564.9874   21328565.7114
   7903070.16044   6158237.49044  21942118.0094   21942118.2754
 -10192700.00844  -7942360.60144  20547084.4084   20547084.4214
  -1137926.71844   -886695.01144  20459887.5704   20459887.1574
  15180394.60144                  24985648.1884
   -389077.45044                  25142843.4444
  -2403121.26644  -1872558.89744  24929471.1264   24929476.9304
 96  3 25  2 13  0.0000000  0  7G 6G16G24G20G 5G25G17
 -11005553.32544  -8575744.95544  22301921.6814   22301921.6904
 -12280361.89044  -9569104.11844  21320520.4874   21320521.1824
   7973325.23544   6212981.70844  21955487.3484   21955487.0364
 -10217633.55144  -7961789.32544  20542339.7194   20542339.7324
  -1101605.84244   -858393.03144  20466799.2054   20466798.9024
   -418295.79444                  25137279.2184
  -2497562.90044                  24911495.3534
 96  3 25  2 13 30.0000000  0  7G 6G16G24G20G 5G25G17
 -11068584.28944  -8624859.96644  22289927.5374   22289927.0964
 -12322113.40944  -9601637.73244  21312575.4674   21312576.1764
   8043718.27344   6267833.42944  21968882.6814   21968882.9784
 -10242058.20544  -7980821.52044  20537691.7214   20537691.7364
  -1064793.32744   -829707.95444  20473804.3334   20473804.1314
   -447020.91844                  25131813.0314
  -2591888.49344  -2019649.88944  24893545.4114
 96  3 25  2 14  0.0000000  0  7G 6G16G24G20G 5G25G17
 -11131606.22444  -8673967.94244  22277934.5594   22277934.5564
 -12363370.52744  -9633786.09944  21304724.6214   21304725.2244
   8114220.24444   6322770.02844  21982298.4904   21982298.8194
 -10265998.45644  -7999476.25444  20533135.9914   20533136.0714
  -1027513.54044   -800658.77144  20480898.5224   20480898.0824
   -475297.32644                  25126432.1464
  -2686117.44744                  24875617.2844
 96  3 25  2 14 30.0000000  0  8G 6G16G24G20G 5G 9G25G17
 -11194573.66644  -8723033.45944  22265952.3754   22265952.0704
 -12404097.56444  -9665521.41044  21296974.4724   21296975.1944
   8184880.94244   6377830.31444  21995744.7854   21995744.2684
 -10289407.27044  -8017716.88744  20528681.5784   20528681.6204
   -989702.51944   -771195.63944  20488093.6994   20488093.4274
        -0.42054                  25304220.0044
   -503088.64744                  25121143.6794
  -2780190.15844  -2166378.11444  24857717.3404   24857720.5014
 96  3 25  2 15  0.0000000  0  8G 6G16G24G20G 5G 9G25G17
 -11257458.66544  -8772034.72644  22253985.8254   22253985.4034
 -12444272.96544  -9696826.88244  21289329.6984   21289330.1384
   8255735.42844   6433041.59744  22009227.7464   22009227.9214
 -10312238.54444  -8035507.47844  20524336.9934   20524337.1324
   -951303.72544   -741274.50544  20495400.5124   20495400.3804
     85083.63044     66299.41544  25320410.8824
   -530368.77044                  25115951.8244
  -2874055.57944  -2239519.84244  24839856.6844   24839855.3574
 96  3 25  2 15 30.0000000  0  8G 6G16G24G20G 5G 9G25G17
 -11320236.47544  -8820952.48344  22242039.5924   22242039.0904
 -12483887.82944  -9727695.57344  21281791.1184   21281791.1944
   8326799.35344   6488416.08344  22022750.5304   22022750.9884
 -10334456.60144  -8052820.24444  20520108.8314   20520109.0244
   -912304.89344   -710885.80544  20502821.9044   20502821.5364
    170026.00644    132488.14644  25336575.0474
   -557147.02544                  25110858.0264
  -2967699.64144  -2312489.10544  24822036.1444   24822036.1374
 96  3 25  2 16  0.0000000  0  8G 6G16G24G20G 5G 9G25G17
 -11382975.05744  -8869839.66144  22230100.7734   22230100.1944
 -12523023.49944  -9758190.86244  21274343.7534   21274344.1924
   8397989.59444   6543888.99844  22036297.6314   22036298.1574
 -10356139.74444  -8069716.19344  20515982.5864   20515982.7524
   -872786.20644   -680092.02444  20510341.9734   20510341.7604
    254736.87544                  25352694.6504
   -583520.22444                  25105844.2244
  -3061208.97644  -2385353.38544  24804241.3694   24804241.5074
 96  3 25  2 16 30.0000000  0  8G 6G16G24G20G 5G 9G25G17
 -11445674.97244  -8918696.71644  22218169.2324   22218169.1474
 -12561670.86044  -9788305.65544  21266989.1284   21266989.8984
   8469304.91244   6599459.38044  22049869.1694   22049868.9404
 -10377284.24544  -8086192.42144  20511959.1104   20511959.2834
   -832753.88944   -648898.01544  20517960.1044   20517959.7844
    339213.51044                  25368770.4764
   -609478.09944                  25100900.7544
  -3154588.89144  -2458116.76444  24786472.7054
 96  3 25  2 17  0.0000000  0  8G 6G16G24G20G 5G 9G25G17
 -11508318.20344  -8967509.61144  22206248.7774   22206248.0644
 -12599800.20044  -9818016.79244  21259733.3674   21259733.9534
   8540739.28544   6655122.54144  22063462.5124   22063462.3244
 -10397863.47244  -8102228.18044  20508042.8634   20508042.9854
   -792210.17144   -617305.50944  20525675.1544   20525674.8414
    423450.26144                  25384800.3984
   -635001.74344                  25096049.8304
  -3247835.80044  -2530776.53544  24768728.3414   24768728.5034
 96  3 25  2 17 30.0000000  0  8G 6G16G24G20G 5G 9G25G17
 -11570898.10844  -9016273.15144  22194340.2344   22194339.8034
 -12637401.23644  -9847316.26744  21252578.0744   21252578.6674
   8612277.80544   6710866.84244  22077075.6594   22077075.8924
 -10417877.67444  -8117823.65644  20504234.5944   20504234.3854
   -751177.71744   -585332.17044  20533483.4774   20533483.0214
    507433.89044                  25400781.7054
   -660085.38444                  25091271.8244
  -3340961.59944  -2603341.90444  24751005.8804   24751011.6684
 96  3 25  2 18  0.0000000  0  8G 6G16G24G20G 5G 9G25G17
 -11633423.21444  -9064993.99244  22182441.9444   22182441.7464
 -12674459.75844  -9876193.00544  21245525.8524   21245526.5994
   8683918.46644   6766690.72044  22090708.4724   22090708.8264
 -10437338.69544  -8132988.08044  20500531.0194   20500531.0394
   -709651.46944   -552974.05744  20541385.8284   20541385.4494
    591164.07944                  25416716.6194
   -684708.21244                  25086588.8444
  -3433970.52144  -2675816.18944  24733306.0784   24733315.0144
 96  3 25  2 18 30.0000000  0  8G 6G16G24G20G 5G 9G25G17
 -11695867.41444  -9113651.79044  22170559.3794   22170558.9714
 -12710936.84544  -9904616.67644  21238584.7324   21238585.2264
   8755692.46244   6822618.51644  22104366.8394   22104367.2654
 -10456200.69144  -8147685.73144  20496941.7724   20496941.7144
   -667588.47644   -520197.70244  20549389.9184   20549389.6374
    674694.11744                  25432609.7434
   -708814.66244                  25082000.1984
  -3526831.02344  -2748174.88244  24715634.4664   24715639.9404
 96  3 25  2 19  0.0000000  0  8G 6G16G24G20G 5G 9G25G17
 -11758240.70444  -9162254.33144  22158690.3044   22158689.9934
 -12746857.95244  -9932607.11944  21231749.1164   21231749.5864
   8827571.21544   6878627.93044  22118044.6804   22118044.8184
 -10474483.58444  -8161932.13644  20493463.0304   20493463.0234
   -625004.69244   -487015.53644  20557493.4204   20557493.1144
    758016.51244                  25448466.2094
   -732422.36344                  25077508.4494
  -3619562.22544  -2820432.70544  24697986.3434   24697992.3214
 96  3 25  2 19 30.0000000  0  8G 6G16G24G20G 5G 9G25G17
 -11820528.97144  -9210790.62444  22146837.4994   22146837.1584
 -12782222.74044  -9960164.06244  21225019.4994   21225020.0314
   8899592.82544   6934748.67044  22131749.8034   22131750.3614
 -10492189.85744  -8175729.22444  20490093.2084   20490093.1054
   -581884.38644   -453415.30044  20565698.8174   20565698.5844
    841154.04744                  25464286.7984
   -755515.91044                  25073115.1594
  -3712156.93944  -2892584.23844  24680367.7724   24680371.7584
 96  3 25  2 20  0.0000000  0  8G 6G16G24G20G 5G 9G25G17
 -11882734.55644  -9259262.48444  22134999.4854   22134999.1864
 -12817038.35444  -9987293.08344  21218394.0314   21218394.3334
   8971764.79044   6990986.56144  22145483.6744   22145484.8154
 -10509324.58244  -8189080.95444  20486832.3944   20486832.7254
   -538224.93444   -419394.95144  20574006.9334   20574006.6354
    924111.84644                  25480073.0284
   -778086.61644                  25068821.9114
  -3804614.56244  -2964628.92344  24662773.1004
 96  3 25  2 20 30.0000000  0  6G 6G16G24G17G20G 5
 -11944829.29544  -9307647.97644  22123182.8604   22123182.2854
 -12851284.58244 -10013978.42544  21211877.2334   21211877.8034
   9044104.03544   7047354.80944  22159249.6884   22159249.4224
  -3896906.26644  -3036544.32044  24645210.1134   24645214.6024
 -10525858.53644  -8201964.54944  20483686.1984   20483686.2464
   -494011.98144   -384943.30344  20582420.3974   20582420.0304
 96  3 25  2 21  0.0000000  0  6G 6G16G24G20G 5G17
 -12006805.01344  -9355940.72444  22111389.7064   22111389.2024
 -12884951.82844 -10040212.61344  21205470.5594   21205471.0914
   9116615.02744   7103856.88244  22173048.1184   22173047.5474
 -10541802.82744  -8214388.66944  20480652.1324   20480652.0804
   -449254.37344   -350067.24944  20590937.6354   20590937.1824
  -3989018.34444  -3108319.75644  24627681.3864   24627688.4764
 96  3 25  2 21 30.0000000  0  7G 6G16G24G20G 5G 4G17
 -12068714.10744  -9404181.55644  22099608.6014   22099608.5374
 -12918063.15644 -10066013.61944  21199169.8674   21199170.2904
   9189271.27544   7160472.14544  22186873.7384   22186873.8554
 -10557200.02344  -8226386.47844  20477722.4144   20477722.1774
   -403989.68744   -314796.06944  20599551.0294   20599550.7114
        -0.60354                  25309395.0044
  -4080978.22044  -3179976.58744  24610182.8004   24610182.7624
 96  3 25  2 22  0.0000000  0  6G 6G16G24G17G20G 5
 -12130570.97744  -9452381.70044  22087837.7484   22087837.1654
 -12950613.22444 -10091377.27744  21192975.5764   21192976.4234
   9262044.63844   7217178.66444  22200721.3624   22200722.3614
  -4172791.46144  -3251519.12944  24592711.3974   24592714.7394
 -10572045.34844  -8237954.25944  20474897.3264   20474897.3184
   -358226.23644   -279136.24344  20608259.6014   20608259.2184
 96  3 25  2 22 30.0000000  0  6G 6G16G24G17G20G 5
 -12192374.06844  -9500539.93144  22076076.9874   22076076.7874
 -12982586.17044 -10116291.23144  21186891.4294   21186891.7864
   9334938.13344   7273978.78744  22214592.7804   22214593.3534
  -4264447.60244  -3322939.24144  24575270.2944   24575272.1344
 -10586327.81144  -8249083.44944  20472179.5484   20472179.4514
   -311959.16744   -243083.98644  20617064.0474   20617063.4974
 96  3 25  2 23  0.0000000  0  6G 6G16G24G17G20G 5
 -12254112.27344  -9548647.61344  22064328.9084   22064328.7304
 -13013975.86144 -10140750.69944  21180918.1804   21180918.6004
   9407956.09444   7330875.90944  22228487.9214   22228487.9644
  -4355937.23644  -3394229.66044  24557861.9804   24557859.9584
 -10600030.71444  -8259761.03244  20469571.9294   20469572.1754
   -265179.15644   -206632.03344  20625965.9704   20625965.6054
 96  3 25  2 23 30.0000000  0  6G 6G16G24G17G20G 5
 -12315815.38244  -9596727.93944  22052586.7714   22052587.0054
 -13044819.44944 -10164784.63444  21175048.8094   21175049.0024
   9481061.81144   7387841.40144  22242399.5524   22242400.0784
  -4447299.93744  -3465421.15644  24540476.4164   24540476.8204
 -10613157.34744  -8269989.57344  20467073.9864   20467073.8244
   -217914.57244   -169802.49244  20634960.1614   20634959.6574
 96  3 25  2 24  0.0000000  0  7G 6G16G24G20G 5G25G17
 -12377431.41944  -9644740.41844  22040861.7804   22040861.4314
 -13075094.73544 -10188375.73944  21169287.4464   21169287.6114
   9554286.31144   7444899.45144  22256333.8834   22256334.2694
 -10625655.39544  -8279728.30644  20464695.5154   20464695.4634
   -170131.42944   -132568.88244  20644053.0754   20644052.5824
        -0.91154        -0.50954  25037841.3874   25037841.3904
  -4538501.60144  -3536487.15944  24523119.2264   24523119.5764
 96  3 25  2 24 30.0000000  0  7G 6G16G24G25G20G 5G17
 -12438957.51644  -9692682.81044  22029153.8314   22029153.5594
 -13104830.50744 -10211546.44044  21163629.2984   21163629.6624
   9627614.37844   7502038.21644  22270287.4804   22270287.2634
    -18233.68844    -14207.90244  25034374.3354   25034372.6694
 -10637539.54544  -8288988.67844  20462434.0734   20462434.1614
   -121836.49844    -94936.47144  20653243.1584   20653243.1114
  -4629540.78244  -3607426.53644  24505793.9794   24505795.3644
 96  3 25  2 25  0.0000000  0  7G 6G16G24G20G 5G25G17
 -12500377.00544  -9740542.13944  22017465.8714   22017465.5694
 -13134023.16044 -10234293.93244  21158073.7154   21158074.2324
   9701045.77144   7559257.48844  22284261.2854   22284261.5564
 -10648806.18944  -8297767.87844  20460290.1984   20460290.4524
    -73008.75244    -56888.88344  20662534.9384   20662534.4564
    -35957.49044    -28018.64444  25031003.4664
  -4720412.85244  -3678235.72844  24488501.3534   24488505.9094
 96  3 25  2 25 30.0000000  0  7G 6G16G24G25G20G 5G17
 -12561693.05344  -9788320.86344  22005797.6204   22005797.3854
 -13162675.01944 -10256620.02944  21152621.5784   21152622.2484
   9774589.72944   7616564.46544  22298256.1424   22298256.2084
    -53176.17944    -41435.92344  25027727.7804   25027723.6094
 -10659469.57844  -8306077.00944  20458260.9074   20458260.9884
    -23644.62144    -18423.33344  20671928.2334   20671928.1194
  -4811116.12344  -3748913.39644  24471241.0354   24471244.2054
 96  3 25  2 26  0.0000000  0  7G 6G16G24G25G20G 5G17
 -12622907.43044  -9836020.35544  21994149.2194   21994148.6944
 -13190787.48044 -10278525.81644  21147272.1574   21147272.6164
   9848235.27044   7673950.60944  22312270.4244   22312270.9164
    -69914.18144    -54478.50144  25024541.8774   25024537.1734
 -10669566.76744  -8313944.94344  20456339.4834   20456339.5604
     26252.88144     20457.83144  20681423.7404   20681423.4944
  -4901641.79044  -3819452.74244  24454014.1734   24454015.4044
 96  3 25  2 26 30.0000000  0  7G 6G16G24G25G20G 5G17
 -12684030.95344  -9883649.05844  21982518.1884   21982517.5714
 -13218351.89444 -10300004.55844  21142026.4864   21142026.8864
   9921968.70744   7731405.23744  22326301.4294   22326301.4784
    -86184.31844    -67156.52644  25021444.5314   25021444.2594
 -10679118.94344  -8321388.19144  20454521.7764   20454521.9264
     76677.42044     59749.67044  20691019.0844   20691018.7634
  -4991997.29844  -3889859.44444  24436818.8194   24436825.7594
 96  3 25  2 27  0.0000000  0  7G 6G16G24G25G20G 5G17
 -12744986.88444  -9931147.16644  21970918.4984   21970917.8734
 -13245259.06344 -10320971.15944  21136906.5594   21136906.8614
   9995891.89144   7789007.72244  22340368.6394   22340368.5384
   -101900.49444    -79402.98344  25018451.9694   25018449.6334
 -10688032.29844  -8328333.66344  20452825.6054   20452825.4494
    127702.86044     99509.74644  20700729.1324   20700728.6894
  -5082107.29244  -3960074.84544  24419672.4134   24419677.9474
 96  3 25  2 27 30.0000000  0  7G 6G16G24G25G20G 5G17
 -12805819.11944  -9978548.89244  21959342.2544   21959342.0074
 -13271542.72044 -10341451.90444  21131904.8474   21131905.2854
  10069969.41444   7846730.47344  22354465.0074   22354465.0304
   -117094.88544    -91242.74144  25015560.3754   25015559.2044
 -10696337.60144  -8334805.32444  20451244.9484   20451245.0134
    179277.43244    139697.71744  20710543.5624   20710543.0654
  -5172004.39044  -4030124.38644  24402566.3254   24402569.5764
 96  3 25  2 28  0.0000000  0  7G 6G16G24G20G 5G25G17
 -12866586.20844 -10025899.86144  21947778.5954   21947778.1344
 -13297248.04544 -10361482.00444  21127012.8844   21127013.1104
  10144135.13944   7904521.94644  22368578.5084   22368578.2774
 -10704083.59944  -8340841.16544  20449771.3564   20449771.1924
    231336.91044    180263.53844  20720449.9534   20720449.5244
   -131813.74744   -102711.95544  25012758.3864   25012758.3264
  -5261757.81944  -4100061.97344  24385485.7734   24385488.9454
 96  3 25  2 28 30.0000000  0  7G 6G16G24G25G20G 5G17
 -12927285.70244 -10073198.15244  21936227.6524   21936227.1164
 -13322354.33844 -10381045.32844  21122235.3984   21122235.5794
  10218410.99644   7962399.24544  22382712.7754   22382712.4494
   -146026.36144   -113786.71844  25010054.6824   25010052.9654
 -10711243.16644  -8346420.04744  20448408.7124   20448408.7914
    283891.10744    221214.85044  20730450.4544   20730450.2294
  -5351367.68044  -4169887.65944  24368433.3634   24368436.9094
 96  3 25  2 29  0.0000000  0  7G 6G16G24G25G20G 5G17
 -12987919.18944 -10120445.00844  21924689.8294   21924689.7214
 -13346871.92944 -10400149.92444  21117569.8984   21117570.2254
  10292803.34144   8020367.30744  22396868.9724   22396868.4804
   -159729.76844   -124464.71644  25007449.6174   25007449.1244
 -10717803.61044  -8351532.08244  20447160.2934   20447160.5164
    336943.33844    262554.24244  20740545.9284   20740545.6054
  -5440818.15144  -4239589.20444  24351411.8724   24351412.4554
 96  3 25  2 29 30.0000000  0  7G 6G16G24G25G20G 5G17
 -13048508.79744 -10167657.67444  21913159.9214   21913159.3424
 -13370833.64944 -10418821.37044  21113010.0094   21113010.2784
  10367281.14344   8078401.96744  22411041.6834   22411041.6894
   -172958.34344   -134772.72044  25004933.9894   25004931.3354
 -10723800.12744  -8356204.69144  20446018.9744   20446018.9984
    390467.31544    304261.22544  20750731.5014   20750731.1774
  -5530119.75044  -4309174.74644  24334418.4104   24334419.3724
 96  3 25  2 30  0.0000000  0  7G 6G16G24G25G20G 5G17
 -13109044.99844 -10214828.72044  21901640.1784   21901639.6824
 -13394230.04644 -10437052.30944  21108558.1194   21108558.4324
  10441852.34244   8136509.41144  22425232.5234   22425232.0984
   -185714.29644   -144712.46944  25002509.4704   25002500.0384
 -10729234.63744  -8360439.37344  20444985.0774   20444985.1994
    444450.80944    346326.27844  20761003.9634   20761003.7954
  -5619260.62644  -4378634.99044  24317455.7064   24317458.8394
 96  3 25  2 30 30.0000000  0  7G 6G16G24G25G20G 5G17
 -13169513.24344 -10261946.80744  21890133.1484   21890132.9164
 -13417057.11944 -10454839.62044  21104214.1654   21104214.4914
  10516525.09044   8194695.97144  22439442.1194   22439441.9544
   -197990.59944                  25000174.5884
 -10734092.01344  -8364224.33844  20444060.6984   20444060.8914
    498896.24444    388751.28544  20771364.8164   20771364.3604
  -5708204.03444  -4447941.39644  24300530.8044   24300530.2854
 96  3 25  2 31  0.0000000  0  7G 6G16G24G25G20G 5G17
 -13229937.55544 -10309030.67144  21878635.0014   21878634.6414
 -13439333.94744 -10472198.17144  21099975.1014   21099975.3364
  10591262.36544   8252932.81444  22453663.7844   22453664.1734
   -209823.67444                  24997921.2644
 -10738398.97444  -8367580.41544  20443240.9954   20443241.2734
    553768.51044    431508.88244  20781806.4664   20781806.1174
  -5796984.55344  -4517120.89544  24283636.2714   24283636.9014
 96  3 25  2 31 30.0000000  0  7G 6G16G24G25G20G 5G17
 -13290309.22644 -10356073.51444  21867146.7754   21867146.4334
 -13461043.18044 -10489114.43744  21095843.8484   21095844.0294
  10666061.00844   8311217.47844  22467897.4644   22467897.9834
   -221209.87044                  24995749.9254
 -10742162.10644  -8370512.72644  20442525.0964   20442524.9784
    609061.61744    474594.41244  20792328.6344   20792328.3044
  -5885620.87644  -4586188.06644  24266768.7714   24266770.4654
 96  3 25  2 32  0.0000000  0  7G 6G16G24G25G20G 5G17
 -13350597.79644 -10403051.60244  21855674.4374   21855674.3564
 -13482161.44044 -10505570.20344  21091825.0524   21091825.4744
  10740938.98044   8369563.94744  22482146.1994   22482146.3454
   -232118.74344                  24993675.0204
 -10745340.13044  -8372989.11144  20441920.3814   20441920.3864
    664820.05244    518042.53244  20802939.3954   20802939.0024
  -5974103.65844  -4655135.58144  24249931.8594   24249933.2994
 96  3 25  2 32 30.0000000  0  7G 6G16G24G25G20G 5G17
 -13410806.04444 -10449967.09644  21844217.0904   21844217.2004
 -13502707.04744 -10521579.74744  21087915.4884   21087915.8484
  10815890.72644   8427967.90844  22496409.0764   22496408.5134
   -242563.24944                  24991683.9614
 -10747932.37944  -8375009.04444  20441427.0704   20441426.9924
    721075.12044    561877.64044  20813643.9494   20813643.5424
  -6062460.98944  -4723985.34344  24233117.1644   24233117.7814
 96  3 25  2 33  0.0000000  0  7G 6G16G24G25G20G 5G17
 -13470920.58044 -10496809.57144  21832777.7454   21832777.1894
 -13522681.69644 -10537144.39244  21084114.1364   21084114.6004
  10890929.88944   8486439.98544  22510688.1754   22510689.0724
   -252539.35844                  24989791.3864
 -10749934.79544  -8376569.37444  20441045.9574   20441046.0924
    777848.13544    606116.34244  20824447.6024   20824447.2534
  -6150706.37144  -4792747.86344  24216324.0454   24216323.2484
 96  3 25  2 33 30.0000000  0  7G 6G16G24G25G20G 5G17
 -13530926.09744 -10543567.09844  21821358.7464   21821358.3334
 -13542097.94244 -10552273.90944  21080419.6784   21080420.0634
  10966066.56944   8544988.04544  22524986.7434   22524987.0534
   -262040.25744                  24987979.6824
 -10751330.10144  -8377656.63144  20440780.5024   20440780.4104
    835149.16044    650766.47944  20835351.4194   20835351.2914
  -6238805.21644  -4861396.16444  24199557.6974   24199561.9164
 96  3 25  2 34  0.0000000  0  7G 6G16G24G25G20G 5G17
 -13590807.56244 -10590227.96944  21809963.5774   21809962.9334
 -13560952.93644 -10566966.09744  21076831.6864   21076831.9324
  11041314.11044   8603622.49244  22539305.7124   22539305.4064
   -271053.02244                  24986260.6174
 -10752097.49944  -8378254.60744  20440634.3804   20440634.3894
    892997.26344    695842.90944  20846359.3954   20846359.3384
  -6326723.37544  -4929903.72744  24182828.0364   24182831.3064
 96  3 25  2 34 30.0000000  0  7G 6G16G24G25G20G 5G17
 -13650564.42644 -10636791.74044  21798591.9744   21798591.5724
 -13579233.36444 -10581210.56744  21073352.9164   21073353.1104
  11116668.60744   8662340.29044  22553645.5594   22553646.2394
   -279575.80644                  24984639.2984
 -10752249.43944  -8378373.00844  20440605.2494   20440605.5234
    951378.21644    741334.54744  20857469.1904   20857469.1724
  -6414437.52544  -4998252.32844  24166137.0744   24166136.1034
 96  3 25  2 35  0.0000000  0  7G 6G16G24G25G20G 5G17
 -13710214.45844 -10683272.26544  21787241.1784   21787240.7364
 -13596940.83144 -10595008.57644  21069983.2824   21069983.4454
  11192108.33344   8721124.48844  22568001.1684   22568001.4954
   -287611.60644                  24983108.3474
 -10751795.84944  -8378019.56244  20440692.0194   20440691.9714
   1010251.16544    787209.55944  20868672.4184   20868672.2984
  -6501927.51344  -5066426.21944  24149488.1904   24149491.7464
 96  3 25  2 35 30.0000000  0  7G 6G16G24G25G20G 5G17
 -13769755.67744 -10729668.00444  21775911.1864   21775910.2224
 -13614060.99944 -10608348.94744  21066725.1104   21066725.7684
  11267621.95744   8779966.27544  22582371.1004   22582370.9984
   -295164.02144                  24981670.7104
 -10750741.60044  -8377198.07544  20440892.5984   20440892.5474
   1069603.69044    833458.27144  20879966.8824   20879966.4014
  -6589183.09744  -5134417.46844  24132883.4044   24132887.3794
 96  3 25  2 36  0.0000000  0  7G 6G16G24G25G20G 5G17
 -13829193.85244 -10775983.44544  21764600.3764   21764599.9184
 -13630580.08944 -10621220.94544  21063581.8354   21063582.1874
  11343200.88644   8838858.95144  22596752.9934   22596752.5854
   -302236.47244                  24980326.7764
 -10749104.75044  -8375922.60944  20441203.8574   20441203.7144
   1129433.48244    880078.87944  20891352.3404   20891351.8824
  -6676227.49844  -5202244.19844  24116320.4564   24116321.7114
 96  3 25  2 36 30.0000000  0  7G 6G16G24G25G20G 5G17
 -13888533.60144 -10822222.18844  21753308.3064   21753307.7884
 -13646505.67744 -10633630.47844  21060551.2104   21060551.5234
  11418840.29744   8897798.75044  22611146.3284   22611145.9234
   -308841.48644                  24979071.1414
 -10746890.79044  -8374197.44944  20441625.2844   20441625.4694
   1189719.35544    927054.87444  20902824.3324   20902824.0044
  -6763082.49544  -5269923.30444  24099792.6384   24099793.9064
 96  3 25  2 37  0.0000000  0  7G 6G16G24G25G20G 5G17
 -13947756.40644 -10868369.80444  21742038.5984   21742038.2804
 -13661822.66844 -10645565.77844  21057636.5394   21057636.6794
  11494560.83344   8956801.76944  22625555.0024   22625555.4814
   -314972.40944                  24977909.0734
 -10744079.29044  -8372006.67544  20442160.2134   20442160.2794
   1250471.56844    974394.24744  20914384.9064   20914384.6484
  -6849746.47344  -5337453.58944  24083301.1034   24083303.8994
 96  3 25  2 37 30.0000000  0  7G 6G16G24G25G17G20G 5
 -14006860.70844 -10914425.08744  21730791.1024   21730790.5024
 -13676535.50344 -10657030.31144  21054836.9424   21054837.0144
  11570356.15844   9015863.05544  22639979.2504   22639979.6784
   -320635.61944                  24976827.8174
  -6936240.88744  -5404851.74444  24066840.7324   24066843.4414
 -10740681.19544  -8369358.81144  20442807.0354   20442807.0304
   1311693.53044   1022099.66244  20926034.9204   20926034.9454
 96  3 25  2 38  0.0000000  0  7G 6G16G24G25G17G20G 5
 -14065874.02844 -10960409.46944  21719561.2924   21719561.1344
 -13690670.45844 -10668044.54644  21052146.9434   21052147.2174
  11646209.38644   9074969.46544  22654414.4154   22654413.7244
   -325840.03944   -253901.80444  24975838.8884
  -7022591.41744  -5472137.81344  24050408.4364   24050409.9824
 -10736701.40944  -8366257.68444  20443564.5544   20443564.4094
   1373366.92844   1070156.84444  20937771.1564   20937770.9154
 96  3 25  2 38 30.0000000  0  7G 6G16G24G25G20G 5G17
 -14124791.73244 -11006319.34844  21708349.6024   21708349.2234
 -13704223.38944 -10678605.25644  21049567.8684   21049568.0594
  11722129.88344   9134128.28844  22668861.0904   22668861.6314
   -330570.12844   -257587.60244  24974939.3144
 -10732117.89844  -8362686.12144  20444436.5614   20444436.5914
   1435495.74744   1118568.89644  20949593.6134   20949593.4734
  -7108776.97744  -5539295.26744  24034008.6974   24034009.9724
 96  3 25  2 39  0.0000000  0  7G 6G16G24G25G17G20G 5
 -14183609.68244 -11052151.50144  21697156.8624   21697156.7564
 -13717176.61144 -10688698.65944  21047102.8154   21047103.0964
  11798119.24644   9193340.79444  22683321.3494   22683321.3544
   -334814.66944   -260895.04144  24974132.5044
  -7194777.20544  -5606308.34544  24017644.2934   24017645.2674
 -10726930.43344  -8358643.94644  20445423.5254   20445423.6804
   1498095.90644   1167348.22844  20961506.2904   20961506.2484
 96  3 25  2 39 30.0000000  0  7G 6G16G24G25G17G20G 5
 -14242326.79444 -11097905.08644  21685983.9224   21685983.3854
 -13729531.45544 -10698325.79744  21044751.8404   21044751.8664
  11874180.62344   9252609.39844  22697795.0884   22697795.7074
   -338560.22944   -263813.62444  24973419.6224
  -7280598.31044  -5673181.88244  24001312.4794   24001313.4924
 -10721131.35944  -8354125.19444  20446527.0904   20446527.0834
   1561169.07644   1216496.13444  20973508.6334   20973508.6614
 96  3 25  2 40  0.0000000  0  7G 6G16G20G 5G24G25G17
 -14300925.37844 -11143566.31044  21674832.6224   21674832.1004
 -13741273.05444 -10707475.07944  21042517.6484   21042517.9634
 -10714706.75944  -8349119.01744  20447749.6534   20447749.8334
   1624716.34844   1266013.47444  20985601.3994   20985601.2094
  11950335.31244   9311950.70744  22712287.3884   22712286.7814
   -341807.23244                  24972798.0044
  -7366227.70144  -5739905.99944  23985017.1544   23985019.0954
 96  3 25  2 40 30.0000000  0  7G 6G16G20G 5G24G25G17
 -14359407.92144 -11189137.10544  21663703.3394   21663703.3704
 -13752413.23444 -10716155.72444  21040397.9654   21040397.8534
 -10707693.30744  -8343653.99144  20449084.4174   20449084.5134
   1688716.43944   1315883.66244  20997780.4844   20997780.2014
  12026569.54744   9371354.00144  22726793.9364   22726794.0424
   -344588.79844   -268511.31544  24972270.6894
  -7451670.53144  -5806484.77944  23968757.9074   23968756.6314
 96  3 25  2 41  0.0000000  0  7G 6G16G20G 5G24G25G17
 -14417776.29944 -11234618.93644  21652596.3894   21652596.4994
 -13762968.97244 -10724380.95944  21038389.1704   21038389.1694
 -10700106.88744  -8337742.50144  20450528.0464   20450528.2644
   1753165.72144   1366103.87144  21010044.7304   21010044.4344
  12102879.29844   9430816.14644  22741315.4574   22741314.7774
   -346914.42144                  24971829.2644
  -7536944.74344  -5872932.12244  23952531.3114   23952533.5944
 96  3 25  2 41 30.0000000  0  7G 6G16G20G 5G24G25G17
 -14476010.69544 -11279996.37644  21641514.9644   21641514.2744
 -13772925.18344 -10732139.03044  21036494.3924   21036494.3324
 -10691915.47344  -8331359.59044  20452087.0454   20452087.0744
   1818091.97544   1416695.74944  21022399.6284   21022399.1884
  12179285.39244   9490353.37044  22755854.4314   22755854.4384
   -348756.96744                  24971477.8784
  -7622037.60444  -5939238.19344  23936337.8434   23936338.3534
 96  3 25  2 42  0.0000000  0  7G 6G16G20G 5G24G25G17
 -14534129.91644 -11325284.07344  21630455.2444   21630454.7744
 -13782295.25444 -10739440.37144  21034711.4394   21034711.8214
 -10683150.31744  -8324529.60744  20453754.8124   20453754.8744
   1883479.57544   1467647.11544  21034842.4734   21034842.1094
  12255764.35244   9549947.34944  22770408.5504   22770408.9024
   -350138.74944                  24971213.4624
  -7706940.38444  -6005396.12544  23920180.4424   23920182.5894
 96  3 25  2 42 30.0000000  0  7G 6G16G20G 5G24G25G17
 -14592146.77044 -11370491.99444  21619414.9824   21619414.4824
 -13791089.26144 -10746292.82944  21033037.9374   21033038.3044
 -10673807.50844  -8317249.50444  20455532.7154   20455532.5684
   1949334.58844   1518962.69844  21047374.1314   21047374.0684
  12332300.88744   9609586.19144  22784972.4374   22784972.7354
   -351048.65244   -273545.00744  24971037.6934   24971038.2584
  -7791648.75644  -6071402.57744  23904061.3104   23904062.6754
 96  3 25  2 43  0.0000000  0  7G 6G16G20G 5G24G25G17
 -14650056.51544 -11415616.45644  21608394.9704   21608394.2884
 -13799284.97144 -10752679.08644  21031478.3544   21031478.5404
 -10663855.91044  -8309495.01844  20457426.2784   20457426.3294
   2015674.90544   1570656.43344  21059997.8584   21059997.8984
  12408897.07644   9669271.52544  22799547.9364   22799547.7834
   -351459.87144   -273865.41744  24970959.6004
  -7876152.75544  -6137249.79044  23887980.5294   23887982.6014
 96  3 25  2 43 30.0000000  0  7G 6G16G20G 5G24G25G17
 -14707877.87344 -11460672.04944  21597391.8894   21597391.7664
 -13806891.79044 -10758606.46344  21030030.5744   21030030.9974
 -10653311.17544  -8301278.34644  20459432.9004   20459433.2414
   2082463.89744   1622699.78844  21072707.6864   21072707.7814
  12485525.61744   9728982.07044  22814129.9454   22814129.8234
   -351408.78544   -273825.64044  24970970.0174
  -7960451.07144  -6202936.71644  23871939.3724   23871941.5504
 96  3 25  2 44  0.0000000  0  7G 6G16G20G 5G24G25G17
 -14765597.51544 -11505648.38544  21586408.3744   21586408.1384
 -13813901.75644 -10764068.76344  21028696.5714   21028697.0434
 -10642167.46644  -8292594.94444  20461553.5854   20461553.5824
   2149692.80644   1675085.92944  21085501.3794   21085501.4294
  12562190.56544   9788720.98244  22828718.8714   22828719.6984
   -350894.62844   -273425.00944  24971068.9704
  -8044527.82544  -6268450.98944  23855939.8884   23855942.8534
 96  3 25  2 44 30.0000000  0  7G 6G16G20G 5G24G25G17
 -14823236.19344 -11550561.63544  21575440.2084   21575439.8034
 -13820343.19044 -10769088.04844  21027471.2134   21027471.2524
 -10630438.33744  -8283455.36744  20463785.5814   20463785.3734
   2217344.86444   1727801.79844  21098375.1024   21098375.0664
  12638869.15644   9848470.51644  22843310.7074   22843311.2654
   -349932.21944   -272675.12644  24971250.9044   24971251.6704
  -8128424.28644  -6333824.79744  23839975.3794   23839978.9764
 96  3 25  2 45  0.0000000  0  7G 6G16G20G 5G24G25G17
 -14880766.98944 -11595390.82044  21564492.3584   21564491.7914
 -13826192.02544 -10773645.57344  21026358.3294   21026358.2884
 -10618118.16044  -8273855.24044  20466129.9654   20466130.2154
   2285429.67144   1780854.87544  21111331.2814   21111330.9794
  12715579.35044   9908244.67244  22857907.6684   22857908.8024
   -348517.52944   -271572.81244  24971518.8184   24971522.3044
  -8212141.46544  -6399058.88144  23824044.6854   23824047.6404
 96  3 25  2 45 30.0000000  0  7G 6G16G20G 5G24G25G17
 -14938170.25744 -11640120.63144  21553568.7514   21553568.3884
 -13831449.02044 -10777741.91944  21025357.5674   21025357.9494
 -10605202.15944  -8263790.83044  20468587.8614   20468587.7024
   2353959.71844   1834254.89344  21124372.0974   21124371.7814
  12792339.60444   9968057.84444  22872514.9534   22872514.9424
   -346652.70644   -270119.65244  24971873.6814   24971876.2034
  -8295679.48144  -6464153.38844  23808148.8194   23808149.4474
 96  3 25  2 46  0.0000000  0  7G 6G16G20G 5G24G25G17
 -14995435.74544 -11684743.08144  21542671.8294   21542671.3214
 -13836113.86244 -10781376.84744  21024469.8864   21024470.1694
 -10591699.07444  -8253268.95244  20471157.1244   20471157.4474
   2422949.39644   1888013.06444  21137500.4754   21137500.1714
  12869157.59244  10027916.00544  22887132.9194   22887133.0624
   -344324.08644   -268305.18344  24972317.6694   24972317.3324
  -8379065.42844  -6529129.41544  23792280.5394   23792280.5874
 96  3 25  2 46 30.0000000  0  7G 6G16G20G 5G24G25G17
 -15052562.78744 -11729257.65344  21531800.7584   21531800.1944
 -13840182.91944 -10784547.53344  21023695.8374   21023696.0784
 -10577623.69244  -8242301.13144  20473835.8234   20473835.7544
   2492392.59744   1942124.63044  21150714.9124   21150714.8404
  12946035.11244  10087820.56644  22901762.3124   22901762.2284
   -341547.19344   -266141.44444  24972847.4234   24972850.3994
  -8462317.18144  -6594000.85444  23776438.6964   23776437.6404
 96  3 25  2 47  0.0000000  0  7G 6G16G20G 5G24G25G17
 -15109520.18544 -11773640.03044  21520961.9814   21520961.1444
 -13843632.05544 -10787235.16044  21023039.2374   21023039.5364
 -10562953.73744  -8230870.00144  20476627.5364   20476627.7734
   2562291.39344   1996591.21044  21164015.9144   21164015.7684
  13022992.94744  10147787.70844  22916406.8104   22916406.2414
   -338322.34744   -263628.58544  24973461.1144   24973463.0524
  -8545399.20444  -6658740.03444  23760627.1714   23760627.2154
 96  3 25  2 47 30.0000000  0  7G 6G16G20G 5G24G25G17
 -15166326.37944 -11817904.58744  21510152.1544   21510151.6614
 -13846468.17244 -10789445.11144  21022499.1584   21022499.6544
 -10547692.16144  -8218977.87544  20479531.4964   20479531.5794
   2632633.46944   2051403.19744  21177401.9784   21177401.7744
  13100025.58244  10207813.11144  22931065.6234   22931066.3404
   -334650.56244   -260767.48144  24974159.2604   24974159.8034
  -8628300.31344  -6723338.27944  23744852.7464   23744854.1314
 96  3 25  2 48  0.0000000  0  7G 6G16G20G 5G24G25G17
 -15222980.94444 -11862050.99644  21499371.0454   21499370.5314
 -13848675.04344 -10791164.73944  21022079.6424   21022079.9364
 -10531827.61644  -8206615.89944  20482550.5104   20482550.6224
   2703413.53644   2106556.47744  21190870.8204   21190870.7184
  13177137.20244  10267900.07144  22945739.9494   22945739.8474
   -330511.50744   -257542.27944  24974948.4054   24974948.3524
  -8710991.91744  -6787773.22644  23729115.6234   23729116.9814
 96  3 25  2 48 30.0000000  0  7G 6G16G20G 5G24G25G17
 -15279493.20844 -11906086.51744  21488617.0234   21488616.7124
 -13850252.93544 -10792394.25644  21021779.3224   21021779.4144
 -10515337.80844  -8193766.70644  20485688.6424   20485688.8554
   2774626.97344   2162047.45044  21204422.2684   21204422.0894
  13254313.59344  10328037.49644  22960425.8844   22960425.8164
   -325907.27844   -253954.54444  24975824.7894   24975828.7824
  -8793455.60644  -6852030.60244  23713423.3274   23713423.6224
 96  3 25  2 49  0.0000000  0  7G 6G16G20G 5G24G25G17
 -15335884.27744 -11950027.59344  21477886.6294   21477886.0354
 -13851215.82944 -10793144.55544  21021596.0254   21021596.1824
 -10498214.34144  -8180423.75044  20488946.9754   20488947.2664
   2846277.02944   2217878.64744  21218057.0034   21218056.9664
  13331544.27844  10388217.24244  22975122.7684   22975122.3694
   -320826.44944   -249995.45244  24976791.0474   24976794.1804
  -8875678.77844  -6916100.58244  23697777.5174   23697777.7064
 96  3 25  2 49 30.0000000  0  7G 6G16G20G 5G24G25G17
 -15392159.60844 -11993878.49644  21467177.5054   21467176.8644
 -13851567.78844 -10793418.80044  21021528.6674   21021529.0964
 -10480456.18644  -8166586.23744  20492326.2944   20492326.3464
   2918367.86244   2274053.30844  21231775.7354   21231775.3754
  13408832.33444  10448441.69844  22989830.0954   22989830.2874
   -315243.44844   -245645.15744  24977854.1984   24977853.1164
  -8957667.09144  -6979987.52244  23682175.7014   23682177.4684
 96  3 25  2 50  0.0000000  0  7G 6G16G20G 5G24G25G17
 -15448328.45944 -12037646.42244  21456488.7304   21456488.4934
 -13851347.88544 -10793247.43844  21021570.8374   21021570.9754
 -10462087.31244  -8152272.83844  20495821.5944   20495821.8954
   2990879.20244   2330555.63544  21245573.7714   21245573.9084
  13486137.21344  10508679.24444  23004540.0944   23004541.6174
   -309178.76744   -240919.48644  24979009.4664
  -9039444.24544  -7043709.93644  23666613.8684   23666615.8394
 96  3 25  2 50 30.0000000  0  7G 6G16G20G 5G24G25G17
 -15504370.23244 -12081315.32644  21445824.2454   21445823.8794
 -13850558.72144 -10792632.49744  21021720.9664   21021720.9164
 -10443111.45044  -8137486.46044  20499432.9694   20499432.9104
   3063822.31644   2387394.40844  21259454.2314   21259454.4144
  13563467.83544  10568936.83644  23019255.3614   23019256.7334
   -302633.06744   -235818.94244  24980256.7934
  -9121009.25244  -7107267.04344  23651092.2604   23651093.8594
 96  3 25  2 51  0.0000000  0  7G 6G16G20G 5G24G25G17
 -15560256.85244 -12124863.33344  21435189.6444   21435189.1024
 -13849191.56544 -10791567.17244  21021981.1894   21021981.3924
 -10423538.93944  -8122235.16344  20503157.4744   20503157.6784
   3137204.80644   2444575.55044  21273418.4894   21273418.9464
  13640841.79444  10629228.22144  23033979.4904   23033979.6204
   -295590.29444   -230331.11844  24981594.8724
  -9202351.79644  -7170650.81144  23635613.6354   23635615.9784
 96  3 25  2 51 30.0000000  0  7G 6G16G20G 5G24G25G17
 -15615987.36944 -12168289.69944  21424584.5564   21424584.1634
 -13847258.84044 -10790061.14444  21022348.8394   21022349.0704
 -10403395.81544  -8106539.23044  20506990.3014   20506990.1694
   3211000.35844   2502078.55944  21287461.6814   21287461.6164
  13718225.87344  10689527.49944  23048705.6924   23048705.7344
   -288085.15844                  24983021.9424
  -9283504.76844  -7233886.87644  23620170.6824   23620173.0894
 96  3 25  2 52  0.0000000  0  7G 6G16G20G 5G24G25G17
 -15671564.65144 -12211596.66244  21414008.7194   21414008.1534
 -13844746.15944 -10788103.20444  21022827.2794   21022827.5034
 -10382683.87844  -8090400.06644  20510931.7534   20510932.1374
   3285219.06944   2559911.30444  21301584.9474   21301585.2944
  13795621.14144  10749835.47944  23063433.1584   23063434.2534
   -280139.90144   -218291.90644  24984535.2334   24984538.4424
  -9364477.64444  -7296982.57944  23604760.9934   23604763.7874
 96  3 25  2 52 30.0000000  0  7G 6G16G20G 5G24G25G17
 -15727005.23744 -12254797.10744  21403458.4264   21403457.7624
 -13841646.41944 -10785687.81444  21023416.8114   21023417.1734
 -10361409.89744  -8073822.94644  20514979.8214   20514980.0334
   3359850.05744   2618065.29844  21315786.8094   21315786.6494
  13873050.03044  10810169.66444  23078167.6704   23078167.5124
   -271769.42444   -211769.46444  24986129.8804   24986131.5694
  -9445286.56044  -7359950.51644  23589383.4634   23589384.5924
 96  3 25  2 53  0.0000000  0  7G 6G16G20G 5G24G25G17
 -15782327.15044 -12297905.07644  21392930.9074   21392930.3894
 -13837945.04444 -10782803.62244  21024121.5724   21024121.9424
 -10339569.96644  -8056804.82744  20519136.0554   20519136.3294
   3434884.16944   2676533.42544  21330064.9984   21330065.2314
  13950507.17944  10870525.86844  23092906.8604   23092907.1204
   -262965.89744   -204909.66044  24987804.6314   24987806.0544
  -9525932.14944  -7422791.22744  23574038.2154   23574037.6574
 96  3 25  2 53 30.0000000  0  7G 6G16G20G 5G24G25G17
 -15837518.59944 -12340911.39244  21382428.3894   21382427.8544
 -13833604.47944 -10779421.35744  21024947.2134   21024947.3214
 -10317133.97944  -8039322.25144  20523405.5404   20523405.5844
   3510343.91244   2735333.20444  21344424.4274   21344424.7854
  14028022.39544  10930927.32144  23107657.0084   23107657.4724
   -253712.05344   -197698.91044  24989565.2714   24989565.9514
  -9606378.04644  -7485476.33344  23558729.4484   23558731.1704
 96  3 25  2 54  0.0000000  0  7G 6G16G20G 5G24G25G17
 -15892586.60444 -12383821.51444  21371949.1264   21371948.7424
 -13828648.57944 -10775559.61244  21025890.4224   21025890.7704
 -10294116.57944  -8021386.62344  20527785.5784   20527785.6734
   3586210.67544   2794450.14244  21358861.7994   21358862.0454
  14105594.11244  10991372.81244  23122418.5334   23122420.0174
   -244022.05444   -190148.27544  24991409.2394   24991408.0214
  -9686625.07244  -7548006.45744  23543459.0604   23543460.6234
 96  3 25  2 54 30.0000000  0  7G 6G16G20G 5G24G25G17
 -15947503.00044 -12426613.50044  21361499.3604   21361498.7624
 -13823071.11144 -10771213.52944  21026951.6644   21026951.6244
 -10270507.05044  -8002989.60144  20532278.2064   20532278.5424
   3662484.62344   2853884.37044  21373376.1884   21373376.1124
  14183225.85644  11051865.06344  23137192.1214   23137192.4744
   -233877.12344   -182243.13644  24993338.2734   24993339.6464
  -9766644.39544  -7610359.15544  23528232.2144   23528233.8484
 96  3 25  2 55  0.0000000  0  7G 6G16G20G 5G24G25G17
 -16002268.56444 -12469287.95244  21351077.9104   21351077.0244
 -13816879.23344 -10766388.68844  21028130.3024   21028130.3714
 -10246318.74644  -7984141.57844  20536881.1224   20536881.3854
   3739157.10144   2913629.13544  21387966.3624   21387966.5294
  14260885.35744  11112378.96244  23151970.1424   23151970.3084
   -223298.55744   -174000.17144  24995350.4834
  -9846431.46044  -7672530.86644  23513049.3274   23513049.7064
 96  3 25  2 55 30.0000000  0  7G 6G16G20G 5G24G25G17
 -16056856.55444 -12511824.03644  21340690.1424   21340689.3494
 -13810076.74044 -10761088.03544  21029424.5744   21029424.7274
 -10221538.24044  -7964832.10544  20541596.9034   20541596.9904
   3816257.01144   2973706.96944  21402637.9234   21402637.8434
  14338587.08544  11172925.76244  23166756.4114   23166756.2484
   -212294.03944   -165425.23444  24997444.9924   24997443.6014
  -9925975.39044  -7734513.13544  23497913.0614   23497913.0674
 96  3 25  2 56  0.0000000  0  7G 6G16G20G 5G24G25G17
 -16111286.71044 -12554237.13144  21330332.0064   21330331.5014
 -13802694.72844 -10755335.81544  21030829.5064   21030829.5574
 -10196183.03444  -7945074.80844  20546421.6744   20546421.9354
   3893772.06244   3034108.28844  21417388.9424   21417389.0944
  14416319.40344  11233496.44044  23181548.1074   23181547.3094
   -200879.96044   -156531.16544  24999617.8624   24999616.9144
 -10005307.84144  -7796330.60844  23482816.1154   23482815.7974
 96  3 25  2 56 30.0000000  0  7G 6G16G20G 5G24G25G17
 -16165629.98444 -12596582.52844  21319990.7024   21319990.2164
 -13794774.39544 -10749164.12644  21032336.4044   21032336.6284
 -10170306.92644  -7924911.61944  20551345.6344   20551345.9534
   3971654.62444   3094795.99344  21432209.1834   21432208.9624
  14494036.68944  11294055.24244  23196337.4944   23196336.9194
   -189094.05644   -147347.35044  25001859.7534   25001861.1364
 -10084483.76144  -7858026.10744  23467749.2574   23467749.5694
 96  3 25  2 57  0.0000000  0  7G 6G16G20G 5G24G25G17
 -16219853.74044 -12638834.79444  21309672.2984   21309671.7184
 -13786279.86744 -10742545.00944  21033952.9084   21033953.0784
 -10143865.74844  -7904308.11644  20556377.4584   20556377.6224
   4049950.00744   3155805.36644  21447108.6674   21447108.7984
  14571773.68744  11354629.54044  23211130.3494   23211130.0794
   -176888.65144   -137836.68444  25004182.5894   25004181.5894
 -10163468.69844  -7919572.78944  23452719.0254   23452721.1244
 96  3 25  2 57 30.0000000  0  7G 6G16G20G 5G24G25G17
 -16273945.24644 -12680984.01144  21299379.1114   21299378.4074
 -13777210.44244 -10735477.92444  21035678.4764   21035678.7724
 -10116844.82544  -7883252.86444  20561519.3624   20561519.3344
   4128656.86444   3217135.36644  21462085.9754   21462085.7274
  14649535.03744  11415222.80244  23225927.9804   23225928.1084
   -164236.18844   -127977.62544  25006588.8334   25006587.1024
 -10242270.56344  -7980976.82344  23437723.5794   23437724.2404
 96  3 25  2 58  0.0000000  0  7G 6G16G20G 5G24G25G17
 -16327909.07644 -12723033.74044  21289110.4544   21289109.5494
 -13767551.31444 -10727951.33144  21037517.0804   21037517.1464
 -10089244.68344  -7861746.27344  20566771.4204   20566771.5694
   4207747.42244   3278764.35544  21477136.4124   21477136.5944
  14727312.39344  11475828.50444  23240728.2734   23240728.3854
   -151127.13544   -117762.77244  25009082.9704   25009085.2764
 -10320888.94344  -8042237.88544  23422762.1294   23422763.9394
 96  3 25  2 58 30.0000000  0  7G 6G16G20G 5G24G25G17
 -16381725.14044 -12764968.32344  21278869.3334   21278868.7614
 -13757282.33744 -10719949.53044  21039471.0334   21039471.3664
 -10061055.13744  -7839780.40544  20572135.6014   20572135.9374
   4287219.72844   3340690.80644  21492259.3824   21492259.4684
  14805094.92344  11536438.27344  23255529.5844   23255529.8404
   -137549.65244   -107182.91444  25011665.1754   25011664.6174
 -10399306.00544  -8103342.06244  23407839.4094   23407841.7484
 96  3 25  2 59  0.0000000  0  7G 6G16G20G 5G24G25G17
 -16435375.72744 -12806773.96644  21268659.9174   21268659.2864
 -13746402.83844 -10711471.99344  21041541.5964   21041541.6084
 -10032267.91544  -7817348.81644  20577613.6664   20577613.9484
   4367062.26444   3402905.74644  21507452.5494   21507452.9014
  14882873.93744  11597045.28644  23270331.4744   23270331.7334
   -123514.58244    -96246.55444  25014336.5134   25014336.1534
 -10477516.34744  -8164285.17844  23392957.0064   23392958.7064
 96  3 25  2 59 30.0000000  0  7G 6G16G20G 5G24G25G17
 -16488868.30944 -12848456.49244  21258480.8624   21258480.2774
 -13734913.62544 -10702519.36044  21043727.7604   21043727.6254
 -10002898.52344  -7794463.59244  20583202.6224   20583202.3654
   4447258.19444   3465396.06444  21522713.8234   21522714.0104
  14960656.02444  11657654.71344  23285132.5394   23285133.0764
   -109047.42144    -84973.54944  25017090.7284   25017087.5594
 -10555522.04444  -8225068.81144  23378112.7804   23378115.5794
 96  3 25  3  0  0.0000000  0  7G 6G16G20G 5G24G25G17
 -16542208.08344 -12890019.94544  21248330.5664   21248329.9454
 -13722820.36044 -10693096.03444  21046028.6124   21046028.8304
  -9972961.64644  -7771136.16744  20588899.5324   20588899.5624
   4527808.00744   3528162.12744  21538041.4424   21538041.6224
  15038444.44444  11718269.06644  23299934.6614   23299934.9434
    -94172.22044    -73382.58644  25019921.2264
 -10633318.37744  -8285689.29944  23363308.1884   23363311.0094
 96  3 25  3  0 30.0000000  0  7G 6G16G20G 5G24G25G17
 -16595373.57344 -12931447.59644  21238213.6754   21238213.1264
 -13710122.97444 -10683201.96344  21048445.0214   21048445.1204
  -9942444.69644  -7747356.74344  20594706.5714   20594706.7774
   4608734.77444   3591221.92944  21553441.6484   21553442.0374
  15116245.86444  11778893.53144  23314739.6644   23314739.0164
    -78882.39244                  25022829.2654
 -10710895.79244  -8346139.19644  23348546.4844   23348547.5144
 96  3 25  3  1  0.0000000  0  7G 6G16G20G 5G24G25G17
 -16648335.44544 -12972716.58444  21228135.0644   21228134.7364
 -13696819.28944 -10672835.45444  21050976.5214   21050976.5284
  -9911325.05144  -7723107.68444  20600628.4924   20600628.7914
   4690066.90844   3654597.60244  21568919.1164   21568918.7334
  15194086.84344  11839548.82544  23329553.0424   23329551.4744
    -63166.63944                  25025820.7704
 -10788245.27244  -8406411.51744  23333828.4474   23333828.0844
 96  3 25  3  1 30.0000000  0  7G 6G16G20G 5G24G25G17
 -16701113.75244 -13013842.52644  21218091.8454   21218091.4334
 -13682933.46344 -10662015.32544  21053619.1504   21053619.5254
  -9879642.01344  -7698419.61744  20606657.6394   20606657.8964
   4771797.55944   3718283.80944  21584471.9194   21584471.6224
  15271946.85444  11900218.94944  23344369.2334   23344369.3564
    -47048.19544                  25028887.6304
 -10865400.90544  -8466532.78044  23319145.9384   23319147.0644
 96  3 25  3  2  0.0000000  0  7G 6G16G20G 5G24G25G17
 -16753698.24144 -13054817.45144  21208085.2504   21208084.7464
 -13668475.57544 -10650749.44044  21056370.4414   21056370.5864
  -9847378.15044  -7673278.95944  20612797.1094   20612797.4384
   4853928.57444   3782281.97844  21600101.1104   21600100.6504
  15349811.77844  11960892.89944  23359186.2344   23359186.7874
    -30506.37544                  25032033.7924
 -10942363.08544  -8526503.29544  23304500.4344   23304502.0614
 96  3 25  3  2 30.0000000  0  7G 6G16G20G 5G24G25G17
 -16806081.29344 -13095635.41244  21198116.9484   21198116.4294
 -13653430.97844 -10639026.37344  21059233.0004   21059233.3004
  -9814511.82344  -7647668.84644  20619051.5594   20619052.0024
   4936461.37744   3846593.23244  21615806.2654   21615806.3934
  15427699.02144  12021584.24144  23374007.5944   23374007.9524
    -13511.07644    -10534.30544  25035270.6084
 -11019128.16744  -8586320.21244  23289891.5894   23289893.8114
 96  3 25  3  3  0.0000000  0  7G 6G16G20G 5G24G25G17
 -16858272.87444 -13136304.16944  21188185.5214   21188184.6394
 -13637783.96044 -10626833.88144  21062210.6264   21062210.7634
  -9781046.69844  -7621592.14544  20625419.7064   20625420.0804
   5019396.61144   3911218.06144  21631588.2824   21631588.1654
  15505630.37144  12082309.95244  23388837.4924   23388836.9954
      3945.52744                  25038593.4464
 -11095686.88144  -8645976.31844  23275322.1514   23275324.9514
 96  3 25  3  3 30.0000000  0  7G 6G16G20G 5G24G25G17
 -16910292.32544 -13176838.79844  21178286.4154   21178285.8674
 -13621522.74244 -10614162.80044  21065305.1024   21065305.3384
  -9746985.69944  -7595051.11944  20631901.0714   20631901.1324
   5102715.77044   3976142.05944  21647443.5234   21647443.9624
  15583606.59044  12143070.65844  23403675.6594   23403676.1594
     21863.02344     17028.07944  25042001.7694   25041999.9874
 -11172019.72244  -8705456.43444  23260798.2504   23260797.9884
 96  3 25  3  4  0.0000000  0  7G 6G16G20G 5G24G25G17
 -16962159.27844 -13217254.60144  21168416.2684   21168415.7084
 -13604662.51444 -10601024.95244  21068513.5094   21068513.4134
  -9712325.93944  -7568043.52644  20638496.7864   20638496.9704
   5186385.14444   4041338.94944  21663365.1584   21663365.7134
  15661623.44244  12203863.03544  23418521.8624   23418522.8694
     40221.48044                  25045494.7384
 -11248127.40644  -8764761.10244  23246314.9664   23246315.6254
 96  3 25  3  4 30.0000000  0  7G 6G16G20G 5G24G25G17
 -17013887.39844 -13257562.22244  21158572.8454   21158572.0894
 -13587209.52944 -10587425.21644  21071834.9064   21071834.8124
  -9677098.70744  -7540593.74844  20645200.2704   20645200.4794
   5270396.32044   4106802.17544  21679351.8394   21679352.0614
  15739685.79144  12264690.85744  23433376.3584   23433376.8304
     58989.19544     45955.67844  25049066.2074   25049065.4924
 -11324018.29944  -8823896.84544  23231873.1444   23231874.3884
 96  3 25  3  5  0.0000000  0  7G 6G16G20G 5G24G25G17
 -17065460.88844 -13297749.35144  21148758.9344   21148758.3274
 -13569162.40244 -10573362.51244  21075268.9924   21075269.1394
  -9641301.22544  -7512699.62244  20652012.5624   20652012.6624
   5354766.31844   4172545.01044  21695406.9174   21695406.7914
  15817797.30944  12325556.96044  23448241.1194   23448243.0464
     78157.51244     60892.75844  25052715.7914   25052713.4014
 -11399668.05644  -8882844.68444  23217477.4544   23217478.0004
 96  3 25  3  5 30.0000000  0  7G 6G16G20G 5G24G25G17
 -17116897.35744 -13337829.70344  21138970.6154   21138970.3044
 -13550578.38244 -10558881.44744  21078805.3064   21078805.0024
  -9604967.67344  -7484387.77844  20658926.7474   20658926.6254
   5439456.10744   4238537.02944  21711522.6694   21711522.5744
  15895901.52044  12386417.38244  23463103.7194   23463104.5634
     97677.37544     76103.55344  25056431.3394   25056430.8334
 -11475125.87744  -8941642.95344  23203118.7504   23203120.1224
 96  3 25  3  6  0.0000000  0  7G 6G16G20G 5G24G25G17
 -17168149.73344 -13377766.61144  21129217.7454   21129217.0834
 -13531431.08744 -10543961.46744  21082449.1784   21082449.2304
  -9568063.47344  -7455631.27544  20665948.9954   20665949.4034
   5524503.72944   4304807.88444  21727706.7904   21727707.1274
  15974023.85344  12447291.89844  23477969.7864   23477969.4844
    117593.99844     91624.68044  25060220.5734   25060220.0074
 -11550372.12144  -9000276.36644  23188799.5864   23188800.3454
 96  3 25  3  6 30.0000000  0  7G 6G16G20G 5G24G25G17
 -17219235.83644 -13417573.96044  21119496.1804   21119495.3034
 -13511737.61944 -10528615.90344  21086196.8734   21086196.7964
  -9530612.81744  -7426448.96244  20673075.9174   20673076.3704
   5609893.74944   4371345.53144  21743956.0764   21743956.3454
  16052119.04944  12508145.28844  23492830.8814   23492830.3974
    137900.40944    107451.95444  25064085.2614   25064085.8114
 -11625432.77044  -9058765.15544  23174516.0744   23174515.8264
 96  3 25  3  7  0.0000000  0  7G 6G16G20G 5G24G25G17
 -17270149.03644 -13457246.57344  21109808.0524   21109807.2694
 -13491487.11144 -10512836.27744  21090049.9434   21090050.2324
  -9492612.57444  -7396838.39944  20680306.9424   20680307.1634
   5695622.08244   4438146.80244  21760269.9194   21760269.9024
  16130167.32744  12568962.11944  23507682.2454   23507682.0864
    158600.13444    123587.91144  25068024.6324   25068024.2104
 -11700310.12144  -9117111.13244  23160266.8344   23160268.3694
 96  3 25  3  7 30.0000000  0  7G 6G16G20G 5G24G25G17
 -17320862.35944 -13496763.44044  21100157.6524   21100156.7614
 -13470641.73044 -10496593.11644  21094016.9604   21094016.8534
  -9454042.74044  -7366783.99744  20687646.8714   20687646.7784
   5781705.17044   4505224.49644  21776651.0554   21776650.8964
  16208187.67644  12629757.21244  23522530.2964   23522530.3314
    179713.90344    140053.89444  25072042.4774   25072042.4144
 -11774981.67144  -9175296.73344  23146057.1824   23146058.5294
 96  3 25  3  8  0.0000000  0  7G 6G16G20G 5G24G25G17
 -17371377.94344 -13536126.22244  21090544.6594   21090543.8344
 -13449181.79744 -10479871.08144  21098100.2344   21098100.3974
  -9414909.16544  -7336290.31844  20695093.5954   20695093.7174
   5868149.33144   4572583.55644  21793100.8444   21793100.8144
  16286187.89144  12690536.59744  23537372.7514   23537374.1404
    201246.03144    156845.78844  25076139.9954   25076140.1754
 -11849428.07344  -9233306.88444  23131890.3594   23131891.6914
 96  3 25  3  8 30.0000000  0  7G 6G16G20G 5G24G25G17
 -17421693.53444 -13575333.16344  21080969.7494   21080969.1914
 -13427105.43944 -10462668.71344  21102301.2094   21102301.3544
  -9375227.65244  -7305369.67144  20702644.5644   20702644.6214
   5954964.11044   4640231.40844  21809620.8444   21809621.1864
  16364175.60344  12751306.22044  23552213.5394   23552212.9004
    223175.78644    173922.72044  25080313.2214   25080313.0304
 -11923643.38844  -9291136.98544  23117767.9914   23117768.8944
 96  3 25  3  9  0.0000000  0  7G 6G16G20G 5G24G25G17
 -17471802.21644 -13614378.87244  21071434.5954   21071434.0914
 -13404423.65544 -10444994.59044  21106617.7114   21106617.6954
  -9335010.22544  -7274031.42944  20710297.9354   20710297.9264
   6042151.64644   4708169.72844  21826212.1524   21826212.0064
  16442170.80344  12812081.70844  23567054.8294   23567054.3444
    245491.95444    191303.15344  25084559.0444   25084558.5894
 -11997625.57344  -9348785.39544  23103689.4164   23103691.0054
 96  3 25  3  9 30.0000000  0  6G 6G16G 5G24G17G20
 -17521709.36444 -13653267.54744  21061937.6884   21061936.8984
 -13381153.31444 -10426861.84544  21111045.7534   21111045.8444
   6129704.20444   4776392.48844  21842873.1634   21842872.8894
  16520179.69544  12872867.84544  23581899.6004   23581900.1724
 -12071368.59144  -9406247.46444  23089656.3404   23089657.1714
  -9294256.80244  -7242275.52644  20718052.9094   20718053.1954
 96  3 25  3 10  0.0000000  0  6G 6G16G20G 5G24G17
 -17571441.39844 -13692019.76444  21052473.7144   21052473.1634
 -13357332.17544 -10408299.91244  21115578.7904   21115578.7244
  -9252987.53144  -7210117.66444  20725906.1144   20725906.3734
   6217590.84344   4844875.55844  21859597.0134   21859597.3184
  16598179.17744  12933646.64844  23596742.7344   23596742.2304
 -12144900.94944  -9463545.38844  23075664.3304   23075665.0024
 96  3 25  3 10 30.0000000  0  7G 6G16G20G 5G24G23G17
 -17620978.71544 -13730620.25744  21043047.1574   21043046.0294
 -13332947.55944 -10389298.89944  21120218.9084   21120219.1834
  -9211166.67244  -7177529.99444  20733864.5804   20733864.9114
   6305811.97344   4913619.27244  21876384.8064   21876385.0844
  16676200.36244  12994442.36044  23611589.8264   23611589.9554
        -0.64754         0.62554  25266474.4854
 -12218220.55144  -9520677.52744  23061712.3434   23061714.0984
 96  3 25  3 11  0.0000000  0  7G 6G16G20G 5G24G23G17
 -17670330.43544 -13769076.13344  21033656.0124   21033655.0814
 -13308003.74944 -10369862.16144  21124965.8674   21124965.8844
  -9168773.47944  -7144496.35044  20741931.6194   20741931.9984
   6394353.46244   4982612.61744  21893234.1594   21893234.1864
  16754235.51944  13055248.98644  23626439.5504   23626438.7954
   -107187.05544    -83521.01944  25246075.1274
 -12291331.57744  -9577647.13444  23047799.5724   23047801.6034
 96  3 25  3 11 30.0000000  0  6G 6G16G20G 5G24G17
 -17719505.51944 -13807394.36444  21024298.2304   21024297.8464
 -13282500.41944 -10349989.42944  21129819.0004   21129818.8644
  -9125798.76944  -7111009.57544  20750109.6424   20750109.8224
   6483203.60944   5051846.47344  21910141.7404   21910142.0874
  16832271.37144  13116056.15544  23641288.7104   23641288.0564
 -12364249.66544  -9634466.39344  23033923.3604   23033925.9234
 96  3 25  3 12  0.0000000  0  7G 6G16G20G 5G24G23G17
 -17768515.79644 -13845584.17744  21014971.6024   21014971.2714
 -13256450.73044 -10329690.95744  21134775.8244   21134775.8564
  -9082251.42544  -7077076.58944  20758396.4944   20758396.4124
   6572345.15244   5121307.39344  21927104.8014   21927104.7744
  16910304.99844  13176861.57544  23656138.0314   23656138.6554
        -0.89354         0.00054  25205269.3864
 -12437004.71644  -9691158.61344  23020079.2004   23020080.7064
 96  3 25  3 12 30.0000000  0  7G 6G16G20G 5G24G23G17
 -17817332.20944 -13883622.92944  21005682.4044   21005681.4394
 -13229818.00544 -10308938.18244  21139843.8644   21139844.1824
  -9038108.71544  -7042679.68244  20766796.3664   20766796.3754
   6661813.45744   5191022.94144  21944130.1274   21944130.0534
  16988372.61144  13237693.46244  23670994.0884   23670995.4144
   -107248.17444    -83569.17044  25184860.9234
 -12509557.62844  -9747693.32644  23006272.8664   23006273.2754
 96  3 25  3 13  0.0000000  0  7G 6G16G20G 5G24G23G17
 -17865953.01644 -13921509.25444  20996430.2434   20996429.3074
 -13202596.65844 -10287726.73344  21145024.1844   21145024.3194
  -8993390.03544  -7007833.96944  20775305.9924   20775306.2834
   6751618.50944   5261000.88444  21961219.1874   21961219.2924
  17066457.86944  13298539.12444  23685853.3064   23685854.2634
   -214521.14644                  25164447.0944
 -12581898.35744  -9804062.69344  22992505.7034   22992506.2294
 96  3 25  3 13 30.0000000  0  7G16G 5G24G23G17G 6G20
 -13174798.08144 -10266065.50044  21150313.9384   21150314.0074
   6841736.71044   5331222.84144  21978368.6954   21978368.5644
  17144547.69444  13359388.33044  23700711.7334   23700713.9534
   -321834.32744                  25144025.5274
 -12654042.66044  -9860279.02444  22978777.8334   22978778.8804
 -17914383.01744 -13959246.90744  20987214.2314   20987213.4314
  -8948141.15144  -6972575.10844  20783916.3314   20783916.7564
 96  3 25  3 14  0.0000000  0  7G16G 5G24G23G17G 6G20
 -13146418.91444 -10243951.85344  21155714.0514   21155714.2184
   6932173.61744   5401693.14744  21995578.1444   21995578.1934
  17222646.40644  13420244.44744  23715575.0884   23715574.8604
   -429166.91744   -334414.43444  25123601.6544
 -12725963.22644  -9916320.98944  22965090.9514   22965092.8834
 -17962608.55844 -13996825.23344  20978037.1254   20978036.5784
  -8902374.87744  -6936913.09044  20792625.6544   20792626.1124
 96  3 25  3 14 30.0000000  0  7G16G 5G24G23G17G 6G20
 -13117457.38944 -10221384.42244  21161225.0854   21161225.5214
   7022920.55544   5472405.02644  22012846.2264   22012846.4224
  17300714.88244  13481077.04644  23730431.4334   23730433.5504
   -536512.04344                  25103174.4754
 -12797668.40044  -9972195.11544  22951445.8754   22951447.8074
 -18010647.75744 -14034258.36744  20968895.2424   20968894.5054
  -8856111.54844  -6900863.75344  20801429.1314   20801429.4804
 96  3 25  3 15  0.0000000  0  7G16G 5G24G23G17G 6G20
 -13087912.67044 -10198362.55844  21166847.4964   21166847.3634
   7113979.34344   5543359.91544  22030174.4564   22030174.4354
  17378745.66544  13541880.24944  23745279.4264   23745279.0824
   -643851.96244                  25082747.4464
 -12869162.59644 -10027904.84244  22937841.5214   22937842.9804
 -18058488.66244 -14071536.98244  20959791.5714   20959790.9034
  -8809337.41544  -6864416.39044  20810330.3874   20810330.4534
 96  3 25  3 15 30.0000000  0  7G16G 5G24G23G17G 6G20
 -13057794.41144 -10174893.77744  21172578.9774   21172579.1674
   7205344.35244   5614553.39644  22047560.6124   22047561.2424
  17456749.05244  13602662.09244  23760122.9324   23760122.4334
   -751152.55044                  25062329.0454
 -12940431.99344 -10083439.40844  22924279.5924   22924280.0574
 -18106125.28344 -14108656.41544  20950726.6824   20950725.9274
  -8762043.21544  -6827563.77244  20819329.9674   20819330.1194
 96  3 25  3 16  0.0000000  0  6G16G 5G24G17G 6G20
 -13027105.96444 -10150980.70044  21178418.9384   21178419.1254
   7297021.88444   5685990.40544  22065006.7124   22065007.2614
  17534726.80344  13663423.96944  23774962.7654   23774961.4294
 -13011472.00244 -10138795.23044  22910761.0684   22910761.1754
 -18153563.16344 -14145620.98744  20941699.7164   20941698.8684
  -8714199.48044  -6790282.95444  20828434.2224   20828434.5234
 96  3 25  3 16 30.0000000  0  6G16G 5G24G17G 6G20
 -12995853.15344 -10126627.85044  21184366.0424   21184366.0634
   7389009.48844   5757669.03744  22082510.5664   22082510.9134
  17612676.49044  13724163.97744  23789795.0514   23789793.8594
 -13082296.83044 -10193983.38044  22897283.2364   22897283.8134
 -18200799.42644 -14182428.45444  20932710.7874   20932710.2044
  -8665796.95844  -6752566.71244  20837644.7344   20837644.9514
 96  3 25  3 17  0.0000000  0  6G16G 5G24G17G 6G20
 -12964050.94744 -10101846.90344  21190417.5884   21190417.6084
   7481307.89544   5829589.85344  22100075.4894   22100075.8954
  17690619.49044  13784898.79644  23804626.4954   23804627.4594
 -13152888.43644 -10248989.78744  22883850.0754   22883850.9734
 -18247809.04844 -14219059.31944  20923765.2634   20923764.3934
  -8616837.34444  -6714416.37344  20846961.6874   20846962.0644
 96  3 25  3 17 30.0000000  0  7G16G 5G24G23G17G 6G20
 -12931697.63944 -10076636.52644  21196574.2374   21196574.3814
   7573920.82044   5901755.74744  22117698.6344   22117699.0854
  17768561.17344  13845632.57644  23819458.6384   23819459.2124
        -0.23954         0.44654  24980725.9244   24980729.9304
 -13223238.37544 -10303807.87644  22870462.8724   22870463.7954
 -18294576.08044 -14255501.15144  20914865.8944   20914865.1864
  -8567331.95844  -6675840.75644  20856382.4184   20856382.6224
 96  3 25  3 18  0.0000000  0  7G16G 5G24G23G17G 6G20
 -12898797.78544 -10051000.27044  21202834.9534   21202834.8904
   7666828.60244   5974151.40944  22135378.2724   22135378.4544
  17846480.01044  13906348.57544  23834286.2084   23834287.9814
   -107207.79744    -83537.84144  24960325.1974   24960327.5274
 -13293362.17244 -10358449.75844  22857119.0624   22857119.5694
 -18341112.71044 -14291763.45044  20906010.0454   20906009.4544
  -8517292.28444  -6636848.81344  20865904.0804   20865904.5974
 96  3 25  3 18 30.0000000  0  7G16G 5G24G23G17G 6G20
 -12865364.30344 -10024948.20144  21209197.3734   21209197.3884
   7760005.05544   6046756.42944  22153109.7074   22153109.6004
  17924356.26344  13967031.37044  23849106.9464   23849104.7924
   -214458.08544   -167109.41244  24939917.9204
 -13363269.32744 -10412922.82344  22843816.0624   22843817.2344
 -18387423.33844 -14327849.64644  20897197.5164   20897196.7504
  -8466752.84644  -6597467.44144  20875521.7664   20875522.1774
 96  3 25  3 19  0.0000000  0  7G16G 5G24G23G17G 6G20
 -12831376.07544  -9998463.86344  21215665.1264   21215665.0054
   7853454.22144   6119573.93944  22170891.9484   22170892.3354
  18002212.38744  14027698.46144  23863921.2564   23863922.2774
   -321703.69944   -250677.36944  24919509.3324   24919513.3244
 -13432935.79044 -10467208.34044  22830558.8794   22830558.5394
 -18433503.52044 -14363756.27444  20888428.8314   20888428.0254
  -8415703.87544  -6557689.03344  20885236.3764   20885236.5924
 96  3 25  3 19 30.0000000  0  7G16G 5G24G23G17G 6G20
 -12796825.72944  -9971541.50944  21222239.5234   21222239.7994
   7947156.30144   6192588.53944  22188722.7734   22188723.0304
  18080051.49244  14088352.30444  23878733.4064   23878735.1874
   -428894.63444   -334202.73044  24899111.1234   24899113.1824
 -13502369.08144 -10521312.17744  22817346.0134   22817346.6784
 -18479371.19344 -14399497.30744  20879700.5084   20879699.9614
  -8364129.84344  -6517501.48444  20895050.6634   20895050.9624
 96  3 25  3 20  0.0000000  0  7G16G 5G24G23G17G 6G20
 -12761685.00344  -9944159.11944  21228926.4754   21228926.5574
   8041139.37844   6265822.08844  22206606.6964   22206607.3394
  18157915.02444  14149025.17644  23893550.1924   23893550.8574
   -535981.45444   -417646.92044  24878730.9984   24878735.2384
 -13571543.50044 -10575214.28844  22804182.6614   22804184.7564
 -18525011.67444 -14435061.29944  20871015.4094   20871014.7694
  -8311984.80944  -6476869.00144  20904973.4344   20904973.7344
 96  3 25  3 20 30.0000000  0  7G16G 5G24G23G17G 6G20
 -12725984.59444  -9916340.61644  21235720.3464   21235720.5984
   8135400.63344   6339272.39144  22224544.6894   22224545.1144
  18235795.58044  14209711.33444  23908371.2834   23908371.5024
   -642964.94544                  24858373.9094
 -13640507.70544 -10628952.58944  22791058.8524   22791061.5804
 -18570445.25044 -14470464.07544  20862369.6024   20862368.9584
  -8259303.09244  -6435818.32344  20914998.1554   20914998.5134
 96  3 25  3 21  0.0000000  0  7G16G 5G24G23G17G 6G20
 -12689731.75044  -9888091.64344  21242619.1204   21242619.4554
   8229948.73744   6412946.22944  22242536.1954   22242536.4284
  18313689.38644  14270407.79744  23923193.6334   23923193.8134
   -749845.66844   -584294.29244  24838036.0544   24838040.8574
 -13709270.97044 -10682534.30944  22777973.8034   22777975.4914
 -18615671.33444 -14505705.16944  20853763.3004   20853762.5884
  -8206093.94244  -6394356.65544  20925123.5254   20925123.9924
 96  3 25  3 21 30.0000000  0  7G16G 5G24G23G17G 6G20
 -12652959.12244  -9859437.64344  21249616.7014   21249616.9424
   8324770.37244   6486833.19044  22260580.6944   22260581.1324
  18391566.15944  14331091.00944  23938013.4784   23938012.0984
   -856673.88944   -667537.03144  24817707.9424   24817714.4984
 -13777862.46444 -10735982.17944  22764921.2934   22764922.2074
 -18660689.96544 -14540784.61444  20845196.4634   20845195.8194
  -8152383.01744  -6352503.99644  20935344.2014   20935344.5774
 96  3 25  3 22  0.0000000  0  7G16G 5G24G23G 6G20G17
 -12615669.31444  -9830380.64444  21256712.4454   21256712.6744
   8419885.18744   6560948.60344  22278680.7864   22278680.6224
  18469419.07144  14391755.62144  23952828.1654   23952829.5464
   -963491.79544   -750771.69844  24797380.8654   24797385.0674
 -18705484.90744 -14575689.74844  20836672.2624   20836671.6374
  -8098192.98844  -6310278.00544  20945656.5404   20945657.0744
 -13846288.87344 -10789301.42644  22751900.3514   22751901.1754
 96  3 25  3 22 30.0000000  0  7G16G 5G24G23G17G 6G20
 -12577849.33244  -9800910.52144  21263909.0704   21263909.3854
   8515289.33944   6635289.48344  22296835.2564   22296835.6724
  18547234.77844  14452391.20744  23967636.1154   23967635.6444
  -1070317.28144   -834012.30544  24777051.3144   24777054.5294
 -13914534.92844 -10842480.14244  22738913.3054   22738913.6884
 -18750039.14244 -14610407.31744  20828193.9204   20828193.1634
  -8043542.95644  -6267693.57944  20956055.8544   20956056.3854
 96  3 25  3 23  0.0000000  0  7G16G 5G24G23G17G 6G20
 -12539492.28344  -9771021.90944  21271208.5454   21271208.3444
   8610954.30444   6709833.60044  22315039.3354   22315038.9974
  18624997.87444  14512985.81744  23982433.5104   23982434.7534
  -1177166.52444   -917271.49044  24756718.4884   24756721.0114
 -13982576.21844 -10895499.29944  22725965.3744   22725966.0204
 -18794356.69344 -14644940.46044  20819760.6664   20819759.9874
  -7988428.35244  -6224747.14244  20966543.7234   20966544.0704
 96  3 25  3 23 30.0000000  0  7G16G 5G24G23G17G 6G20
 -12500574.60744  -9740696.43944  21278614.3804   21278614.5634
   8706887.27644   6784586.53444  22333294.8934   22333295.8974
  18702741.08444  14573564.95244  23997227.0044   23997230.2674
  -1284021.06844  -1000534.65444  24736384.6844   24736389.1724
 -14050393.26844 -10948343.71744  22713060.7114   22713061.3414
 -18838435.71744 -14679287.74244  20811372.5084   20811371.6954
  -7932812.89244  -6181410.43244  20977127.3094   20977127.5634
 96  3 25  3 24  0.0000000  0  7G16G 6G20G 5G24G23G17
 -12461098.33844  -9709935.70544  21286126.6924   21286127.1214
 -18882300.15844 -14713467.81644  20803025.5824   20803024.6424
  -7876706.83344  -6137691.43444  20987803.5694   20987803.8964
   8803078.00444   6859540.33844  22351599.5964   22351600.1444
  18780463.11244  14634127.55444  24012016.8884   24012017.9234
  -1390870.08744  -1083793.56944  24716052.4994
 -14117980.64444 -11001009.15344  22700198.9084   22700199.7844
 96  3 25  3 24 30.0000000  0  7G16G20G 6G 5G24G23G17
 -12421068.23944  -9678743.41644  21293743.6684   21293743.6734
  -7820085.00244  -6093570.53744  20998578.7144   20998579.1974
 -18925944.37744 -14747476.28444  20794720.2744   20794719.2534
   8899527.43444   6934695.72544  22369953.0674   22369954.0074
  18858175.22144  14694682.44944  24026805.1654   24026805.4914
  -1497672.83844  -1167016.46144  24695727.6934   24695732.5094
 -14185312.67444 -11053475.63544  22687386.3034   22687387.1524
 96  3 25  3 25  0.0000000  0  7G16G 6G20G 5G24G23G17
 -12380498.85044  -9647130.89644  21301463.7514   21301463.4264
 -18969364.14344 -14781309.85644  20786457.8174   20786457.0684
  -7762916.21844  -6049023.44244  21009457.5144   21009457.8614
   8996243.61844   7010058.96144  22388357.9694   22388358.3924
  18935895.39344  14755243.62144  24041594.0254   24041596.1004
  -1604402.87744  -1250182.71044  24675418.3364   24675420.6634
 -14252395.22344 -11105747.72444  22674621.4524   22674621.9534
 96  3 25  3 25 30.0000000  0  7G16G20G 6G 5G24G23G17
 -12339432.19344  -9615130.89744  21309278.2954   21309278.4684
  -7705229.29844  -6004072.60544  21020434.9634   21020435.4374
 -19012572.04544 -14814978.33844  20778235.5074   20778234.7174
   9093202.64844   7085611.43944  22406808.2214   22406808.0964
  19013591.54544  14815786.07744  24056380.4044   24056377.3624
  -1711079.77044  -1333307.49444  24655117.2664   24655124.7704
 -14319269.57444 -11157857.56844  22661895.6954   22661895.9944
 96  3 25  3 26  0.0000000  0  7G 6G16G20G 5G24G23G17
 -19055530.03844 -14848452.08944  20770061.1034   20770060.2604
 -12297858.56044  -9582735.85444  21317189.9964   21317189.8604
  -7647021.36544  -5958715.78144  21031511.6094   21031511.9264
   9190420.68344   7161365.73744  22425308.2774   22425308.7844
  19091258.84944  14876306.03944  24071159.8934   24071158.7234
  -1817678.86344  -1416371.68444  24634833.7034   24634835.0004
 -14385921.40144 -11209794.04244  22649211.7934   22649212.0974
 96  3 25  3 26 30.0000000  0  7G16G 6G20G 5G24G23G17
 -12255783.85244  -9549950.36144  21325196.5204   21325196.8774
 -19098241.81144 -14881733.98044  20761933.0214   20761932.2984
  -7588301.17744  -5912959.79844  21042685.7984   21042686.2694
   9287875.57144   7237304.57644  22443853.4924   22443854.0634
  19168878.39944  14936788.83344  24085930.5964   24085929.1074
  -1924214.67144  -1499386.51544  24614562.1804   24614564.6184
 -14452370.91044 -11261572.84844  22636566.8404   22636567.4024
 96  3 25  3 27  0.0000000  0  7G 6G16G20G 5G24G23G17
 -19140693.36544 -14914813.10144  20753854.6864   20753854.0934
 -12213175.07544  -9516748.71244  21333304.4884   21333304.6854
  -7529077.91244  -5866811.80744  21053955.4524   21053955.8744
   9385561.80444   7313423.69944  22462442.3724   22462442.6774
  19246464.46044  14997245.49044  24100695.1704   24100695.7024
  -2030681.01344  -1582347.28044  24594300.7364   24594303.8864
 -14518620.78644 -11313196.09144  22623959.6764   22623959.9554
 96  3 25  3 27 30.0000000  0  7G16G 6G20G 5G24G23G17
 -12170008.64544  -9483112.52244  21341518.8954   21341518.8184
 -19182877.97144 -14947684.21144  20745827.3544   20745826.3304
  -7469369.29744  -5820285.62444  21065317.4124   21065318.0294
   9483487.02844   7389729.05444  22481077.2664   22481077.7614
  19324023.66844  15057681.22444  24115453.8614   24115455.8994
  -2137082.32344  -1665257.31944  24574053.0744   24574056.3954
 -14584651.85544 -11364648.84744  22611394.4824   22611395.5054
 96  3 25  3 28  0.0000000  0  7G 6G16G20G 5G24G23G17
 -19224812.71344 -14980360.62644  20737847.7414   20737846.5604
 -12126286.88244  -9449043.61044  21349838.6254   21349838.4254
  -7409193.59344  -5773395.47444  21076768.6414   21076769.1714
   9581646.81144   7466217.17344  22499756.2904   22499755.8854
  19401557.98844  15118097.58044  24130208.3544   24130209.3534
  -2243424.39844  -1748121.21444  24553817.2704   24553823.6224
 -14650457.40744 -11415925.86644  22598871.9024   22598872.3914
 96  3 25  3 28 30.0000000  0  7G 6G16G20G 5G24G23G17
 -19266493.44944 -15012839.10644  20729915.7664   20729915.2274
 -12082006.46344  -9414539.37844  21358265.0444   21358264.8314
  -7348554.10944  -5726143.93444  21088307.8514   21088308.3844
   9680038.60344   7542886.07944  22518479.7404   22518479.8404
  19479082.06644  15178505.97944  24144959.3084   24144962.5754
  -2349712.21344  -1830942.87044  24533591.4764   24533598.0474
 -14716037.13944 -11467026.92544  22586392.2854   22586392.6984
 96  3 25  3 29  0.0000000  0  7G 6G16G20G 5G24G23G17
 -19307919.09944 -15045118.81944  20722032.6924   20722032.2264
 -12037177.55344  -9379607.75344  21366795.6694   21366795.6134
  -7287458.30344  -5678536.82644  21099934.1344   21099934.5424
   9778665.09344   7619737.87144  22537247.9624   22537247.6904
  19556606.14344  15238914.32844  24159712.9954   24159715.6824
  -2455942.45344  -1913719.65544  24513375.5914   24513377.0934
 -14781388.18244 -11517949.78044  22573956.0584   22573956.6544
 96  3 25  3 29 30.0000000  0  7G16G 6G20G 5G24G23G17
 -11991815.97144  -9344261.05944  21375427.7984   21375427.7754
 -19349091.50144 -15077201.20244  20714197.8544   20714196.7704
  -7225893.16144  -5630563.99544  21111649.7044   21111650.0484
   9877543.85744   7696786.23744  22556064.1264   22556063.7734
  19634113.08244  15299309.32644  24174461.0964   24174461.3784
  -2562111.31444  -1996448.59844  24493171.7654   24493174.9564
 -14846503.38144 -11568688.87244  22561565.2544   22561565.5394
 96  3 25  3 30  0.0000000  0  7G 6G16G20G 5G24G23G17
 -19390024.29044 -15109096.87744  20706408.6674   20706407.6984
 -11945948.61344  -9308520.25544  21384156.2764   21384156.3324
  -7163860.15944  -5582226.59944  21123454.1434   21123454.5164
   9976647.85344   7774010.10844  22574922.7304   22574923.2384
  19711585.37844  15359677.28744  24189203.3994   24189205.4384
  -2668209.14844  -2079122.18144  24472983.2114   24472985.8114
 -14911405.37644 -11619261.82744  22549214.9274   22549216.1334
 96  3 25  3 30 30.0000000  0  7G 6G16G20G 5G24G23G17
 -19430714.18344 -15140803.27344  20698665.7984   20698664.8604
 -11899575.62344  -9272385.45944  21392980.4694   21392980.8494
  -7101340.93044  -5533510.32944  21135351.2054   21135351.8664
  10075972.69144   7851406.06044  22593824.0444   22593824.5974
  19789023.65444  15420018.83344  24203940.4114   24203939.0674
  -2774212.75844  -2161722.38144  24452812.4574   24452812.4164
 -14976098.54344 -11669672.05844  22536904.2034   22536905.5064
 96  3 25  3 31  0.0000000  0  7G 6G16G20G 5G24G23G17
 -19471163.97044 -15172322.57444  20690968.1294   20690967.6274
 -11852701.72144  -9235860.32944  21401900.3214   21401900.1884
  -7038323.92544  -5484406.17944  21147342.7334   21147343.3414
  10175522.21944   7928977.08844  22612766.4894   22612767.5024
  19866420.98744  15480328.44644  24218669.0364   24218671.4454
  -2880105.37344  -2244236.07844  24432660.6054   24432663.5924
 -15040578.22644 -11719915.93244  22524634.2564   22524635.2924
 96  3 25  3 31 30.0000000  0  7G 6G16G20G 5G24G23G17
 -19511375.61044 -15203656.30844  20683316.2784   20683315.6284
 -11805329.48544  -9198946.89044  21410914.7174   21410914.8674
  -6974801.45044  -5434908.16044  21159430.8594   21159431.3414
  10275297.91244   8006724.35944  22631753.8614   22631753.9004
  19943760.30744  15540592.85344  24233386.7414   24233384.5994
  -2985889.13644  -2326664.95244  24412530.6984   24412534.8844
 -15104855.55944 -11770002.13444  22512402.2984   22512403.2584
 96  3 25  3 32  0.0000000  0  7G 6G16G20G 5G24G23G17
 -19551345.52044 -15234801.68444  20675710.2084   20675709.1644
 -11757454.43444  -9161641.65944  21420024.7404   21420025.0734
  -6910780.11444  -5385021.41344  21171613.9054   21171614.6014
  10375289.03344   8084639.49444  22650781.4394   22650781.0534
  20021067.11544  15600831.96744  24248098.0784   24248097.5914
  -3091563.30844  -2409008.42944  24392422.8334   24392426.7084
 -15168929.66944 -11819929.98244  22500209.6414   22500210.0644
 96  3 25  3 32 30.0000000  0  7G 6G16G20G 5G24G23G17
 -19591062.47144 -15265749.94644  20668152.3964   20668151.6904
 -11709070.46544  -9123939.85644  21429232.0934   21429232.5144
  -6846273.31044  -5334756.38444  21183888.6004   21183889.2704
  10475503.87944   8162728.95144  22669851.8774   22669852.1874
  20098337.29144  15661042.51644  24262801.4204   24262800.8954
  -3197151.12044  -2491284.62744  24372328.2884   24372331.6374
 -15232804.05144 -11869702.20244  22488054.9384   22488055.5064
 96  3 25  3 33  0.0000000  0  7G 6G16G20G 5G24G23G17
 -19630512.72844 -15296490.39344  20660645.0924   20660644.4074
 -11660171.87644  -9085837.06044  21438537.2154   21438537.7504
  -6781287.24744  -5284117.90944  21196255.5034   21196255.8414
  10575958.87744   8241005.55944  22688967.6434   22688967.9824
  20175576.46444  15721228.88244  24277499.6484   24277498.7844
  -3302665.01844  -2573503.17844  24352251.0724   24352252.4234
 -15296467.61644 -11919310.14044  22475939.5164   22475940.1364
 96  3 25  3 33 30.0000000  0  7G 6G16G20G 5G24G23G17
 -19669711.87444 -15327035.17044  20653185.7974   20653185.2174
 -11610781.44344  -9047351.00544  21447936.2654   21447935.8914
  -6715851.23844  -5233128.81944  21208707.6594   21208707.6734
  10676631.93644   8319452.08244  22708125.3554   22708126.0084
  20252775.34244  15781383.86744  24292190.3704   24292189.7994
  -3408116.49844  -2655673.14044  24332184.4004   24332186.5634
 -15359936.31944 -11968766.23744  22463861.9744   22463862.5204
 96  3 25  3 34  0.0000000  0  7G 6G16G20G 5G24G23G17
 -19708625.08944 -15357357.14244  20645781.1324   20645779.9234
 -11560890.05644  -9008474.59244  21457430.2314   21457429.9664
  -6649960.22244  -5181785.18344  21221246.4374   21221246.5214
  10777523.39544   8398068.78344  22727324.6984   22727325.6184
  20329964.79244  15841531.49844  24306877.2994   24306879.6164
  -3513470.46744  -2737767.13644  24312136.1124   24312138.7574
 -15423179.84544 -12018046.87344  22451827.7324   22451828.6374
 96  3 25  3 34 30.0000000  0  7G 6G16G20G 5G24G23G17
 -19747223.57344 -15387433.87644  20638435.8754   20638434.5194
 -11510499.09744  -8969208.90244  21467019.7214   21467019.4934
  -6583607.77044  -5130081.98944  21233872.5914   21233872.8764
  10878643.23544   8476863.43944  22746567.3154   22746568.2714
  20407140.48644  15901668.35544  24321563.0614   24321566.7004
  -3618710.63644  -2819772.41144  24292109.5794   24292111.6194
 -15486185.52544 -12067142.16644  22439837.3114   22439838.2824
 96  3 25  3 35  0.0000000  0  7G 6G16G20G 5G24G23G17
 -19785512.79744 -15417269.63144  20631149.6164   20631149.0574
 -11459604.82744  -8929551.02344  21476704.1584   21476704.0264
  -6516795.13744  -5078020.20844  21246586.6734   21246587.1444
  10979977.43744   8555825.13444  22765850.2554   22765849.9494
  20484314.70744  15961804.07144  24336247.8254   24336249.5894
  -3723813.54844  -2901670.74444  24272109.1544   24272111.8684
 -15548939.26044 -12116041.14144  22427895.8594   22427896.4174
 96  3 25  3 35 30.0000000  0  7G 6G16G20G 5G24G23G17
 -19823503.29844 -15446872.60944  20623920.2744   20623919.7484
 -11408221.94744  -8889512.40644  21486481.8934   21486481.9134
  -6449548.78744  -5025620.46544  21259383.5794   21259383.5224
  11081482.20044   8634919.73344  22785166.0764   22785166.1754
  20561471.81844  16021926.46444  24350931.6414   24350931.5404
  -3828792.23744  -2983472.25644  24252131.6124   24252134.7074
 -15611458.10544 -12164757.09944  22415998.8144   22415999.4534
 96  3 25  3 36  0.0000000  0  7G 6G16G20G 5G24G23G17
 -19861201.07344 -15476247.48744  20616746.6324   20616746.0404
 -11356355.19944  -8849096.75844  21496351.5404   21496351.6884
  -6381879.37144  -4972891.05744  21272260.4694   21272260.5354
  11183142.74444   8714135.73244  22804511.4864   22804512.3234
  20638601.39444  16082027.43344  24365610.3414   24365612.1974
  -3933679.87844  -3065202.81544  24232172.2924   24232175.3884
 -15673747.65244 -12213294.37944  22404145.4354   22404145.4014
 96  3 25  3 36 30.0000000  0  7G 6G16G20G 5G24G23G17
 -19898624.61244 -15505408.67844  20609625.1564   20609624.1854
 -11303980.97644  -8808285.67344  21506318.7074   21506318.4034
  -6313778.22044  -4919825.23644  21285219.8564   21285219.9904
  11284970.51244   8793482.02944  22823888.8824   22823888.6154
  20715698.40444  16142103.02844  24380280.5584   24380280.7914
  -4038496.45544  -3146878.04144  24212225.5094   24212228.9424
 -15735811.45744 -12261655.75444  22392335.3354   22392336.2254
 96  3 25  3 37  0.0000000  0  7G 6G16G20G 5G24G23G17
 -19935812.81744 -15534386.49644  20602548.7484   20602547.6954
 -11251110.65244  -8767088.00344  21516379.6164   21516379.5324
  -6245244.10944  -4866422.04444  21298261.1844   21298261.7194
  11386953.44744   8872949.23144  22843295.4824   22843295.8824
  20792751.71944  16202144.55444  24394945.0164   24394942.8364
  -4143254.18744  -3228507.38444  24192290.8314   24192295.0334
 -15797664.66144 -12309853.03044  22380564.7454   22380565.4034
 96  3 25  3 37 30.0000000  0  7G 6G16G20G 5G24G23G17
 -19972770.97144 -15563185.04944  20595515.4564   20595514.8244
 -11197780.36844  -8725531.93544  21526527.6494   21526527.4264
  -6176281.54944  -4812684.99644  21311384.2054   21311384.7584
  11489097.36344   8952541.87344  22862732.6894   22862732.3914
  20869729.89844  16262127.56544  24409592.4594   24409591.3684
  -4247976.69144  -3310109.25144  24172362.8984   24172365.7764
 -15859328.88644 -12357903.05444  22368830.8504   22368831.7464
 96  3 25  3 38  0.0000000  0  7G 6G16G20G 5G24G23G17
 -20009484.40244 -15591792.91044  20588529.3794   20588528.1904
 -11143973.93944  -8683604.84444  21536766.4584   21536766.2764
  -6106853.11144  -4758584.92744  21324595.9174   21324596.5614
  11591445.34144   9032293.52644  22882208.6344   22882209.1044
  20946645.81344  16322062.08644  24424229.2864   24424224.3744
  -4352634.48244  -3391660.74144  24152448.3914   24152449.4884
 -15920788.13344 -12405793.34744  22357135.8594   22357136.3714
 96  3 25  3 38 30.0000000  0  7G 6G16G20G 5G24G23G17
 -20045947.98344 -15620206.08344  20581590.4164   20581589.6524
 -11089688.05544  -8641304.14844  21547096.8984   21547096.6594
  -6036948.36644  -4704113.70844  21337898.0814   21337898.8204
  11694002.74544   9112208.36344  22901724.1164   22901724.0484
  21023498.12744  16381947.07344  24438853.5214   24438853.4264
  -4457191.59444  -3473133.78844  24132551.8224   24132552.1244
 -15982041.60144 -12453523.29544  22345479.0564   22345480.3774
 96  3 25  3 39  0.0000000  0  7G 6G16G20G 5G24G23G17
 -20082130.56944 -15648400.29544  20574705.0344   20574703.9954
 -11034935.26044  -8598639.62844  21557515.9834   21557515.7904
  -5966569.81144  -4649273.29044  21351291.2984   21351291.7674
  11796776.24644   9192291.58844  22921281.6634   22921282.2644
  21100300.34944  16441792.99044  24453467.7064   24453470.8924
  -4561620.19044  -3554506.66444  24112679.8394   24112682.0084
 -16043072.71344 -12501079.97944  22333865.0894   22333866.2164
 96  3 25  3 39 30.0000000  0  7G 6G16G20G 5G24G23G17
 -20117989.54944 -15676342.34844  20567881.5464   20567880.5074
 -10979687.50744  -8555589.42444  21568029.1264   21568029.5114
  -5895729.13044  -4594072.77244  21364771.8314   21364772.3164
  11899764.68144   9272542.30244  22940879.7854   22940879.6024
  21177065.41144  16501609.81944  24468074.2454   24468077.6764
  -4665907.55744  -3635769.47644  24092833.9554   24092836.1214
 -16103870.92744 -12548455.18444  22322295.5894   22322296.3304
 96  3 25  3 40  0.0000000  0  7G 6G16G20G 5G24G23G17
 -20153537.65544 -15704042.16744  20561116.7384   20561115.7324
 -10923931.81744  -8512143.42644  21578639.4454   21578639.2814
  -5824438.15444  -4538521.37044  21378337.9984   21378338.2634
  12002940.97144   9352939.40144  22960513.6184   22960513.7854
  21253805.73044  16561407.43644  24482677.3124   24482679.6954
  -4770049.17544  -3716918.76044  24073016.0484   24073017.3294
 -16164448.27744 -12595658.28444  22310768.4914   22310768.9014
 96  3 25  3 40 30.0000000  0  7G 6G16G20G 5G24G23G17
 -20188756.62744 -15731485.51344  20554414.8224   20554414.0254
 -10867659.73044  -8468295.04144  21589347.1184   21589346.9844
  -5752702.72844  -4482623.64244  21391988.5694   21391988.7544
  12106299.26644   9433478.30944  22980182.4334   22980182.7984
  21330540.84544  16621201.00444  24497282.0454   24497283.5154
  -4874030.22044  -3797942.90044  24053228.3654   24053228.8374
 -16224792.49644 -12642679.72844  22299284.9814   22299285.3474
 96  3 25  3 41  0.0000000  0  7G 6G16G20G 5G24G23G17
 -20223658.39244 -15758681.68344  20547773.2374   20547772.5454
 -10810896.65044  -8424064.06744  21600149.1194   21600148.8984
  -5680556.00544  -4426405.42744  21405717.3774   21405717.5394
  12209815.97944   9514140.66444  22999880.3984   22999880.3054
  21407259.55844  16680981.79544  24511880.9324   24511881.5904
  -4977884.07344  -3878867.92044  24033467.1624   24033468.8494
 -16284927.15244 -12689537.87044  22287841.8724   22287841.7014
 96  3 25  3 41 30.0000000  0  7G 6G16G20G 5G24G23G17
 -20258244.73544 -15785632.07244  20541191.7874   20541190.8604
 -10753633.16144  -8379443.16944  21611046.1474   21611045.8184
  -5607974.20844  -4369848.19444  21419529.6284   21419530.0684
  12313498.86144   9594932.51444  23019611.1844   23019611.7224
  21483975.91844  16740760.71544  24526481.1824   24526480.6694
  -5081586.34144  -3959674.82444  24013732.8224   24013733.4094
 -16344848.00844 -12736229.41144  22276439.2594   22276439.5294
 96  3 25  3 42  0.0000000  0  7G 6G16G20G 5G24G23G17
 -20292538.34944 -15812354.36144  20534665.9104   20534664.8244
 -10695896.77144  -8334453.77344  21622033.0524   21622032.9914
  -5534956.06244  -4312950.95244  21433424.6394   21433425.0164
  12417346.69344   9675852.89944  23039372.6204   23039373.2694
  21560691.28444  16800538.89844  24541078.9004   24541079.0324
  -5185127.73044  -4040356.39144  23994030.0274   23994031.9714
 -16404557.41544 -12782756.19044  22265077.3404   22265077.6484
 96  3 25  3 42 30.0000000  0  7G 6G16G20G 5G24G23G17
 -20326524.77644 -15838837.28144  20528198.3084   20528197.3884
 -10637698.81644  -8289104.70744  21633107.6744   21633107.4094
  -5461509.62444  -4255719.97644  21447400.6994   21447401.2654
  12521360.37944   9756902.51944  23059165.2744   23059165.9124
  21637402.73844  16860314.09544  24555676.4644   24555675.9284
  -5288504.78444  -4120909.90444  23974356.8044   23974356.1194
 -16464035.05944 -12829102.37444  22253758.5354   22253759.0234
 96  3 25  3 43  0.0000000  0  8G 6G16G20G 5G24G23G26G17
 -20360217.93444 -15865091.68144  20521786.6864   20521785.9154
 -10579042.85344  -8243398.76944  21644269.4324   21644269.3554
  -5387640.13344  -4198159.35644  21461457.7434   21461458.1284
  12625529.36544   9838073.12744  23078988.3504   23078988.6654
  21714090.49844  16920070.83544  24570268.8254   24570264.7834
  -5391723.50244  -4201340.01344  23954714.3284   23954717.1784
         0.25354                  24010238.1224
 -16523290.43744 -12875275.36344  22242482.8104   22242483.3974
 96  3 25  3 43 30.0000000  0  7G 6G16G20G 5G23G26G17
 -20393640.61644 -15891135.31844  20515426.5204   20515425.7814
 -10519934.07444  -8197339.98244  21655517.5674   21655517.2364
  -5313364.55944  -4140282.30144  21475592.3704   21475592.9934
  12729839.27744   9919353.56444  23098837.9014   23098838.7154
  -5494796.21544  -4281656.33044  23935100.5424   23935103.6614
    -78337.62244                  23995330.8374
 -16582331.49344 -12921281.34144  22231248.1304   22231248.1114
 96  3 25  3 44  0.0000000  0  7G 6G16G20G 5G23G26G17
 -20426761.18244 -15916943.54144  20509124.0264   20509123.2314
 -10460337.82544  -8150901.33944  21666858.0564   21666858.1364
  -5238690.31244  -4082094.59044  21489802.2784   21489802.8174
  12834300.35244  10000751.79444  23118716.6374   23118716.7964
  -5597736.18844  -4361869.24444  23915512.8584   23915514.3254
   -156583.56244                  23980441.0634
 -16641137.68944 -12967104.32544  22220057.0484   22220057.9214
 96  3 25  3 44 30.0000000  0  7G 6G16G20G 5G23G26G17
 -20459476.50144 -15942435.99044  20502898.5134   20502897.3574
 -10400151.42044  -8104002.83844  21678311.1214   21678311.4334
  -5163518.94844  -4023519.51344  21504106.7434   21504107.3314
  12939005.79244  10082340.42944  23138640.5664   23138640.3834
  -5700467.29944  -4441919.39144  23895963.0164   23895963.2914
   -234646.09044                  23965585.7294
 -16699608.58344 -13012666.02644  22208930.9214   22208931.1024
 96  3 25  3 45  0.0000000  0  7G 6G16G20G 5G23G26G17
 -20491907.22244 -15967706.67244  20496727.3004   20496726.3804
 -10339490.41744  -8056734.52244  21689854.9574   21689855.1194
  -5087974.29144  -3964653.55744  21518482.4774   21518482.8494
  13043834.83544  10164025.38844  23158589.7614   23158590.0154
  -5803108.73444  -4521899.66044  23876431.1324   23876432.6154
   -312646.01244                  23950744.8564
 -16757876.77044 -13058069.76344  22197842.5344   22197842.5634
 96  3 25  3 45 30.0000000  0  7G 6G16G20G 5G23G26G17
 -20524079.82544 -15992776.22144  20490604.9964   20490604.1004
 -10278405.11344  -8009135.58244  21701478.9514   21701478.6724
  -5012097.05544  -3905528.45444  21532921.0534   21532921.4684
  13148753.20244  10245779.95644  23178554.8044   23178554.9384
  -5905702.14444  -4601842.49844  23856908.4724   23856909.3414
   -390612.62644                  23935907.2464
 -16815969.14844 -13103336.51344  22186787.7274   22186788.3104
 96  3 25  3 46  0.0000000  0  7G 6G16G20G 5G23G26G17
 -20555969.86144 -16017625.59444  20484536.3784   20484535.5724
 -10216907.90144  -7961215.67244  21713181.4194   21713181.8574
  -4935866.71044  -3846128.19544  21547427.3804   21547427.7994
  13253765.78844  10327607.93844  23198538.7864   23198539.7554
  -6008223.98944  -4681729.58244  23837398.7234   23837401.2974
   -468525.89544                  23921080.7394
 -16873866.23744 -13148451.08644  22175770.6734   22175771.0794
 96  3 25  3 46 30.0000000  0  7G 6G16G20G 5G23G26G17
 -20587582.50344 -16042258.81444  20478520.7304   20478519.7654
 -10155025.51344  -7912995.62344  21724957.6204   21724957.9454
  -4859267.67144  -3786440.65144  21562004.0954   21562004.5884
  13358883.18144  10409517.58044  23218540.5294   23218541.2124
  -6110642.87644  -4761536.46644  23817909.1994   23817910.2744
   -546364.02244                  23906268.0494
 -16931569.19044 -13193414.38644  22164789.7414   22164789.9274
 96  3 25  3 47  0.0000000  0  7G 6G16G20G 5G23G26G17
 -20618895.65444 -16066658.66344  20472561.8864   20472560.7604
 -10092741.37444  -7864462.53344  21736809.7134   21736809.4084
  -4782284.77944  -3726453.99644  21576653.4574   21576653.6104
  13464119.25444  10491519.69044  23238566.6904   23238569.0214
  -6212918.33944  -4841231.54444  23798446.9914   23798448.2084
   -624098.04644                  23891476.2664
 -16989069.07844 -13238219.45544  22153847.9894   22153848.4114
 96  3 25  3 47 30.0000000  0  7G 6G16G20G 5G23G26G17
 -20649902.47744 -16090819.81744  20466661.7234   20466660.6764
 -10030059.01444  -7815619.13344  21748737.5714   21748737.0664
  -4704906.80544  -3666159.48444  21591377.5674   21591378.2754
  13569478.16944  10573617.52744  23258616.4354   23258616.4724
  -6315041.88044  -4920808.26244  23779012.7454   23779013.3074
   -701721.66244                  23876704.9144
 -17046357.07344 -13282859.41644  22142946.1264   22142946.9164
 96  3 25  3 48  0.0000000  0  7G 6G16G20G 5G23G26G17
 -20680583.16344 -16114726.83844  20460823.5204   20460822.4954
  -9966954.57944  -7766446.84444  21760745.6124   21760745.0894
  -4627125.53544  -3605550.71544  21606178.9074   21606179.3684
  13674971.31144  10655819.96744  23278690.4464   23278691.8404
  -6416986.60944  -5000245.66944  23759614.3524   23759614.0274
   -779224.00844                  23861958.4744
 -17103436.38444 -13327336.75444  22132084.2544   22132084.9344
 96  3 25  3 48 30.0000000  0  7G 6G16G20G 5G23G26G17
 -20710936.81444 -16138379.03044  20455047.0984   20455046.1954
  -9903404.36544  -7716927.18744  21772839.1724   21772839.3704
  -4548943.87544  -3544629.95744  21621056.5974   21621057.1224
  13780601.14044  10738128.94144  23298791.2964   23298791.5034
  -6518743.29744  -5079536.52444  23740249.3224   23740252.1204
   -856613.45744                  23847228.8564
 -17160327.10344 -13371667.14844  22121258.1254   22121258.8444
 96  3 25  3 49  0.0000000  0  7G 6G16G20G 5G23G26G17
 -20740945.06044 -16161762.07244  20449336.7634   20449335.7894
  -9839375.34844  -7667034.43944  21785023.7744   21785023.6734
  -4470355.17844  -3483392.02344  21636011.5714   21636012.1364
  13886365.14444  10820542.44844  23318917.6974   23318918.3474
  -6620299.22044  -5158670.95344  23720923.7564   23720925.6314
   -933878.87744                  23832525.8814
 -17217016.08144 -13415840.33844  22110471.6284   22110471.6394
 96  3 25  3 49 30.0000000  0  7G 6G16G20G 5G23G26G17
 -20770616.05944 -16184882.32644  20443690.7614   20443689.4534
  -9774873.52544  -7616773.27944  21797297.8464   21797297.4964
  -4391371.40044  -3421846.23644  21651041.5864   21651041.8324
  13992272.38944  10903067.55844  23339071.5934   23339072.6654
  -6721660.94844  -5237654.04644  23701635.1144   23701634.7744
  -1011021.34944                  23817846.7884
 -17273501.13044 -13459854.62444  22099722.2894   22099722.6444
 96  3 25  3 50  0.0000000  0  7G 6G16G20G 5G23G26G17
 -20799966.31944 -16207752.65444  20438105.2884   20438104.6634
  -9709901.77744  -7566145.94244  21809661.5774   21809661.2424
  -4311996.90644  -3359995.99644  21666146.3564   21666146.6794
  14098312.14444  10985695.92144  23359249.9394   23359250.2514
  -6822843.72944  -5316497.69844  23682381.4534   23682383.3224
  -1088047.78344                  23803189.5584
 -17329797.09244 -13503721.57044  22089009.1824   22089009.4444
 96  3 25  3 50 30.0000000  0  7G 6G16G20G 5G23G26G17
 -20829005.44044 -16230380.53144  20432579.3514   20432578.4194
  -9644472.54144  -7515162.11744  21822112.5374   21822112.2104
  -4232224.76344  -3297835.88944  21681326.2814   21681326.2564
  14204476.05144  11068420.99844  23379452.0264   23379453.5364
  -6923851.34744  -5395204.86444  23663159.9454   23663162.6974
  -1164932.78144                  23788556.5794
 -17385889.16244 -13547429.63844  22078335.6624   22078335.9434
 96  3 25  3 51  0.0000000  0  7G 6G16G20G 5G23G26G17
 -20857735.51144 -16252767.59744  20427112.4334   20427111.4444
  -9578595.59644  -7463829.42444  21834647.7044   21834648.1114
  -4152059.70744  -3235369.62344  21696581.0884   21696581.6024
  14310769.66644  11151247.18844  23399679.4194   23399679.1944
  -7024695.93744  -5473784.97144  23643969.8944   23643970.6994
  -1241645.99844                  23773961.3464
 -17441748.23244 -13590956.14544  22067705.4694   22067706.0174
 96  3 25  3 51 30.0000000  0  7G 6G16G20G 5G23G26G17
 -20886159.56644 -16274916.20744  20421703.3224   20421702.6284
  -9512294.37044  -7412166.13144  21847264.3244   21847264.7534
  -4071514.13544  -3172606.85444  21711908.2784   21711908.7304
  14417187.45444  11234170.12344  23419929.6294   23419930.1104
  -7125404.40844  -5552259.07344  23624805.7224   23624805.5314
  -1318197.34744                  23759391.6794
 -17497378.30844 -13634304.21244  22057119.1434   22057119.6744
 96  3 25  3 52  0.0000000  0  8G 6G16G20G 5G22G23G26G17
 -20914274.73044 -16296824.12144  20416353.1134   20416352.2824
  -9445579.41744  -7360180.45044  21859960.3594   21859960.0354
  -3990595.70044  -3109553.54444  21727306.6474   21727307.1514
  14523703.32944  11317169.51344  23440198.7464   23440200.1214
         0.22054                  24970074.9494
  -7225979.30944  -5630629.05444  23605667.2914   23605668.7794
  -1394580.98544                  23744856.3514
 -17552775.50544 -13677470.83044  22046577.7284   22046578.2714
 96  3 25  3 52 30.0000000  0  7G 6G16G20G 5G23G26G17
 -20942100.83044 -16318506.79544  20411058.1454   20411057.0934
  -9378483.33644  -7307897.79144  21872728.0784   21872727.8104
  -3909348.34344  -3046243.93244  21742767.5264   21742768.2434
  14630289.05944  11400223.33044  23460481.7744   23460480.7194
  -7326431.67444  -5708903.54944  23586549.9134   23586551.9844
  -1470804.36344                  23730352.7044
 -17607955.32244 -13720468.05244  22036077.5684   22036078.0964
 96  3 25  3 53  0.0000000  0  7G 6G16G20G 5G23G26G17
 -20969599.86544 -16339934.60944  20405825.2464   20405824.4974
  -9310987.87344  -7255303.92344  21885572.1754   21885571.7614
  -3827764.39644  -2982672.04044  21758292.8054   21758293.4074
  14736972.71544  11483353.44744  23480783.1884   23480783.5504
  -7426732.15444  -5787059.69644  23567464.3844   23567464.8284
  -1546866.36644                  23715877.6084
 -17662904.25944 -13763285.36444  22025620.7894   22025621.1574
 96  3 25  3 53 30.0000000  0  7G 6G16G20G 5G23G26G17
 -20996757.30544 -16361096.24744  20400657.4254   20400656.3264
  -9243114.21444  -7202415.35044  21898488.6084   21898488.4704
  -3745853.38544  -2918845.29144  21773879.9634   21773880.4224
  14843737.39144  11566546.68944  23501100.7394   23501101.3854
  -7526870.48344  -5865089.50844  23548409.0674   23548408.9054
  -1622790.53544                  23701430.1604
 -17717642.46644 -13805938.47144  22015204.7954   22015205.0394
 96  3 25  3 54  0.0000000  0  7G 6G16G20G 5G23G26G17
 -21023550.97044 -16381974.42444  20395558.5814   20395557.8144
  -9174840.84544  -7149215.31844  21911480.5544   21911480.7584
  -3663582.73844  -2854738.30744  21789535.5634   21789535.8424
  14950600.58244  11649816.68044  23521435.1354   23521435.8354
  -7626797.27844  -5942954.48944  23529394.2384   23529394.3184
  -1698549.84244                  23687013.0904
 -17772158.23844 -13848418.26044  22004830.5954   22004830.8054
 96  3 25  3 54 30.0000000  0  8G 6G16G20G 5G22G23G26G17
 -21049970.90244 -16402561.38044  20390530.9684   20390529.9854
  -9106163.90144  -7095700.82344  21924548.7424   21924548.5894
  -3580941.05444  -2790342.19944  21805261.9214   21805262.3484
  15057571.32844  11733170.49444  23541791.2444   23541791.9164
        -0.44454         0.14454  24890843.6594
  -7726506.02644  -6020649.55644  23510419.9194   23510419.6894
  -1774157.93444                  23672627.3324
 -17826465.94944 -13890735.92244  21994496.1634   21994496.0124
 96  3 25  3 55  0.0000000  0  8G 6G16G20G 5G22G23G26G17
 -21076009.32244 -16422851.05544  20385576.2254   20385575.2024
  -9037086.78244  -7041874.49544  21937694.2234   21937693.8954
  -3497924.30944  -2725653.83844  21821059.1864   21821059.4194
  15164642.50944  11816602.55344  23562165.5624   23562166.6154
    -82406.82944    -64212.53844  24875166.6944   24875172.7194
  -7826005.27044  -6098181.39644  23491486.2824   23491486.4584
  -1849630.61844                  23658264.6604
 -17880572.36844 -13932896.73744  21984200.1514   21984200.2374
 96  3 25  3 55 30.0000000  0  7G 6G16G20G 5G23G26G17
 -21101672.45844 -16442848.29444  20380692.6564   20380691.9354
  -8967579.61744  -6987713.06144  21950920.6034   21950920.3534
  -3414509.63244  -2660655.39744  21836932.2764   21836933.1054
  15271811.05444  11900110.49144  23582559.2614   23582560.3674
  -7925290.79544  -6175546.69044  23472592.4394   23472593.4234
  -1924946.90144                  23643931.2654
 -17934456.76144 -13974884.54244  21973946.0784   21973946.6004
 96  3 25  3 56  0.0000000  0  7G 6G16G20G 5G23G26G17
 -21126957.72944 -16462551.09644  20375881.1034   20375880.1984
  -8897596.49444  -6933180.75044  21964237.9694   21964238.0434
  -3330677.12844  -2595331.38044  21852885.2044   21852885.7644
  15379098.79744  11983711.32044  23602974.9154   23602975.2094
  -8024343.64044  -6252730.66844  23453743.1854   23453744.3944
  -2000066.14544                  23629636.5534
 -17988092.20544 -14016678.35844  21963739.7874   21963739.5614
 96  3 25  3 56 30.0000000  0  7G 6G16G20G 5G23G26G17
 -21151912.38244 -16481996.27944  20371132.2484   20371131.5094
  -8827180.70544  -6878311.30544  21977638.3604   21977638.4764
  -3246500.53344  -2529739.24544  21868903.7914   21868904.6644
  15486465.97744  12067374.06544  23623406.8494   23623406.9314
  -8123221.75244  -6329778.50344  23434927.0064   23434927.8184
  -2075016.23744  -1616894.70144  23615375.1134
 -18041514.83344 -14058306.34744  21953574.0764   21953574.1264
 96  3 25  3 57  0.0000000  0  8G 6G16G20G 5G22G23G26G17
 -21176521.17144 -16501171.95244  20366449.4064   20366448.5764
  -8756320.40544  -6823095.47644  21991122.3654   21991122.6624
  -3161978.11744  -2463877.64044  21884987.4414   21884988.0584
  15593925.56044  12151108.79644  23643855.5834   23643858.1234
        -0.42054                  24813046.8554
  -8221906.17344  -6406675.39644  23416146.7914   23416148.7604
  -2149753.74144  -1675131.68044  23601152.1074
 -18094692.47744 -14099743.44144  21943454.7174   21943454.7654
 96  3 25  3 57 30.0000000  0  8G 6G16G20G 5G22G23G26G17
 -21200806.10444 -16520095.26644  20361828.0014   20361827.3564
  -8685044.19044  -6767555.56544  22004685.1524   22004685.4494
  -3077141.60644  -2397771.28444  21901131.3604   21901131.9344
  15701460.73844  12234902.42044  23664318.4804   23664318.9714
    -80780.00444    -62945.10144  24797676.9174
  -8320408.09044  -6483430.08944  23397402.8024   23397404.5384
  -2224281.80244  -1733205.47544  23586968.9904
 -18147657.11844 -14141014.55844  21933375.1534   21933375.1684
 96  3 25  3 58  0.0000000  0  8G 6G16G20G 5G22G23G26G17
 -21224758.19544 -16538759.22944  20357270.1704   20357269.2514
  -8613384.45644  -6711716.80744  22018321.6844   22018321.4754
  -2992008.24644  -2331433.61544  21917331.9584   21917331.9584
  15809074.36644  12318757.21044  23684796.8504   23684797.1174
   -161239.52644                  24782363.7354
  -8418726.23144  -6560041.59144  23378694.1524   23378694.4954
  -2298595.97744  -1791112.56844  23572828.0304
 -18200420.18244 -14182128.60044  21923334.7414   21923334.7534
 96  3 25  3 58 30.0000000  0  8G 6G16G20G 5G22G23G26G17
 -21248357.15344 -16557148.02344  20352779.4074   20352778.7414
  -8541360.48244  -6655594.22944  22032027.6394   22032027.9774
  -2906570.31944  -2264858.62544  21933590.5324   21933590.8844
  15916771.25144  12402676.85944  23705291.1044   23705292.5644
   -241385.62944                  24767112.2994
  -8516851.44144  -6636502.75244  23360021.7214   23360021.1864
  -2372706.62844  -1848861.07744  23558726.2994   23558724.0394
 -18252982.19444 -14223085.98144  21913332.6184   21913332.7774
 96  3 25  3 59  0.0000000  0  8G 6G16G20G 5G22G23G26G17
 -21271613.44044 -16575269.79744  20348353.6734   20348352.9964
  -8468986.73044  -6599199.09744  22045799.7384   22045799.7434
  -2820820.61444  -2198040.68344  21949907.6414   21949907.6054
  16024524.89344  12486640.72144  23725796.0594   23725797.6094
   -321233.21644                  24751917.1324
  -8614783.01644  -6712813.04644  23341385.2684   23341385.7904
  -2446648.99744  -1906478.46144  23544655.0164
 -18305355.20344 -14263896.08044  21903366.3584   21903366.8334
 96  3 25  3 59 30.0000000  0  8G 6G16G20G 5G22G23G26G17
 -21294524.92144 -16593122.89344  20343993.9404   20343993.0704
  -8396253.58744  -6542523.91344  22059640.4644   22059640.6574
  -2734740.77344  -2130965.49244  21966288.4824   21966288.5294
  16132336.68844  12570649.90444  23746311.3414   23746310.3044
   -400775.22744                  24736779.9484
  -8712516.92044  -6788969.27544  23322786.3134   23322788.3114
  -2520426.39944  -1963967.30944  23530614.2154   23530616.4224
 -18357533.19844 -14304554.22944  21893437.2924   21893437.7204
 96  3 25  4  0  0.0000000  0  8G 6G16G20G 5G22G23G26G17
 -21317070.89444 -16610691.18044  20339703.5124   20339702.5624
  -8323130.29344  -6485544.71544  22073554.9824   22073554.7614
  -2648302.56444  -2063611.05344  21982737.0064   21982736.9244
  16240218.96044  12654714.01744  23766840.8524   23766841.6634
   -479979.16344   -374009.24444  24721707.4834
  -8810035.43344  -6864957.69244  23304229.7464   23304230.9654
  -2594025.25144  -2021317.02944  23516609.4104   23516609.9824
 -18409463.65944 -14345019.49144  21883555.5044   21883555.1644
 96  3 25  4  0 30.0000000  0  8G 6G16G20G 5G22G23G26G17
 -21339255.19744 -16627977.64544  20335482.2714   20335481.1894
  -8249618.79444  -6428263.03244  22087543.9514   22087544.1654
  -2561527.64844  -1995994.24744  21999249.8414   21999250.0884
  16348153.12344  12738818.56044  23787380.1084   23787380.9274
   -558847.94644   -435465.34244  24706697.3374
  -8907344.10144  -6940782.57344  23285711.7994   23285713.8444
  -2667458.40144  -2078537.62544  23502635.1664   23502638.6024
 -18461159.67944 -14385302.06344  21873717.5724   21873717.7284
 96  3 25  4  1  0.0000000  0  8G 6G16G20G 5G22G23G26G17
 -21361098.51744 -16644998.40944  20331325.4454   20331324.4564
  -8175730.23144  -6370687.53744  22101604.2354   22101604.1574
  -2474448.10144  -1928140.07044  22015820.1264   22015820.8554
  16456111.43244  12822941.91744  23807924.3884   23807926.2454
   -637397.05444                  24691747.5094
  -9004475.99344  -7016469.71744  23267229.1064   23267231.1604
  -2740718.48444  -2135623.39044  23488696.1294   23488695.5464
 -18512640.20944 -14425416.72644  21863921.2254   21863921.6014
 96  3 25  4  1 30.0000000  0  8G 6G16G20G 5G22G23G26G17
 -21382595.45144 -16661749.26444  20327234.6914   20327233.7744
  -8101476.91844  -6312827.81244  22115734.5924   22115734.4024
  -2387089.59644  -1860068.51744  22032443.7744   22032444.6534
  16564095.61344  12907085.42444  23828472.7914   23828473.5794
   -715633.57844                  24676861.9294
  -9101444.11344  -7092029.22944  23248777.1634   23248778.4954
  -2813796.15444  -2192566.96844  23474789.3104   23474788.9154
 -18563918.23444 -14465373.59544  21854163.1384   21854163.5594
 96  3 25  4  2  0.0000000  0  8G 6G16G20G 5G22G23G26G17
 -21403723.07644 -16678212.34844  20323214.3414   20323213.2114
  -8026854.27544  -6254680.29044  22129934.7384   22129934.5694
  -2299448.93744  -1791777.11144  22049121.2114   22049122.6564
  16672126.13244  12991265.03644  23849030.5764   23849032.3834
   -793551.69144                  24662033.1004
  -9198224.52144  -7167442.48944  23230359.5774   23230359.9664
  -2886678.82844  -2249358.62944  23460919.8674   23460919.8814
 -18614991.36544 -14505170.80944  21844444.4424   21844444.6454
 96  3 25  4  2 30.0000000  0  8G 6G16G20G 5G22G23G26G17
 -21424476.46944 -16694383.81844  20319264.9604   20319264.1864
  -7951857.11544  -6196240.93644  22144206.5904   22144206.2524
  -2211509.17644  -1723252.64544  22065855.9954   22065857.0464
  16780212.88044  13075488.48144  23869598.8354   23869598.5064
   -871151.80044                  24647267.8574
  -9294810.92644  -7242704.58444  23211980.6724   23211981.2154
  -2959352.63144  -2305987.52544  23447090.1824   23447089.6174
 -18665885.00744 -14544828.16544  21834759.9964   21834759.9894
 96  3 25  4  3  0.0000000  0  8G 6G16G20G 5G22G23G26G17
 -21444851.70344 -16710260.62244  20315387.7444   20315386.4954
  -7876477.42944  -6137503.52044  22158550.6654   22158550.2714
  -2123246.09844  -1654476.23144  22082652.0464   22082652.2744
  16888383.70144  13159777.41444  23890182.3314   23890184.2874
   -948416.41344                  24632567.5054
  -9391184.58344  -7317800.90344  23193641.3434   23193642.2254
  -3031804.80044  -2362443.71744  23433303.5134   23433303.5334
 -18716581.53544 -14584331.92444  21825112.5084   21825111.9574
 96  3 25  4  3 30.0000000  0  8G 6G16G20G 5G22G23G26G17
 -21464864.55044 -16725855.05044  20311579.5194   20311578.4314
  -7800726.00844  -6078476.44444  22172965.3394   22172965.5724
  -2034655.65944  -1585444.73244  22099510.1384   22099510.7104
  16996631.93544  13244126.67644  23910782.5614   23910782.0884
  -1025345.94944                  24617925.3814
  -9487327.06544  -7392717.06244  23175345.4184   23175345.8714
  -3104065.95144  -2418751.05844  23419552.0184   23419550.9494
 -18767083.10344 -14623683.76244  21815502.3204   21815502.4324
 96  3 25  4  4  0.0000000  0  8G 6G16G20G 5G22G23G26G17
 -21484506.89544 -16741160.77144  20307841.4914   20307840.8314
  -7724582.28144  -6019143.67144  22187455.2244   22187455.1284
  -1945715.97044  -1516141.08344  22116434.3174   22116434.7404
  17104958.02044  13328536.63144  23931395.3634   23931396.3154
  -1101917.78444                  24603354.1774
  -9583220.98644  -7467439.56544  23157098.0364   23157098.8064
  -3176107.44244  -2474887.23644  23405842.5274   23405842.3334
 -18817366.98344 -14662865.97644  21805933.6064   21805933.9034
 96  3 25  4  4 30.0000000  0  8G 6G16G20G 5G22G23G26G17
 -21503783.74844 -16756181.69244  20304173.2464   20304172.2384
  -7648059.28644  -5959515.36444  22202017.0294   22202017.0914
  -1856457.17344  -1446588.78744  22133420.2334   22133420.8304
  17213334.32944  13412985.67844  23952019.0664   23952022.0934
  -1178136.80044   -918027.75644  24588850.5554
  -9678882.27344  -7541980.75944  23138894.3854   23138896.3094
  -3247917.60844  -2530843.19244  23392178.2854   23392178.2784
 -18867440.31244 -14701884.12144  21796405.0224   21796405.8454
 96  3 25  4  5  0.0000000  0  8G 6G16G20G 5G22G23G26G17
 -21522682.02244 -16770907.62144  20300577.1214   20300576.1774
  -7571163.74244  -5899596.75744  22216649.9944   22216650.0014
  -1766899.26044  -1376803.41344  22150462.3544   22150463.2674
  17321753.78444  13497468.36244  23972650.6234   23972651.7984
  -1253978.98244                  24574418.5284
  -9774290.55944  -7616324.81944  23120738.5864   23120739.2264
  -3319482.94444  -2586608.36144  23378559.6364   23378560.7164
 -18917280.51044 -14740720.61144  21786920.2294   21786920.8214
 96  3 25  4  5 30.0000000  0  8G 6G16G20G 5G22G23G26G17
 -21541211.05244 -16785345.82044  20297051.0054   20297050.2304
  -7493906.02944  -5839395.93144  22231351.4974   22231350.9844
  -1677058.85144  -1306797.91244  22167558.0334   22167559.1404
  17430169.91544  13581948.44944  23993281.5174   23993282.7404
  -1329456.74144                  24560056.5664
  -9869460.15944  -7690482.90744  23102627.9404   23102629.0654
  -3390801.95744  -2642181.60544  23364987.9434   23364986.8484
 -18966900.53544 -14779385.53344  21777477.8844   21777478.1964
 96  3 25  4  6  0.0000000  0  7G 6G16G20G 5G23G26G17
 -21559368.72744 -16799494.65744  20293596.0344   20293594.9774
  -7416315.94944  -5778936.12844  22246116.5574   22246116.1294
  -1586961.76644  -1236592.40744  22184703.0824   22184704.1954
  17538564.56644  13666411.89244  24013908.7414   24013908.2294
  -9964415.83844  -7764474.29444  23084558.1884   23084559.7304
  -3461869.32044  -2697558.71944  23351463.7464   23351462.7794
 -19016320.11844 -14817894.27244  21768073.9284   21768074.3534
 96  3 25  4  6 30.0000000  0  8G 6G16G20G 5G22G23G26G17
 -21577157.25744 -16813355.84844  20290210.6974   20290209.7304
  -7338411.93044  -5718231.69644  22260940.9104   22260940.6044
  -1496614.67344  -1166192.08844  22201895.9964   22201896.6714
  17646946.55244  13750865.34444  24034532.9604   24034531.0154
        -0.50254                  24531535.1654
 -10059140.63544  -7838285.77344  23066532.6834   23066534.0434
  -3532692.86244  -2752745.85544  23337987.4804   23337987.2924
 -19065545.86544 -14856251.97144  21758706.6914   21758707.0764
 96  3 25  4  7  0.0000000  0  8G 6G16G20G 5G22G23G26G17
 -21594536.41944 -16826898.04744  20286903.7914   20286902.6954
  -7260146.80644  -5657245.87944  22275834.1374   22275834.2374
  -1405949.17444  -1095543.65744  22219149.3044   22219149.7834
  17755362.20444  13835345.07244  24055162.6374
    -74367.68944    -57947.93244  24517383.8624
 -10153584.86644  -7911878.63644  23048560.6434   23048561.6204
  -3603248.64744  -2807724.34444  23324560.1524   23324561.3104
 -19114525.32344 -14894417.76144  21749386.3934   21749386.4314
 96  3 25  4  7 30.0000000  0  8G 6G16G20G 5G22G23G26G17
 -21611526.90544 -16840137.38744  20283670.4434   20283669.4644
  -7181557.24344  -5596007.25144  22290789.5334   22290789.8424
  -1314997.64244  -1024672.34444  22236456.6844   22236457.2574
  17863782.69044                  24075794.9634
   -148374.64344                  24503301.2804
 -10247784.28244  -7985280.71644  23030635.3064   23030635.9524
  -3673566.48444  -2862517.42344  23311179.9994   23311179.0744
 -19163292.44544 -14932418.08444  21740106.2864   21740106.1214
 96  3 25  4  8  0.0000000  0  8G 6G16G20G 5G22G23G26G17
 -21628105.46744 -16853055.74444  20280515.5894   20280514.7814
  -7102631.34644  -5534506.55344  22305808.5484   22305808.2564
  -1223749.93244   -953570.24444  22253820.3574   22253821.3134
  17972251.98944                  24096436.4384
   -222001.72244   -172987.27744  24489287.2904
 -10341719.64644  -8058477.06344  23012760.2104   23012759.8954
  -3743619.24644  -2917103.94144  23297848.9824   23297846.7474
 -19211823.55044 -14970234.50244  21730870.8914   21730870.8234
 96  3 25  4  8 30.0000000  0  8G 6G16G20G 5G22G23G26G17
 -21644294.33444 -16865670.44244  20277435.0434   20277434.1224
  -7023360.66644  -5472737.18244  22320893.4434   22320893.2104
  -1132219.46244   -882247.80844  22271238.2144   22271239.1894
  18080761.00744                  24117083.8794
   -295261.01744   -230072.46744  24475348.4254
 -10435405.46744  -8131478.96644  22994932.2664   22994932.0964
  -3813414.80044  -2971490.06644  23284567.4614   23284568.1754
 -19260130.83944 -15007876.51644  21721678.1564   21721678.5994
 96  3 25  4  9  0.0000000  0  8G 6G16G20G 5G22G23G26G17
 -21660093.86844 -16877981.76344  20274428.3474   20274427.2504
  -6943752.91544  -5410705.15244  22336041.5104   22336041.9794
  -1040406.79944   -810705.49144  22288709.4604   22288709.6884
  18189294.29544                  24137738.9934
   -368168.20144                  24461473.8204
 -10528865.97344  -8204305.30244  22977147.8624   22977148.0204
  -3882958.44844  -3025679.88344  23271333.5554   23271333.9364
 -19308215.82844 -15045345.31444  21712527.7334   21712528.2364
 96  3 25  4  9 30.0000000  0  8G 6G16G20G 5G22G23G26G17
 -21675514.84344 -16889998.10544  20271494.0154   20271493.1874
  -6863820.38244  -5348420.05744  22351252.5184   22351252.1984
   -948332.37744   -738959.20344  22306230.4624   22306230.9764
  18297851.96444                  24158396.0634
   -440734.23444   -343428.29544  24447665.6314
 -10622104.84544  -8276958.93444  22959405.5424   22959405.9124
  -3952238.20944  -3079664.08844  23258150.1474   23258149.8734
 -19356095.33444 -15082654.00144  21703416.4644   21703416.6204
 96  3 25  4 10  0.0000000  0  8G 6G16G20G 5G22G23G26G17
 -21690581.54344 -16901738.38744  20268626.8924   20268625.8614
  -6783564.10044  -5285882.69144  22366525.1974   22366525.4964
   -856002.19344   -667013.61444  22323800.5044   22323801.1384
  18406431.74144                  24179056.0314
   -512957.97644   -399706.50444  24433920.7744   24433921.4634
 -10715134.31044  -8349449.38844  22941701.6044   22941701.3994
  -4021272.15044  -3133456.75344  23245013.0934   23245012.7314
 -19403786.28944 -15119815.75744  21694341.4684   21694341.1004
 96  3 25  4 10 30.0000000  0  8G 6G16G20G 5G22G23G26G17
 -21705283.21944 -16913194.23544  20265829.3334   20265828.4504
  -6702984.98844  -5223093.77044  22381858.8234   22381858.4474
   -763415.93744   -594868.49144  22341418.7644   22341419.7194
  18515013.23344                  24199720.8874
   -584835.43244                  24420240.1304
 -10807956.43644  -8421778.29344  22924038.3354   22924038.8934
  -4090085.52744  -3187077.52344  23231919.2024   23231918.4484
 -19451304.61244 -15156842.99244  21685299.3014   21685299.2804
 96  3 25  4 11  0.0000000  0  8G 6G16G20G 5G22G23G26G17
 -21719592.04044 -16924343.96144  20263106.3904   20263105.4994
  -6622086.13644  -5160055.68844  22397253.3284   22397253.0884
   -670577.15544   -522526.59344  22359085.8784   22359086.4734
  18623593.98944                  24220383.2114
   -656356.76644                  24406631.7194
 -10900543.36744  -8493923.90144  22906418.6774   22906420.7664
  -4158672.30544  -3240521.74844  23218867.1434   23218866.9384
 -19498644.45144 -15193731.15844  21676290.1544   21676290.1344
 96  3 25  4 11 30.0000000  0  8G 6G16G20G 5G22G23G26G17
 -21733458.50144 -16935148.99544  20260467.5934   20260466.8134
  -6540811.94244  -5096725.13144  22412718.1374   22412718.8884
   -577461.38244   -449968.85744  22376805.3724   22376805.8674
  18732222.52344                  24241058.5484
   -727470.35544                  24393098.5354
 -10992842.96344  -8565845.61844  22888854.5784   22888856.2794
  -4226980.10644  -3293748.57844  23205868.6244   23205867.1624
 -19545766.17944 -15230449.36644  21667323.5604   21667323.7214
 96  3 25  4 12  0.0000000  0  7G 6G16G20G22G23G26G17
 -21746884.35944 -16945610.69944  20257912.9114   20257912.0254
  -6459177.73544  -5033114.06344  22428253.2934   22428253.5624
   -484089.60144   -377211.63244  22394573.5254   22394574.4544
   -798187.84144                  24379641.7654
 -11084872.07444  -8637556.59244  22871341.9974   22871343.0294
  -4295026.65344  -3346771.82544  23192919.8864   23192919.7824
 -19592676.69244 -15267002.98844  21658396.9964   21658396.7304
 96  3 25  4 12 30.0000000  0  7G 6G16G20G22G23G26G17
 -21759858.41044 -16955720.35144  20255443.8934   20255443.0564
  -6377184.62544  -4969223.33144  22443856.6774   22443856.2294
   -390458.49444   -304252.34144  22412390.2074   22412390.7814
   -868507.97144   -676758.26344  24366263.0164
 -11176617.36544  -8709046.37144  22853883.3114   22853884.9364
  -4362794.27244  -3399577.73644  23180023.0514   23180023.8374
 -19639360.86544 -15303380.24144  21649513.0214   21649513.2084
 96  3 25  4 13  0.0000000  0  7G 6G16G20G22G23G26G17
 -21772405.74344 -16965497.49144  20253056.2794   20253055.0644
  -6294842.01144  -4905060.24944  22459525.6804   22459525.2464
   -296581.62844   -231101.56044  22430254.4774   22430255.5884
   -938429.64344   -731242.67244  24352955.0704
 -11268070.07844  -8780308.18844  22836481.5664   22836482.2394
  -4430259.93444  -3452148.35044  23167185.8404   23167186.2214
 -19685802.09244 -15339568.18844  21640675.3204   21640675.7054
 96  3 25  4 13 30.0000000  0  7G 6G16G20G22G23G26G17
 -21784555.15044 -16974964.56344  20250744.2244   20250743.3934
  -6212159.01144  -4840631.93144  22475259.1464   22475259.5714
   -202450.28944   -157752.48344  22448167.4084   22448167.9544
  -1007951.27144   -785415.27144  24339725.9314
 -11359254.43344  -8851360.91044  22819130.0084   22819129.3974
  -4497423.54144  -3504483.59444  23154404.3064   23154404.6224
 -19731998.77544 -15375565.58344  21631884.8444   21631885.0144
 96  3 25  4 14  0.0000000  0  7G 6G16G20G22G23G26G17
 -21796322.94344 -16984134.27244  20248504.8214   20248504.2024
  -6129145.67544  -4775946.20644  22491056.1554   22491056.0004
   -108057.94544    -84200.00944  22466129.1704   22466129.5664
  -1077082.10844   -839283.45344  24326569.6124   24326574.0664
 -11450175.66044  -8922208.58444  22801828.6444   22801828.2664
  -4564293.54044  -3556590.06744  23141679.7354   23141679.8234
 -19777960.60444 -15411379.97344  21623138.3094   21623138.5864
 96  3 25  4 14 30.0000000  0  7G 6G16G20G22G23G26G17
 -21807771.48744 -16993055.21244  20246326.3684   20246325.2924
  -6045864.71944  -4711051.95244  22506904.3214   22506903.3084
    -13456.04544    -10484.25644  22484131.5624   22484132.1614
  -1145874.40344   -892887.84444  24313479.4984   24313479.0534
 -11540876.90944  -8992884.85244  22784568.3184   22784568.2924
  -4630919.08144  -3608506.04344  23129001.1384   23129001.3214
 -19823755.17444 -15447064.02944  21614423.6524   21614423.8634
 96  3 25  4 15  0.0000000  0  7G 6G16G20G22G23G26G17
 -21818930.61544 -17001750.63744  20244202.8384   20244201.7904
  -5962357.06344  -4645981.04444  22522796.0454   22522795.6464
     81313.28744     63361.96744  22502165.5644   22502166.0364
  -1214357.86244   -946251.56444  24300446.6434
 -11631392.26744  -9063416.27144  22767343.2204   22767343.5734
  -4697331.88844  -3660256.24844  23116362.7244   23116362.8184
 -19869426.17444 -15482651.79744  21605732.8644   21605733.1994
 96  3 25  4 15 30.0000000  0  7G 6G16G20G22G23G26G17
 -21829680.91944 -17010127.49044  20242157.2754   20242156.3464
  -5878520.22244  -4580653.63044  22538748.9794   22538748.9694
    176353.63544    137419.38044  22520251.0724   22520251.4244
  -1282433.50744   -999297.51744  24287492.0674   24287490.4424
 -11721624.35844  -9133726.94444  22750172.2084   22750173.2094
  -4763432.26144  -3711763.01544  23103784.3474   23103784.6844
 -19914889.08844 -15518077.42644  21597081.4474   21597081.7704
 96  3 25  4 16  0.0000000  0  7G 6G16G20G22G23G26G17
 -21839999.86544 -17018168.22644  20240193.5854   20240192.4464
  -5794363.24244  -4515076.75844  22554763.3204   22554763.5124
    271647.88944    211674.62344  22538384.6364   22538385.9674
  -1350101.48444  -1052025.75644  24274614.9644
 -11811546.87044  -9203796.40444  22733060.2394   22733060.7584
  -4829216.33644  -3763023.31444  23091266.4934   23091265.3604
 -19960145.69444 -15553342.28444  21588469.3984   21588469.5014
 96  3 25  4 16 30.0000000  0  7G 6G16G20G22G23G26G17
 -21849916.24344 -17025895.27244  20238306.4404   20238305.3324
  -5709952.22144  -4449301.94044  22570826.2714   22570825.9674
    367127.15844    286074.03144  22556554.3274   22556554.5024
  -1417403.95744                  24261808.4064
 -11901201.74744  -9273657.31044  22715999.6994   22716000.7864
  -4894722.97344  -3814067.41944  23078800.6364   23078800.0224
 -20005232.11944 -15588474.54044  21579889.8704   21579890.0964
 96  3 25  4 17  0.0000000  0  7G 6G16G20G22G23G26G17
 -21859381.86044 -17033271.07644  20236505.4244   20236504.3944
  -5625244.77144  -4383296.12644  22586945.9754   22586945.5864
    462821.16144    360640.77244  22574764.7774   22574765.4634
  -1484299.20444                  24249078.5714
 -11990569.46444  -9343294.45344  22698993.9654   22698994.4034
  -4959910.99344  -3864863.23944  23066395.7774   23066394.5454
 -20050101.46144 -15623437.64244  21571351.3904   21571351.0444
 96  3 25  4 17 30.0000000  0  7G 6G16G20G22G23G26G17
 -21868406.50944 -17040303.26644  20234787.7404   20234786.7314
  -5540251.18844  -4317067.35844  22603119.7684   22603119.1254
    558715.13344    435363.32744  22593012.0244   22593012.3444
  -1550812.34844                  24236420.8894
 -12079674.51344  -9412726.92044  22682038.0554   22682038.1374
  -5024793.29244  -3915420.85644  23054049.3294   23054048.4874
 -20094765.00944 -15658240.38744  21562852.2384   21562852.1804
 96  3 25  4 18  0.0000000  0  7G 6G16G20G22G23G26G17
 -21876993.38144 -17046994.33344  20233154.0984   20233152.8784
  -5454977.65944  -4250620.44644  22619346.8654   22619346.3834
    654806.21644    510239.49244  22611298.0574   22611298.4014
  -1616948.33844  -1259958.34944  24223836.9274   24223832.7084
 -12168529.47244  -9481964.51344  22665129.4984   22665129.4144
  -5089370.78544  -3965740.96344  23041760.3814   23041759.7044
 -20139220.67844 -15692881.15044  21554392.5564   21554392.4284
 96  3 25  4 18 30.0000000  0  7G17G 6G16G20G22G23G26
 -20183472.82544 -15727363.32644  21545971.7414   21545971.9164
 -21885151.71244 -17053351.47244  20231601.3324   20231600.4334
  -5369411.28944  -4183945.35144  22635628.9374   22635628.9194
    751104.63344    585277.21044  22629623.1324   22629622.7694
  -1682688.73844  -1311184.59844  24211326.5714   24211325.5424
 -12257152.69444  -9551021.53144  22648264.7694   22648264.9264
  -5153634.27244  -4015816.37944  23029531.9154   23029531.1654
 96  3 25  4 19  0.0000000  0  7G17G 6G16G20G22G23G26
 -20227517.31044 -15761683.68444  21537590.1054   21537590.3974
 -21892887.79544 -17059379.58744  20230129.1884   20230128.2704
  -5283533.34444  -4117027.48544  22651970.7834   22651970.7874
    847629.80044    660491.62644  22647991.3744   22647991.5454
  -1748015.62944  -1362088.64044  24198895.5114   24198895.1504
 -12345539.07844  -9619893.99644  22631445.3894   22631445.7484
  -5217567.22444  -4065634.24944  23017365.3844   23017364.6524
 96  3 25  4 19 30.0000000  0  7G17G 6G16G20G22G23G26
 -20271318.46344 -15795814.43144  21529254.9894   21529255.3534
 -21900180.59044 -17065062.28444  20228741.4324   20228740.6164
  -5197326.66844  -4049853.44544  22668376.0214   22668375.1624
    944414.96744    735908.62844  22666408.5164   22666408.8814
  -1812896.25744  -1412644.92644  24186549.3454   24186544.3214
 -12433634.13444  -9688539.45544  22614680.8634   22614681.5114
  -5281138.54944  -4115170.32244  23005268.4394   23005267.2504
 96  3 25  4 20  0.0000000  0  7G17G 6G16G20G22G23G26
 -20314904.57944 -15829777.61744  21520961.0834   21520961.1504
 -21907063.20344 -17070425.35644  20227431.8684   20227430.7224
  -5110823.50644  -3982448.38044  22684836.9494   22684836.4284
   1041434.41044    811508.17544  22684870.4144   22684871.3564
  -1877317.34844  -1462843.14144  24174289.7114   24174289.7054
 -12521441.88644  -9756961.03444  22597971.3414   22597972.5994
  -5344367.47644  -4164439.59744  22993236.8054   22993235.9694
 96  3 25  4 20 30.0000000  0  7G17G 6G16G20G22G23G26
 -20358277.90944 -15863574.99744  21512707.2384   21512706.9614
 -21913544.29244 -17075475.55644  20226198.4174   20226197.5634
  -5024033.74644  -3914819.99744  22701352.3164   22701351.8584
   1138669.72944    887275.94544  22703374.2124   22703374.6774
  -1941266.40444  -1512673.57744  24162120.5234   24162118.9874
 -12608947.88744  -9825147.48444  22581319.1534   22581320.2494
  -5407262.67244  -4213448.81844  22981267.0414   22981266.8284
 96  3 25  4 21  0.0000000  0  7G17G 6G16G20G22G23G26
 -20401433.21044 -15897202.48244  21504495.2144   21504494.8084
 -21919613.09144 -17080204.48844  20225043.5824   20225042.6094
  -4936958.81944  -3846969.39644  22717921.8584   22717922.3334
   1236114.16144    963206.66144  22721917.7944   22721918.1664
  -2004757.32144  -1562147.04944  24150038.8534   24150038.2964
 -12696130.34144  -9893081.81144  22564729.3674   22564730.3344
  -5469822.26444  -4262196.53044  22969363.1494   22969362.2434
 96  3 25  4 21 30.0000000  0  7G17G 6G16G20G22G23G26
 -20444416.09844 -15930695.62244  21496315.7064   21496315.5214
 -21925285.29144 -17084624.38544  20223964.2984   20223963.2084
  -4849633.17044  -3778923.43544  22734539.6144   22734540.5004
   1333730.53944   1039271.36144  22740493.8054   22740493.6414
  -2067826.37444  -1611291.72144  24138036.2354   24138036.8444
 -12783011.98644  -9960781.75644  22548196.3424   22548197.2604
  -5532082.88144  -4310711.26744  22957514.8014   22957514.4904
 96  3 25  4 22  0.0000000  0  7G 6G16G20G22G23G26G17
 -21930562.04444 -17088736.14244  20222960.2654   20222959.2014
  -4762062.07244  -3710686.22244  22751203.6674   22751204.2104
   1431491.49044   1115448.71744  22759096.0754   22759096.6214
  -2130489.60344  -1660120.18544  24126112.8324   24126115.4864
 -12869625.38444 -10028272.67444  22531714.5504   22531715.3904
  -5594053.45044  -4359000.01044  22945722.1154   22945720.9104
 -20487247.74944 -15964070.91044  21488165.2384   21488165.1044
 96  3 25  4 22 30.0000000  0  7G 6G16G20G22G23G26G17
 -21935422.25544 -17092523.31944  20222035.1754   20222034.3994
  -4674232.29244  -3642247.42844  22767917.6274   22767917.8674
   1529412.40944   1191750.73044  22777729.9754   22777730.5284
  -2192779.47544  -1708657.74344  24114259.4884   24114262.4454
 -12955968.04544 -10095552.62744  22515284.2504   22515285.4554
  -5655721.85244  -4407053.27544  22933987.5064   22933987.1954
 -20529910.56744 -15997314.64044  21480046.4754   21480046.6934
 96  3 25  4 23  0.0000000  0  7G 6G16G20G22G23G26G17
 -21939848.41744 -17095972.27944  20221193.0064   20221192.0564
  -4586134.28544  -3573599.64144  22784682.0804   22784682.6064
   1627513.63644   1268193.23844  22796397.7404   22796398.4854
  -2254698.99644  -1756906.69044  24102476.6154   24102477.2294
 -13042033.32044 -10162616.44644  22498906.9464   22498907.3844
  -5717064.82344  -4454852.96544  22922314.0534   22922312.9544
 -20572384.88744 -16030411.49944  21471963.6304   21471964.2444
 96  3 25  4 23 30.0000000  0  7G 6G16G20G22G23G26G17
 -21943849.28944 -17099089.84444  20220431.7464   20220430.6374
  -4497784.40344  -3504755.59044  22801494.4464   22801493.9454
   1725793.75744   1344775.14044  22815099.7374   22815100.3314
  -2316243.43744  -1804863.40044  24090764.8474   24090762.8494
 -13127830.85044 -10229471.62744  22482580.1004   22482580.4594
  -5778080.51144  -4502397.61844  22910703.4644   22910702.7034
 -20614655.41044 -16063349.55044  21463919.8464   21463920.2284
 96  3 25  4 24  0.0000000  0  7G 6G16G20G22G23G26G17
 -21947435.74044 -17101884.48144  20219748.9784   20219748.0194
  -4409194.08844  -3435724.18444  22818352.5364   22818352.4034
   1824263.30444   1421504.65844  22833838.4384   22833839.0604
  -2377405.30044  -1852521.94844  24079127.8714   24079126.2384
 -13213352.24344 -10296111.63544  22466305.5754   22466305.7554
  -5838759.62144  -4549680.00544  22899156.8634   22899156.0924
 -20656693.01744 -16096106.10244  21455920.1884   21455920.3854
 96  3 25  4 24 30.0000000  0  7G 6G16G20G22G23G26G17
 -21950601.21844 -17104351.09144  20219146.8784   20219145.7894
  -4320354.49644  -3366498.53044  22835257.9684   22835258.4524
   1922943.80044   1498398.55344  22852616.7764   22852618.2114
  -2438151.10644  -1899856.33444  24067567.1774   24067566.7814
 -13298552.73744 -10362501.60144  22450092.1384   22450092.4654
  -5899078.95544  -4596682.06244  22887677.3734   22887676.7884
 -20698480.13044 -16128667.47244  21447968.4294   21447968.8644
 96  3 25  4 25  0.0000000  0  7G 6G16G20G22G23G26G17
 -21953344.27344 -17106488.53744  20218624.8544   20218623.8984
  -4231272.09844  -3297083.67044  22852210.1464   22852210.8244
   2021824.78144   1575448.66044  22871433.0804   22871433.7924
  -2498438.68244  -1946833.69144  24056094.5224   24056094.0184
 -13383424.42944 -10428635.35144  22433941.4364   22433941.6634
  -5959030.95144  -4643397.86744  22876269.7644   22876270.3034
 -20740024.38644 -16161039.60244  21440062.8494   21440063.2624
 96  3 25  4 25 30.0000000  0  7G 6G16G20G22G23G26G17
 -21955661.47344 -17108294.14844  20218183.6434   20218182.8434
  -4141956.22544  -3227486.88244  22869206.4504   22869206.9594
   2120896.20944   1652647.17644  22890285.5694   22890287.0734
  -2558265.50644  -1993452.00844  24044709.3544   24044710.8374
 -13467967.53144 -10494513.06344  22417853.2064   22417853.6204
  -6018626.83644  -4689836.17744  22864928.4854   22864928.5624
 -20781352.30244 -16193243.15944  21432198.7224   21432198.3244
 96  3 25  4 26  0.0000000  0  7G 6G16G20G22G23G26G17
 -21957537.63344 -17109756.09044  20217826.7564   20217825.6774
  -4052391.73744  -3157696.37844  22886249.7884   22886250.4124
   2220149.25944   1729987.20444  22909172.2874   22909173.0704
  -2617632.58444  -2039712.07944  24033412.4684   24033412.9164
 -13552182.16844 -10560134.81144  22401827.1334   22401828.4544
  -6077869.64044  -4735999.38544  22853654.5144   22853654.1284
 -20822492.69044 -16225300.58444  21424370.0864   21424369.7824
 96  3 25  4 26 30.0000000  0  7G 6G16G20G22G23G26G17
 -21958950.67944 -17110857.16444  20217557.9914   20217557.0364
  -3962559.31744  -3087697.09144  22903344.1174   22903343.7274
   2319561.15944   1807451.02144  22928090.0774   22928092.0004
  -2676533.05644  -2085608.39644  24022203.5114   24022202.1384
 -13636077.42144 -10625507.68344  22385862.3224   22385863.7604
  -6136766.26344  -4781892.84344  22842447.5534   22842447.0114
 -20863463.88344 -16257226.16644  21416573.5454   21416573.4224
 96  3 25  4 27  0.0000000  0  7G 6G16G20G22G23G26G17
 -21959896.54644 -17111594.20444  20217377.9844   20217377.0774
  -3872471.72844  -3017498.95944  22920487.3354   22920487.0674
   2419116.54144   1885026.62644  22947034.8874   22947035.1074
  -2735001.91744  -2131168.60844  24011076.8374   24011078.4734
 -13719681.40244 -10690653.60044  22369954.0704   22369954.5114
  -6195330.82544  -4827527.54244  22831303.1864   22831301.1914
 -20904259.87144 -16289015.22644  21408810.3034   21408810.3744
 96  3 25  4 27 30.0000000  0  7G 6G16G20G22G23G26G17
 -21960386.24644 -17111975.78844  20217284.6844   20217283.8794
  -3782132.22044  -2947104.54544  22937677.9544   22937677.9554
   2518799.65344   1962701.77244  22966004.5144   22966005.0064
  -2793070.99244  -2176417.22244  24000026.5474   24000025.1384
 -13803006.52244 -10755582.23544  22354098.3094   22354098.7374
  -6253574.48144  -4872912.20244  22820219.7024   22820219.3504
 -20944872.91844 -16320661.74144  21401082.0204   21401081.5924
 96  3 25  4 28  0.0000000  0  7G 6G16G20G22G23G26G17
 -21960427.23644 -17112007.72944  20217276.9494   20217275.9034
  -3691536.65544  -2876510.59444  22954918.4904   22954918.5304
   2618614.03544   2040479.20944  22984998.6004   22984999.8734
  -2850718.38444  -2221337.28644  23989057.0584   23989056.4664
 -13886044.86344 -10820287.40744  22338296.9474   22338296.4124
  -6311471.59044  -4918026.81944  22809202.3764   22809201.7674
 -20985272.29344 -16352141.75644  21393394.0944   21393394.0604
 96  3 25  4 28 30.0000000  0  7G 6G16G20G22G23G26G17
 -21959994.55044 -17111670.57144  20217359.1494   20217358.3324
  -3600675.93544  -2805710.03044  22972208.8214   22972207.7564
   2718589.33644   2118382.02944  23004022.7454   23004023.4874
  -2907910.95444  -2265902.92744  23978173.6004   23978171.3684
 -13968761.60344 -10884741.97544  22322556.4404   22322556.0314
  -6368977.37144  -4962836.49844  22798258.6874   22798257.7164
 -21025408.40944 -16383416.63444  21385755.8914   21385756.2744
 96  3 25  4 29  0.0000000  0  7G 6G16G20G22G23G26G17
 -21959113.83144 -17110984.29944  20217526.8854   20217526.1364
  -3509576.20644  -2734723.20544  22989544.3854   22989544.9184
   2818725.54044   2196410.23844  23023078.0644   23023078.6954
  -2964674.30444  -2310134.12144  23967372.1454   23967372.4394
 -14051158.71344 -10948947.47844  22306875.8534   22306876.6264
  -6426081.80244  -5007333.43244  22787392.8184   22787392.2794
 -21065296.44444 -16414498.20744  21378165.6584   21378165.9414
 96  3 25  4 29 30.0000000  0  7G 6G16G20G22G23G26G17
 -21957784.23144 -17109948.25044  20217779.8594   20217778.6824
  -3418233.62344  -2663547.17544  23006926.6414   23006926.2234
   2919031.75644   2274570.90644  23042165.0944   23042166.4194
  -3020978.96444  -2354007.87944  23956656.6384   23956656.1764
 -14133228.70144 -11012898.08544  22291258.7784   22291258.6374
  -6482771.81644  -5051507.45744  22776604.9084   22776604.4044
 -21104960.50644 -16445405.25644  21370617.9844   21370617.9024
 96  3 25  4 30  0.0000000  0  7G 6G16G20G22G23G26G17
 -21956003.17444 -17108560.41644  20218118.8874   20218118.0414
  -3326656.78944  -2592188.60644  23024352.9904   23024352.4594
   3019511.74144   2352866.98344  23061286.1184   23061286.9974
  -3076820.11644  -2397520.46244  23946030.9084   23946030.5484
 -14214972.00744 -11076594.12744  22275703.7184   22275704.0354
  -6539047.53444  -5095358.65344  22765895.8234   22765895.1274
 -21144425.59244 -16476157.25344  21363107.8744   21363108.3034
 96  3 25  4 30 30.0000000  0  7G 6G16G20G22G23G26G17
 -21953759.77044 -17106812.31144  20218545.7214   20218544.9984
  -3234831.72744  -2520636.62644  23041826.1024   23041826.6044
   3120167.60144   2431300.10144  23080441.0104   23080441.6294
  -3132204.90444  -2440677.44844  23935491.2804   23935490.5224
 -14296383.69544 -11140031.77444  22260211.0864   22260211.4244
  -6594918.59544  -5138894.51844  22755263.8214   22755263.9054
 -21183704.32044 -16506764.03744  21355633.5174   21355633.6854
 96  3 25  4 31  0.0000000  0  7G 6G16G20G22G23G26G17
 -21951071.43244 -17104717.50744  20219057.1944   20219056.4004
  -3142762.53044  -2448894.38044  23059346.7854   23059345.8994
   3220998.04544   2509869.27044  23099628.6984   23099629.6864
  -3187130.50744  -2483476.62644  23925039.6074   23925039.8324
 -14377465.98244 -11203212.74544  22244781.3994   22244782.0264
  -6650408.17944  -5182133.13644  22744704.5854   22744704.6304
 -21222813.29844 -16537238.54544  21348191.4564   21348191.4724
 96  3 25  4 31 30.0000000  0  7G 6G16G20G22G23G26G17
 -21947944.86044 -17102281.21844  20219652.2034   20219651.3234
  -3050463.42744  -2376972.98144  23076910.6044   23076910.5564
   3321979.56044   2588556.15644  23118845.0024   23118845.5564
  -3241586.22244  -2525909.64444  23914677.0254   23914678.0084
 -14458232.36344 -11266147.55244  22229412.3664   22229412.6984
  -6705536.58244  -5225090.31844  22734213.8824   22734213.3614
 -21261756.11544 -16567583.57844  21340780.9434   21340780.7394
 96  3 25  4 32  0.0000000  0  7G 6G16G20G22G23G26G17
 -21944398.04044 -17099517.46644  20220327.1684   20220326.2374
  -2957949.04144  -2304883.85844  23094515.3784   23094514.6034
   3423076.71744   2667333.14744  23138082.4634   23138082.6304
  -3295588.04144  -2567988.99144  23904400.5204   23904401.0744
 -14538689.27744 -11328841.21344  22214101.6214   22214102.7644
  -6760313.96444  -5267773.97544  22723790.2384   22723789.6754
 -21300529.73344 -16597796.76944  21333402.4854   21333402.6524
 96  3 25  4 32 30.0000000  0  7G 6G16G20G22G23G26G17
 -21940424.32044 -17096421.06344  20221083.4314   20221082.6074
  -2865214.54444  -2232623.21944  23112162.4794   23112160.8714
   3524282.44144   2746194.73944  23157341.2834   23157341.8884
  -3349119.87144  -2609702.10444  23894214.4184   23894212.0764
 -14618825.94244 -11391285.33744  22198851.6814   22198852.9794
  -6814723.29644  -5310170.84344  22713436.1464   22713435.5024
 -21339115.41144 -16627863.51544  21326059.8894   21326059.5614
 96  3 25  4 33  0.0000000  0  7G 6G16G20G22G23G26G17
 -21936021.35544 -17092990.18644  20221921.2584   20221920.3964
  -2772297.79944  -2160220.55144  23129843.2884   23129843.6904
   3625581.88144   2825129.35244  23176618.0814   23176619.0384
  -3402197.27544  -2651061.11844  23884113.1244   23884113.5474
 -14698658.46444 -11453492.47144  22183660.5724   22183660.5334
  -6868756.40644  -5352274.54544  22703154.3564   22703152.8684
 -21377519.55744 -16657788.81144  21318751.8724   21318751.7594
 96  3 25  4 33 30.0000000  0  7G 6G16G20G22G23G26G17
 -21931175.26944 -17089214.02044  20222843.4394   20222842.3944
  -2679195.12444  -2087673.01144  23147560.7124   23147560.4374
   3726969.81944   2904132.93044  23195911.3554   23195912.1774
  -3454830.44544  -2692073.96344  23874099.0564   23874097.6924
 -14778183.03144 -11515459.64344  22168527.9374   22168527.3044
  -6922390.58044  -5394067.38144  22692948.0114   22692947.3734
 -21415736.26744 -16687568.04744  21311479.1054   21311479.1484
 96  3 25  4 34  0.0000000  0  7G 6G16G20G22G23G26G17
 -21925876.13144 -17085084.82244  20223851.7994   20223851.1294
  -2585902.04544  -2014977.11344  23165313.7944   23165314.0954
   3828467.19444   2983221.79444  23215225.8544   23215225.9914
  -3507029.55144  -2732748.57144  23864166.6944   23864165.8194
 -14857388.57044 -11577178.22344  22153455.4244   22153454.8074
  -6975616.08144  -5435541.79244  22682819.5104   22682818.2514
 -21453755.58744 -16717193.47744  21304244.3994   21304244.5404
 96  3 25  4 34 30.0000000  0  7G 6G16G20G22G23G26G17
 -21920123.78244 -17080602.47744  20224946.5314   20224945.3174
  -2492437.43944  -1942147.55444  23183099.2324   23183099.5234
   3930082.56444   3062402.59444  23234562.9934   23234563.6574
  -3558809.29544  -2773096.42844  23854312.7454   23854311.2534
 -14936285.99344 -11638656.70844  22138441.1404   22138441.2034
  -7028440.86444  -5476703.93244  22672767.2664   22672766.7184
 -21491582.40244 -16746668.90744  21297046.2214   21297046.1844
 96  3 25  4 35  0.0000000  0  7G 6G16G20G22G23G26G17
 -21913908.17544 -17075759.14844  20226129.0794   20226128.4524
  -2398791.93144  -1869177.01644  23200919.2694   23200919.5664
   4031825.18344   3141682.55344  23253923.7474   23253923.3934
  -3610161.85144  -2813111.36244  23844540.2154   23844538.1654
 -15014860.16244 -11699883.30844  22123489.4654   22123489.1924
  -7080860.71344  -5517550.55244  22662792.4544   22662790.7684
 -21529207.91444 -16775987.47344  21289886.2034   21289886.0154
 96  3 25  4 35 30.0000000  0  7G 6G16G20G22G23G26G17
 -21907223.38744 -17070550.22744  20227401.3914   20227400.4254
  -2304921.89044  -1796031.52844  23218781.9494   23218781.4064
   4133696.26844   3221062.61344  23273308.5194   23273309.7474
  -3661053.31344  -2852767.07044  23834855.8794   23834854.5524
 -15093083.98344 -11760836.91644  22108604.0924   22108603.7114
  -7132864.33044  -5558072.83644  22652895.9844   22652894.8004
 -21566615.32644 -16805136.09544  21282768.0244   21282767.9984
 96  3 25  4 36  0.0000000  0  7G 6G16G20G22G23G26G17
 -21900078.59644 -17064982.85844  20228760.8564   20228759.8844
  -2210844.11344  -1722724.15144  23236684.4734   23236684.2524
   4235672.71844   3300524.76144  23292714.2524   23292715.8444
  -3711478.15844  -2892059.18944  23825260.6724   23825257.5304
 -15170976.02844 -11821531.99044  22093781.3974   22093781.7574
  -7184463.75744  -5598280.15144  22643076.7514   22643076.1494
 -21603815.38444 -16834123.14144  21275688.9014   21275688.6694
 96  3 25  4 36 30.0000000  0  8G 6G16G20G21G22G23G26G17
 -21892461.05344 -17059047.11644  20230210.5834   20230209.8534
  -2116541.11544  -1649241.30244  23254629.7544   23254629.9474
   4337755.89444   3380070.08444  23312140.2284   23312141.1584
        -0.49154                  25601289.9794
  -3761406.45344  -2930964.34344  23815759.3254   23815759.8334
 -15248505.44144 -11881944.49344  22079028.1094   22079028.5334
  -7235643.39744  -5638160.37544  22633337.4794   22633337.1714
 -21640795.92744 -16862939.13244  21268651.6794   21268651.6394
 96  3 25  4 37  0.0000000  0  8G 6G16G20G21G22G23G26G17
 -21884389.30344 -17052757.44444  20231746.7184   20231745.6624
  -2022013.28944  -1575583.25644  23272618.6604   23272618.1844
   4439925.87744   3459683.05844  23331582.8184   23331583.3894
   -100265.45344                  25582208.2854
  -3810841.96844  -2969485.54344  23806352.4764   23806352.2804
 -15325671.72044 -11942074.03644  22064343.6784   22064343.9894
  -7286409.50644  -5677718.36344  22623677.4724   22623676.3124
 -21677580.16844 -16891602.16444  21261651.8754   21261651.5754
 96  3 25  4 37 30.0000000  0  7G 6G16G20G22G23G26G17
 -21875891.62344 -17046135.87744  20233363.4294   20233362.6214
  -1927292.22944  -1501774.62444  23290643.7114   23290642.6634
   4542164.85144   3539349.77644  23351037.9164   23351037.6424
  -3859821.37944  -3007651.31344  23797032.1554   23797030.7914
 -15402519.41044 -12001955.32344  22049720.1054   22049720.7064
  -7336782.54044  -5716970.07044  22614091.7784   22614091.3824
 -21714192.14244 -16920130.96544  21254684.9204   21254684.8214
 96  3 25  4 38  0.0000000  0  7G 6G16G20G22G23G26G17
 -21866935.88944 -17039157.38244  20235067.7204   20235066.7964
  -1832382.02044  -1427818.60444  23308703.6824   23308703.3504
   4644503.25144   3619093.98044  23370512.7674   23370512.1914
  -3908332.00144  -3045451.77544  23787800.8434   23787800.3364
 -15479026.77344 -12061571.42344  22035161.2554   22035161.6814
  -7386741.90644  -5755899.43844  22604584.7264   22604583.6204
 -21750606.03744 -16948505.41744  21247755.5144   21247755.1074
 96  3 25  4 38 30.0000000  0  7G 6G16G20G22G23G26G17
 -21857511.14444 -17031813.42944  20236861.1124   20236860.4804
  -1737284.80644  -1353716.88844  23326800.1364   23326799.1314
   4746942.06744   3698916.42044  23390005.7984   23390006.7554
  -3956377.54844  -3082889.83344  23778658.2594   23778658.5784
 -15555188.32244 -12120918.05944  22020667.8654   22020668.0384
  -7436281.25144  -5794501.51844  22595157.9554   22595156.3334
 -21786819.75744 -16976723.88944  21240864.4004   21240864.2324
 96  3 25  4 39  0.0000000  0  8G 6G16G20G21G22G23G26G17
 -21847600.67244 -17024090.98544  20238747.2404   20238746.4274
  -1641992.85444  -1279463.42644  23344932.6724   23344933.6354
   4849481.28244   3778817.09444  23409518.0004   23409519.3504
         0.16054                  25506040.1914
  -4003962.02444  -3119968.65044  23769602.0394   23769601.6454
 -15631026.66944 -12180012.85044  22006236.4554   22006236.6624
  -7485381.14944  -5832761.17744  22585814.6504   22585814.0344
 -21822826.55744 -17004781.12144  21234012.1754   21234012.3604
 96  3 25  4 39 30.0000000  0  8G 6G16G20G21G22G23G26G17
 -21837190.33644 -17015979.04044  20240728.0794   20240727.2144
  -1546526.83344  -1205074.32744  23363099.5554   23363101.2744
   4952115.06944   3858791.46444  23429049.4274   23429049.0824
    -99932.08944    -77869.08044  25487024.8434   25487025.1774
  -4051086.49344  -3156689.01644  23760633.9794   23760633.2824
 -15706548.25944 -12238860.82144  21991865.3754   21991865.4194
  -7534046.22544  -5870682.00644  22576553.6594   22576552.8914
 -21858620.08144 -17032672.17144  21227201.0504   21227201.0434
 96  3 25  4 40  0.0000000  0  8G 6G16G20G21G22G23G26G17
 -21826273.67444 -17007472.55544  20242805.8004   20242804.8244
  -1450885.37544  -1130548.49944  23381299.7964   23381299.6924
   5054839.65644   3938836.59344  23448596.9694   23448598.2124
   -199818.01444   -155702.16844  25468016.7484   25468015.7984
  -4097728.78544  -3193033.65644  23751757.1634   23751758.0304
 -15781724.00844 -12297439.30844  21977559.4714   21977559.8414
  -7582271.55844  -5908260.18544  22567376.7284   22567375.9534
 -21894211.38144 -17060405.64344  21220428.1624   21220427.9094
 96  3 25  4 40 30.0000000  0  8G 6G16G20G21G22G23G26G17
 -21814874.43444 -16998590.03244  20244974.9334   20244974.1214
  -1355062.11044  -1055881.02344  23399533.5494   23399533.8814
   5157651.44844   4018949.66844  23468160.6854   23468162.1044
   -299653.80144   -233496.23944  25449017.9714   25449018.5054
  -4143895.32444  -3229007.57044  23742972.9164   23742971.2904
 -15856564.14644 -12355756.27544  21963317.6804   21963318.3604
  -7630057.42744  -5945495.91144  22558282.5824   22558282.1574
 -21929623.46344 -17087999.46144  21213689.5854   21213689.4534
 96  3 25  4 41  0.0000000  0  8G 6G16G20G21G22G23G26G17
 -21803008.64544 -16989343.96944  20247232.8914   20247232.0634
  -1259056.44844   -981071.42544  23417803.4634   23417803.5814
   5260556.12444   4099135.11544  23487742.9294   23487743.3144
   -399427.02444   -311241.53544  25430030.8714
  -4189583.73744  -3264608.91144  23734278.3294   23734277.9964
 -15931061.03244 -12413805.77144  21949141.5184   21949142.2214
  -7677401.41444  -5982387.31044  22549274.0844   22549272.9754
 -21964859.30044 -17115455.94844  21206984.2514   21206984.3404
 96  3 25  4 41 30.0000000  0  8G 6G16G20G21G22G23G26G17
 -21790695.35044 -16979749.19544  20249575.9174   20249575.0864
  -1162889.82244   -906136.39844  23436104.2764   23436103.4174
   5363554.51844   4179393.59344  23507344.0484   23507344.5404
   -499124.56144                  25411058.8314
  -4234789.85144  -3299834.42344  23725677.1714   23725676.3474
 -16005203.45544 -12471579.06144  21935032.7224   21935033.3084
  -7724313.97944  -6018942.54044  22540347.4654   22540346.7814
 -21999924.12044 -17142779.17744  21200311.4734   21200311.7044
 96  3 25  4 42  0.0000000  0  8G 6G16G20G21G22G23G26G17
 -21777930.46944 -16969802.54344  20252004.9764   20252003.9874
  -1066544.98244   -831062.50544  23454437.7164   23454436.7344
   5466662.80544   4259737.70544  23526963.6964   23526964.4024
   -598722.55544   -466536.67644  25392104.5544
  -4279493.30344  -3334668.25744  23717168.8454   23717169.8404
 -16078975.23144 -12529063.53744  21920994.5114   21920995.0424
  -7770772.37044  -6055143.88444  22531506.1024   22531505.5434
 -22034799.09244 -17169954.47344  21193675.0804   21193675.3604
 96  3 25  4 42 30.0000000  0  8G 6G16G20G21G22G23G26G17
 -21764718.73844 -16959507.69144  20254519.4024   20254518.3114
   -970030.31844   -755856.25144  23472803.4374   23472803.8264
   5569854.71644   4340146.97444  23546601.0584   23546603.5154
   -698233.46544   -544077.55144  25373165.9704
  -4323711.87144  -3369124.24344  23708755.8574   23708755.3734
 -16152392.35944 -12586271.66744  21907024.0704   21907024.3744
  -7816785.50944  -6090998.25344  22522750.3124   22522749.8474
 -22069475.10944 -17196974.74044  21187076.4804   21187076.4804
 96  3 25  4 43  0.0000000  0  8G 6G16G20G21G22G23G26G17
 -21751057.10444 -16948862.26944  20257118.7834   20257117.8384
   -873364.27744   -680532.08144  23491198.4164   23491198.8924
   5673108.64744   4420604.57044  23566249.7454   23566250.2924
   -797657.24144                  25354244.0584
  -4367443.05844  -3403200.51344  23700434.5724   23700433.7514
 -16225453.84644 -12643202.66944  21893121.1494   21893121.4674
  -7862359.51244  -6126510.44144  22514077.8064   22514077.4494
 -22103938.04344 -17223828.96844  21180518.5234   21180518.3234
 96  3 25  4 43 30.0000000  0  8G 6G16G20G21G22G23G26G17
 -21736947.33044 -16937867.64444  20259803.9964   20259803.3464
   -776557.99644   -605098.61744  23509619.9964   23509620.3514
   5776393.43444   4501086.21844  23585903.8634   23585904.3984
   -897006.26044                  25335337.1374
  -4410691.78244  -3436900.82544  23692204.3294   23692203.5334
 -16298170.06944 -12699864.64544  21879283.6844   21879283.4564
  -7907509.99044  -6161692.61944  22505485.9854   22505484.8784
 -22138193.76444 -17250521.72444  21173999.9974   21173999.8744
 96  3 25  4 44  0.0000000  0  8G 6G16G20G21G22G23G26G17
 -21722382.11744 -16926518.13244  20262575.3194   20262574.4024
   -679597.23744   -529544.76844  23528070.6464   23528070.4574
   5879689.39844   4581576.58244  23605560.3874   23605561.3784
   -996278.74144   -776320.33444  25316448.8484
  -4453463.14844  -3470229.19944  23684064.7964   23684063.4904
 -16370535.35744 -12756253.15644  21865512.5424   21865512.7554
  -7952237.13444  -6196544.92044  22496974.2354   22496973.1214
 -22172254.56744 -17277062.59944  21167518.4354   21167518.5414
 96  3 25  4 44 30.0000000  0  8G 6G16G20G21G22G23G26G17
 -21707334.75044 -16914792.91644  20265439.0454   20265438.0904
   -582455.97344   -453850.27044  23546556.7824   23546557.1234
   5983011.20044   4662087.07144  23625221.8524   23625222.3044
  -1095453.80544   -853599.60544  25297580.4954   25297582.0174
  -4495744.03744  -3503175.38244  23676018.7154   23676019.0074
 -16442526.93944 -12812350.47644  21851813.5234   21851813.3874
  -7996519.29444  -6231050.48144  22488547.8314   22488547.2594
 -22206114.52244 -17303446.97344  21161075.2074   21161075.3574
 96  3 25  4 45  0.0000000  0  8G 6G16G20G21G22G23G26G17
 -21691824.04144 -16902706.65344  20268390.4294   20268389.5204
   -485161.45144   -378036.37044  23565071.0054   23565071.4004
   6086358.54444   4742617.47844  23644888.7184   23644890.6534
  -1194551.39844   -930818.43844  25278724.3134   25278725.6704
  -4537549.64444  -3535751.19444  23668063.5864   23668064.0434
 -16514161.63544 -12868169.70044  21838181.8494   21838181.7404
  -8040364.51244  -6265215.56244  22480204.7204   22480204.0584
 -22239800.75844 -17329695.97944  21154664.7834   21154665.0884
 96  3 25  4 45 30.0000000  0  8G 6G16G20G21G22G23G26G17
 -21675831.40544 -16890244.86744  20271433.9724   20271433.1384
   -387707.39044   -302098.12644  23583616.3884   23583617.1234
   6189753.58944   4823185.03544  23664564.2434   23664564.5134
  -1293580.07244  -1007983.60744  25259880.9854   25259881.9004
  -4578883.96544  -3567959.73744  23660197.8164   23660198.9834
 -16585438.15944 -12923709.82644  21824618.1434   21824618.0934
  -8083760.49444  -6299030.60344  22471946.5944   22471946.0604
 -22273324.49644 -17355818.36744  21148285.4654   21148285.3754
 96  3 25  4 46  0.0000000  0  8G 6G16G20G21G22G23G26G17
 -21659332.88744 -16877388.88444  20274573.3764   20274572.3574
   -290093.28444   -226035.19644  23602191.1984   23602190.5644
   6293238.57744   4903822.68544  23684256.8104   23684256.1814
  -1392522.10144  -1085081.21244  25241053.2934   25241052.7364
  -4619741.25544  -3599796.57244  23652423.4764   23652422.5314
 -16656346.86544 -12978963.34344  21811124.5914   21811124.7724
  -8126682.95144  -6332476.66644  22463778.9154   22463777.7114
 -22306675.51044 -17381806.15944  21141939.0544   21141939.0114
 96  3 25  4 46 30.0000000  0  8G 6G16G20G21G22G23G26G17
 -21642332.69744 -16864141.98944  20277808.4034   20277807.4704
   -192338.28744   -149862.45744  23620793.6904   23620794.2104
   6396820.99044   4984536.27444  23703967.3714   23703968.5574
  -1491386.06144  -1162118.02244  25222240.0374   25222239.0804
  -4660115.90444  -3631257.30944  23644740.9214   23644740.4094
 -16726903.84144 -13033942.78744  21797697.8744   21797697.9704
  -8169131.42144  -6365553.39344  22455700.9504   22455700.0644
 -22339841.23244 -17407649.57444  21135627.6914   21135627.8534
 96  3 25  4 47  0.0000000  0  8G 6G16G20G21G22G23G26G17
 -21624841.46244 -16850512.45944  20281136.9354   20281136.2344
    -94463.86444    -73596.66444  23639418.2454   23639418.4424
   6500486.05244   5065314.23944  23723693.6274   23723693.6464
  -1590179.04944  -1239099.51644  25203440.3084   25203440.7724
  -4700011.94544  -3662345.13344  23637148.9584   23637147.2754
 -16797128.66244 -13088663.41244  21784334.4614   21784334.5924
  -8211116.63244  -6398269.13244  22447711.0364   22447710.7434
 -22372817.84244 -17433345.63044  21129352.4254   21129352.2424
 96  3 25  4 47 30.0000000  0  8G 6G16G20G21G22G23G26G17
 -21606851.33744 -16836494.18644  20284560.3584   20284559.4274
      3541.99344      2771.54544  23658068.8344   23658068.5054
   6604224.67944   5146149.52944  23743434.5904   23743435.2084
  -1688882.65744  -1316011.38744  25184658.2494   25184661.2324
  -4739410.06044  -3693044.99044  23629650.4554   23629649.1174
 -16867002.86644 -13143110.83144  21771037.9394   21771038.1904
  -8252632.21044  -6430618.91244  22439811.5344   22439810.4544
 -22405588.77144 -17458881.41344  21123116.6404   21123116.6844
 96  3 25  4 48  0.0000000  0  8G 6G16G20G21G22G23G26G17
 -21588384.31944 -16822104.30644  20288074.4544   20288073.9014
    101678.02944     79241.21844  23676742.8844   23676743.9294
   6708006.52944   5227018.50444  23763184.3544   23763185.7254
  -1787487.41744  -1392846.23544  25165892.9564   25165896.5154
  -4778295.30744  -3723345.16544  23622251.1884   23622250.5544
 -16936520.10744 -13197280.09244  21757809.0084   21757809.3724
  -8293681.30144  -6462605.20044  22431999.8674   22431999.5334
 -22438137.79144 -17484244.28644  21116922.7614   21116922.4214
 96  3 25  4 48 30.0000000  0  8G 6G16G20G21G22G23G26G17
 -21569452.78644 -16807352.47244  20291676.8254   20291675.9874
    199954.54944    155820.30844  23695444.1004   23695444.9094
   6811800.06444   5307896.56244  23782934.8594   23782934.5204
  -1886001.82044                  25147142.6294
  -4816656.63944  -3753237.11044  23614950.2684   23614949.9494
 -17005668.91944 -13251162.26344  21744650.3714   21744650.7294
  -8334266.50544  -6494230.01444  22424276.5904   22424276.0114
 -22470458.62544 -17509429.34144  21110772.2514   21110771.9304
 96  3 25  4 49  0.0000000  0  8G 6G16G20G21G22G23G26G17
 -21550078.66444 -16792255.76044  20295363.9514   20295363.1174
    298362.04544    232501.46644  23714170.1584   23714169.6304
   6915579.93844   5388764.00444  23802683.1414   23802684.1414
  -1984438.48444                  25128404.2054
  -4854523.19944  -3782743.52244  23607745.8574   23607746.1694
 -17074445.36944 -13304754.28244  21731562.4024   21731562.8744
  -8374394.49644  -6525498.56544  22416640.2734   22416639.9354
 -22502571.05344 -17534452.00844  21104661.2364   21104660.6854
 96  3 25  4 49 30.0000000  0  7G 6G16G20G22G23G26G17
 -21530256.58044 -16776809.98844  20299135.8934   20299134.6854
    396916.98844    309297.52944  23732924.8204   23732922.9704
   7019351.45644   5469624.93244  23822431.6814   23822431.4744
  -4891885.83544  -3811857.26244  23600635.3604   23600635.2374
 -17142833.68344 -13358043.85944  21718548.9284   21718549.2174
  -8414055.97344  -6556403.60344  22409093.6234   22409092.0174
 -22534476.23644 -17559313.18544  21098590.0414   21098589.9394
 96  3 25  4 50  0.0000000  0  8G 6G16G20G21G22G23G26G17
 -21509955.32344 -16760990.83244  20302999.0754   20302998.2384
    495633.29244    386219.35044  23751710.4104   23751710.8164
   7123127.19244   5550489.13144  23842179.2444   23842180.7304
        -0.42854                  25091004.3304
  -4928749.07844  -3840581.85044  23593621.2554   23593620.8304
 -17210832.42744 -13411029.87344  21705609.3254   21705609.3644
  -8453232.15744  -6586930.48644  22401638.1464   22401637.3784
 -22566171.35744 -17584010.67744  21092558.5804   21092558.3124
 96  3 25  4 50 30.0000000  0  8G 6G16G20G21G22G23G26G17
 -21489159.03144 -16744785.93744  20306956.5474   20306955.4304
    594504.80844    463262.07744  23770525.1974   23770526.4544
   7226920.99944   5631367.41944  23861930.5574   23861930.7614
    -98115.66944                  25072336.3454
  -4965130.46444  -3868930.97344  23586697.2094   23586696.7214
 -17278444.71544 -13463714.75344  21692743.3364   21692743.1354
  -8491918.89844  -6617075.98644  22394276.4854   22394275.5624
 -22597674.55444 -17608558.61644  21086563.8374   21086563.4284
 96  3 25  4 51  0.0000000  0  8G 6G16G20G21G22G23G26G17
 -21467858.84444 -16728188.39844  20311009.7034   20311008.8704
    693519.96244    540416.73144  23789366.8004   23789367.2924
   7330749.17744   5712272.49644  23881688.5294   23881688.2204
   -196103.52244   -152807.50244  25053691.9864   25053690.8684
  -5001015.25244  -3896893.15344  23579868.6254   23579869.1574
 -17345680.61544 -13516106.34444  21679948.9234   21679948.5274
  -8530113.17344  -6646837.75944  22387007.7414   22387007.1514
 -22628991.28644 -17632961.25644  21080604.3944   21080604.0124
 96  3 25  4 51 30.0000000  0  8G 6G16G20G21G22G23G26G17
 -21446041.37444 -16711187.77944  20315161.6744   20315160.7254
    792674.46644    617679.98644  23808234.9694   23808235.1544
   7434613.88144   5793206.02644  23901453.0564   23901453.5654
   -293961.69244   -229060.58844  25035070.1004   25035065.8964
  -5036379.28944  -3924449.55344  23573139.2304   23573139.2124
 -17412547.71744 -13568210.56744  21667224.4794   21667224.0784
  -8567807.99544  -6676210.32644  22379834.9064   22379833.7734
 -22660120.00744 -17657217.39644  21074680.9774   21074680.4024
 96  3 25  4 52  0.0000000  0  8G 6G16G20G21G22G23G26G17
 -21423731.05644 -16693803.12644  20319406.8784   20319406.1674
    891940.98744    695030.52844  23827124.5994   23827126.0374
   7538502.33244   5874158.05744  23921222.0334   23921222.0844
   -391733.18944   -305246.13844  25016465.1534   25016462.9994
  -5071235.87044  -3951610.52444  23566507.0674   23566504.8314
 -17479058.49044 -13620037.12344  21654567.8364   21654567.3624
  -8605013.73844  -6705201.79944  22372754.7284   22372755.0404
 -22691075.53344 -17681338.58044  21068790.2584   21068789.9874
 96  3 25  4 52 30.0000000  0  8G 6G16G20G21G22G23G26G17
 -21400959.98144 -16676059.44144  20323740.0754   20323739.1874
    991304.40844    772456.57044  23846034.1124   23846034.5264
   7642420.55144   5955133.29444  23940997.6624   23940997.2004
   -489423.48844   -381368.40144  24997875.1574   24997873.7114
  -5105566.53044  -3978361.67344  23559974.7254   23559974.7594
 -17545207.84244 -13671582.05444  21641980.0184   21641979.6444
  -8641730.93944  -6733812.58244  22365768.4464   22365767.4924
 -22721854.57944 -17705322.24644  21062933.0094   21062932.6054
 96  3 25  4 53  0.0000000  0  8G 6G16G20G21G22G23G26G17
 -21377745.03544 -16657969.87844  20328157.7844   20328157.0814
   1090764.61644    849958.02844  23864959.4314   23864960.0444
   7746350.83144   6036117.92044  23960774.2564   23960774.1734
   -587028.82044   -457424.44544  24979300.9314   24979301.0044
  -5139382.49944  -4004711.77144  23553539.4744   23553538.7064
 -17611001.32044 -13722849.67944  21629459.7504   21629459.2874
  -8677969.73444  -6762050.59144  22358872.0974   22358871.0144
 -22752459.42144 -17729170.17344  21057109.1294   21057108.8104
 96  3 25  4 53 30.0000000  0  8G 6G16G20G21G22G23G26G17
 -21354083.73044 -16639532.50444  20332660.5034   20332659.6234
   1190332.80344    927543.61444  23883907.1454   23883907.6234
   7850290.48044   6117109.86444  23980553.7454   23980554.1854
   -684552.16444   -533416.61444  24960741.4254   24960741.5784
  -5172710.79244  -4030681.84544  23547197.2994   23547195.8054
 -17676427.72444 -13773831.27144  21617009.1914   21617009.2784
  -8713720.21844  -6789908.08744  22352068.9464   22352067.5264
 -22782885.41544 -17752878.73544  21051319.2174   21051318.7734
 96  3 25  4 54  0.0000000  0  8G 6G16G20G21G22G23G26G17
 -21329964.44044 -16620738.26144  20337250.1754   20337249.1164
   1290013.57144   1005216.94944  23902875.7694   23902876.9604
   7954253.01544   6198119.61844  24000336.9594   24000336.5024
   -781969.57244   -609326.21944  24942201.5954   24942206.5134
  -5205558.72044  -4056277.62444  23540946.1994   23540945.1414
 -17741470.78944 -13824514.16044  21604631.9364   21604632.1064
  -8748983.10844  -6817385.65244  22345359.1704   22345357.7454
 -22813135.10944 -17776449.91844  21045562.7204   21045562.3814
 96  3 25  4 54 30.0000000  0  8G 6G16G20G21G22G23G26G17
 -21305380.38444 -16601581.86044  20341928.3254   20341927.5734
   1389794.01444   1082967.95244  23921862.5124   23921863.2934
   8058220.25744   6279133.07144  24020121.4854   24020121.9624
   -879260.77444   -685137.44544  24923687.3254   24923694.0244
  -5237934.78544  -4081505.69644  23534785.2084   23534785.7544
 -17806144.87944 -13874909.53544  21592324.5724   21592324.5674
  -8783763.01944  -6844486.86344  22338740.3134   22338739.9954
 -22843211.76444 -17799886.26944  21039839.4734   21039839.0924
 96  3 25  4 55  0.0000000  0  8G 6G16G20G21G22G23G26G17
 -21280301.26144 -16582039.69444  20346700.7954   20346699.8714
   1489689.02144   1160808.19644  23940872.5814   23940871.9364
   8162184.03344   6360143.79544  24039903.9104   24039904.6014
   -976415.42044   -760842.32344  24905198.6454   24905203.9224
  -5269834.10944  -4106362.32344  23528714.7744   23528714.2044
 -17870449.41344 -13925016.94644  21580088.0644   21580088.2744
  -8818047.37844  -6871201.92844  22332216.4224   22332215.8474
 -22873103.73344 -17823178.70644  21034151.1104   21034150.8344
 96  3 25  4 55 30.0000000  0  8G 6G16G20G21G22G23G26G17
 -21254720.33644 -16562106.51144  20351568.8364   20351567.8954
   1589673.47844   1238718.19244  23959899.2584   23959899.0864
   8266136.67844   6441145.86344  24059686.6734   24059688.6774
  -1073444.86444   -836449.59244  24886731.9744   24886741.1584
  -5301237.78244  -4130832.72944  23522738.0554   23522737.8074
 -17934382.84244 -13974835.18744  21567922.1464   21567922.4844
  -8851831.71544  -6897527.37044  22325787.3704   22325786.4504
 -22902810.32844 -17846326.69244  21028498.1984   21028498.1634
 96  3 25  4 56  0.0000000  0  8G 6G16G20G21G22G23G26G17
 -21228643.11444 -16541786.60744  20356530.9934   20356530.3754
   1689734.19944   1316687.57044  23978939.6094   23978939.0824
   8370059.80044   6522124.92344  24079461.7174   24079463.1024
  -1170361.11844   -911968.61444  24868289.7694   24868295.9324
  -5332139.09644  -4154911.69144  23516858.1494   23516856.1294
 -17997948.29944 -14024366.69044  21555825.8094   21555826.0094
  -8885121.73344  -6923467.62544  22319452.5624   22319451.5074
 -22932330.93544 -17869329.75244  21022880.3244   21022880.2734
 96  3 25  4 56 30.0000000  0  8G 6G16G20G21G22G23G26G17
 -21202053.63344 -16521067.53944  20361590.9154   20361590.0714
   1789893.73744   1394733.95344  23997999.9344   23997997.4514
   8473961.34644   6603087.13744  24099233.7464   24099235.5254
  -1267158.85644   -987395.30944  24849872.0154   24849869.4924
  -5362514.84144  -4178581.10944  23511077.7774   23511076.2894
 -18061135.44544 -14073603.41244  21543801.6064   21543801.8784
  -8917884.91644  -6948997.36444  22313217.4184   22313216.4704
 -22961628.79244 -17892159.24244  21017305.1304   21017305.1854
 96  3 25  4 57  0.0000000  0  8G 6G16G20G21G22G23G26G17
 -21174960.67344 -16499956.14644  20366746.3904   20366745.5714
   1890147.54344   1472853.83344  24017077.5414   24017077.1124
   8577837.13044   6684029.32244  24119000.6014   24119002.5204
  -1363854.99944  -1062742.87344  24831473.0864   24831473.1034
  -5392380.51444  -4201853.10744  23505394.9134   23505393.6784
 -18123940.99644 -14122542.78344  21531850.3124   21531850.0314
  -8950136.06244  -6974128.11144  22307080.3864   22307079.4194
 -22990721.19844 -17914828.63844  21011769.2914   21011768.9914
 96  3 25  4 57 30.0000000  0  8G 6G16G20G21G22G23G26G17
 -21147386.42144 -16478469.72644  20371993.6584   20371992.6364
   1990487.52644   1551040.81344  24036171.0344   24036172.7584
   8681686.06044   6764950.55044  24138763.9924   24138763.4734
  -1460454.20344  -1138014.91944  24813090.8934   24813086.0034
  -5421756.72944  -4224743.69644  23499804.2604   23499805.0884
 -18186364.33644 -14171184.32744  21519971.3904   21519971.3554
  -8981889.67744  -6998871.16244  22301037.7574   22301037.2644
 -23019618.62744 -17937346.09844  21006270.2404   21006269.9134
 96  3 25  4 58  0.0000000  0  8G 6G16G20G21G22G23G26G17
 -21119326.99744 -16456605.24644  20377333.1134   20377332.3124
   2090946.23144   1629320.32944  24055287.8324   24055287.9054
   8785533.30944   6845870.48044  24158525.3694   24158526.6984
  -1556932.96744  -1213193.11444  24794732.6364
  -5450637.24444  -4247249.04944  23494308.7794   23494308.4854
 -18248396.18644 -14219520.81544  21508167.1354   21508167.2784
  -9013134.94444  -7023218.10444  22295092.1504   22295091.0544
 -23048301.74144 -17959696.55944  21000812.0984   21000811.7474
 96  3 25  4 58 30.0000000  0  8G 6G16G20G21G22G23G26G17
 -21090794.95344 -16434372.49244  20382762.5594   20382761.9464
   2191505.82344   1707678.46644  24074424.1284   24074425.9574
   8889369.60044   6926781.87144  24178284.0784   24178285.7694
  -1653283.83044                  24776397.7674
  -5479031.78144  -4269373.38744  23488905.2874   23488905.9134
 -18310050.64644 -14267563.23744  21496435.0144   21496434.7644
  -9043876.39644  -7047172.47244  22289241.9004   22289240.6604
 -23076789.08144 -17981894.47644  20995391.2174   20995390.7704
 96  3 25  4 59  0.0000000  0  8G 6G16G20G21G22G23G26G17
 -21061803.49744 -16411781.75644  20388279.4704   20388278.5714
   2292157.46344   1786108.32844  24093577.7584   24093580.0294
   8993186.33644   7007678.02844  24198039.3404   24198039.6214
  -1749500.91744  -1363246.05444  24758087.6504
  -5506946.71244  -4291125.34744  23483593.3324   23483594.8824
 -18371316.92744 -14315303.17644  21484776.3134   21484776.5584
  -9074122.86644  -7070741.12244  22283486.5644   22283486.0444
 -23105091.61544 -18003948.38344  20990005.5534   20990005.0514
 96  3 25  4 59 30.0000000  0  8G 6G16G20G21G22G23G26G17
 -21032326.41944 -16388812.61344  20393888.8134   20393888.1044
   2392930.37644   1864632.67344  24112753.3174   24112755.3434
   9097005.89844   7088576.40344  24217795.9994   24217796.9704
  -1845560.38244  -1438097.48144  24739806.8964   24739805.1634
  -5534343.81344  -4312473.78044  23478380.2894   23478381.3754
 -18432166.54544 -14362718.44944  21473196.9094   21473196.9344
  -9103835.00744  -7093893.42044  22277832.5194   22277831.5684
 -23133175.66044 -18025832.03844  20984661.1194   20984660.8614
 96  3 25  5  0  0.0000000  0  8G 6G16G20G21G22G23G26G17
 -21002351.37444 -16365455.44544  20399593.1794   20399592.2544
   2493808.88144   1943239.31744  24131949.5604   24131951.5734
   9200823.66044   7169473.32544  24237550.4864   24237551.6424
  -1941466.07644  -1512829.14344  24721555.5144   24721558.3644
  -5561209.03544  -4333407.73044  23473267.2604   23473267.8004
 -18492597.26444 -14409807.30944  21461697.4154   21461697.3774
  -9133000.80844  -7116620.01144  22272282.2294   22272280.7674
 -23161064.54244 -18047563.62044  20979353.8334   20979353.7774
 96  3 25  5  0 30.0000000  0  8G 6G16G20G21G22G23G26G17
 -20971890.84844 -16341719.97844  20405389.4594   20405388.5714
   2594764.97444   2021906.38144  24151161.0704   24151162.2324
   9304606.38244   7250342.96544  24257301.2564   24257299.7284
  -2037240.96544  -1587458.87244  24703330.8314   24703333.8984
  -5587559.07244  -4353940.21844  23468252.9514   23468253.5074
 -18552625.62344 -14456582.63844  21450274.2694   21450274.0854
  -9161639.96844  -7138936.22744  22266832.2524   22266830.8134
 -23188798.86644 -18069174.76844  20974076.1764   20974076.2594
 96  3 25  5  1  0.0000000  0  8G23G 6G16G20G21G22G26G17
 -18612246.84844 -14503040.72444  21438928.4744   21438928.4164
 -20940945.77644 -16317606.94244  20411278.0834   20411277.3294
   2695802.27244   2100636.70844  24170388.2514   24170388.6144
   9408349.17644   7331181.53244  24277042.1704   24277040.0434
  -2132902.17844  -1661999.95944  24685126.8664   24685127.7764
  -5613383.79344  -4374063.38544  23463338.9794   23463338.6754
  -9189770.30444  -7160855.97044  22261479.2364   22261478.3574
 -23216384.73644 -18090670.23744  20968826.8674   20968826.5924
 96  3 25  5  1 30.0000000  0  8G 6G16G20G21G22G23G26G17
 -20909509.05444 -16293110.80444  20417260.2174   20417259.2844
   2796900.06544   2179414.21444  24189627.0254   24189626.9904
   9512049.11744   7411986.68044  24296775.7424   24296774.0174
  -2228462.57044  -1736462.53644  24666943.1404   24666946.2854
  -5638671.11344  -4393767.79844  23458527.3994   23458526.2824
 -18671475.77044 -14549193.11544  21427657.6804   21427657.7574
  -9217391.54144  -7182378.99844  22256222.9084   22256221.9414
 -23243836.43644 -18112061.14944  20963603.0214   20963602.6284
 96  3 25  5  2  0.0000000  0  8G23G 6G16G20G21G22G26G17
 -18730310.63944 -14595038.45144  21416461.7114   21416461.9104
 -20877578.37344 -16268229.76644  20423336.5174   20423335.6944
   2898046.93844   2258229.97744  24208874.1804   24208873.6424
   9615708.65044   7492760.35444  24316501.8484   24316502.6144
  -2323901.40944  -1810830.37844  24648780.0624   24648785.8304
  -5663418.98244  -4413051.86444  23453818.3274   23453817.0084
  -9244508.49244  -7203509.04544  22251062.5754   22251062.1904
 -23271141.60944 -18133337.89644  20958406.9954   20958406.6034
 96  3 25  5  2 30.0000000  0  8G23G 6G16G20G21G22G26G17
 -18788752.26544 -14640577.36644  21405341.0014   21405340.9744
 -20845154.09644 -16242964.10244  20429506.5224   20429505.7934
   2999268.33644   2337103.78644  24228135.6574   24228135.1404
   9719316.56844   7573493.79444  24336217.9834   24336219.1204
  -2419210.69444  -1885097.30744  24630644.0094   24630648.2524
  -5687632.44644  -4431919.50244  23449209.8034   23449208.7094
  -9271121.92644  -7224246.77344  22245998.4714   22245998.0114
 -23298257.74344 -18154467.33544  20953247.0874   20953246.6674
 96  3 25  5  3  0.0000000  0  8G23G 6G16G20G21G22G26G17
 -18846823.71644 -14685827.83144  21394290.1094   21394290.0684
 -20812244.30144 -16217320.11644  20435769.3804   20435768.4074
   3100548.31644   2416023.22744  24247409.7264   24247408.4014
   9822862.25244   7654178.77044  24355921.9174   24355920.0554
  -2514404.36344  -1959274.10644  24612528.4114   24612531.1054
  -5711322.12444  -4450378.96644  23444701.9604   23444701.7624
  -9297236.66944  -7244595.90144  22241029.4334   22241028.5464
 -23325171.36944 -18175438.97944  20948125.3844   20948125.1274
 96  3 25  5  3 30.0000000  0  8G23G 6G16G20G21G22G26G17
 -18904523.31244 -14730788.54144  21383310.2504   21383310.1644
 -20778840.46644 -16191291.16244  20442125.5644   20442124.8224
   3201896.20144   2494995.61844  24266695.4654   24266693.9404
   9926357.99944   7734824.82244  24375616.8534   24375616.6394
  -2609460.46144  -2033343.73944  24594437.0744   24594446.5074
  -5734494.75544  -4468435.56244  23440292.8014   23440292.7224
  -9322833.82944  -7264541.73044  22236158.1404   22236157.0404
 -23351858.48044 -18196234.11644  20943047.1624   20943046.8344
 96  3 25  5  4  0.0000000  0  8G23G 6G16G20G21G22G26G17
 -18961870.05244 -14775474.29344  21372397.8204   21372397.4954
 -20744955.60844 -16164887.38544  20448573.7224   20448572.6464
   3303325.43344   2574031.38744  24285996.1674   24285992.0694
  10029779.85044   7815413.28244  24395296.7394   24395297.2294
  -2704376.93544  -2107304.59744  24576376.4784   24576381.6264
  -5757177.05244  -4486110.08044  23435976.1664   23435976.6564
  -9347932.35044  -7284099.01044  22231381.9674   22231381.0964
 -23378312.80044 -18216847.85944  20938013.0224   20938012.8144
 96  3 25  5  4 30.0000000  0  8G23G 6G16G20G21G22G26G17
 -19018855.23744 -14819878.31544  21361553.7524   21361553.6854
 -20710567.72344 -16138091.63744  20455117.3984   20455116.6874
   3404850.02444   2653141.44744  24305316.3834   24305315.2084
  10133132.50444   7895947.81744  24414963.9104   24414965.3554
  -2799154.34744  -2181157.02844  24558342.4584   24558345.4914
  -5779349.16144  -4503387.04344  23431756.7404   23431757.0584
  -9372510.43244  -7303250.73844  22226704.8654   22226704.1454
 -23404529.78444 -18237276.66444  20933024.0684   20933023.6384
 96  3 25  5  5  0.0000000  0  8G23G 6G16G20G21G22G26G17
 -19075466.28844 -14863990.80944  21350780.8624   21350780.4934
 -20675667.55044 -16110896.70144  20461758.6554   20461757.7924
   3506444.95644   2732306.35944  24324649.6994   24324649.4474
  10236433.07144   7976441.78444  24434621.0804   24434621.6534
  -2893787.75744  -2254897.33344  24540334.9694   24540335.2944
  -5801001.91744  -4520259.32544  23427637.4824   23427636.4564
  -9396551.39244  -7321983.93544  22222130.3714   22222128.7594
 -23430520.33944 -18257529.03244  20928078.1044   20928077.8074
 96  3 25  5  5 30.0000000  0  8G22G 6G16G20G21G23G26G17
  -5822156.98844  -4536743.79944  23423611.3824   23423611.3264
 -20640271.32244 -16083315.23344  20468494.6114   20468493.8684
   3608097.21344   2811515.95044  24343992.2204   24343991.7534
  10339658.75544   8056877.37344  24454264.2074   24454265.7154
  -2988273.78844  -2328522.77344  24522355.8554   24522353.1574
 -19131690.36444 -14907801.76244  21340082.1014   21340081.6394
  -9420053.87444  -7340297.55244  22217658.1104   22217656.5294
 -23456304.16444 -18277620.31644  20923171.8004   20923171.5624
 96  3 25  5  6  0.0000000  0  8G22G 6G16G20G21G23G26G17
  -5842801.40144  -4552830.35844  23419682.8084   23419681.3394
 -20604362.81644 -16055334.58544  20475327.8954   20475327.0154
   3709792.60644   2890759.11044  24363345.3024   24363343.3664
  10442810.69444   8137255.49244  24473894.5204   24473894.8184
  -3082611.91344  -2402033.01144  24504404.4294   24504402.3304
 -19187513.42244 -14951300.23444  21329459.1934   21329458.9364
  -9442995.68144  -7358174.27644  22213291.7024   22213290.8634
 -23481886.25644 -18297554.40344  20918303.7284   20918303.3334
 96  3 25  5  6 30.0000000  0  8G22G 6G16G20G21G23G26G17
  -5862937.22244  -4568520.59544  23415851.1374   23415851.3204
 -20567948.92744 -16026960.13044  20482257.0814   20482256.3534
   3811519.87944   2970027.11944  24382703.0254   24382702.6594
  10545895.18244   8217581.07244  24493508.3684   24493507.6284
  -3176811.13944  -2475435.00644  24486478.8344   24486477.8924
 -19242918.49544 -14994473.00244  21318916.0314   21318915.6374
  -9465356.73744  -7375598.45544  22209036.7874   22209035.5394
 -23507289.56744 -18317349.18244  20913469.6124   20913469.1924
 96  3 25  5  7  0.0000000  0  8G23G 6G16G20G21G22G26G17
 -19297897.37544 -15037313.66744  21308453.6544   21308453.6754
 -20531032.66744 -15998194.22044  20489282.1964   20489281.3514
   3913295.35644   3049332.68544  24402070.3744   24402068.0044
  10648929.18644   8297867.35044  24513116.7474
  -3270846.52844  -2548709.32944  24468584.6314   24468582.1154
  -5882570.15844  -4583818.99044  23412114.6644   23412114.7904
  -9487130.51944  -7392565.01844  22204893.9004   22204893.3214
 -23532510.51844 -18337001.86644  20908670.2754   20908669.8944
 96  3 25  5  7 30.0000000  0  8G23G 6G16G20G21G22G26G17
 -19352466.91044 -15079835.36544  21298069.5024   21298069.1744
 -20493620.64244 -15969041.99844  20496401.2914   20496400.5394
   4015132.85144   3128686.57544  24421449.2654   24421448.0904
  10751907.77044   8378110.38044  24532712.8854   24532714.2284
  -3364711.44544  -2621850.83644  24450723.5024   24450721.5694
  -5901690.82944  -4598718.22844  23408475.8544   23408476.3084
  -9508331.65244  -7409085.37444  22200859.3164   22200858.0174
 -23557558.73644 -18356519.94944  20903903.7284   20903903.2804
 96  3 25  5  8  0.0000000  0  8G23G 6G16G20G21G22G26G17
 -19406643.33944 -15122050.74744  21287759.8934   21287759.6384
 -20455710.42744 -15939501.58044  20503615.0904   20503614.3644
   4117038.57844   3208093.67844  24440840.5164   24440840.5334
  10854839.30144                  24552300.1404
  -3458410.78844  -2694863.25244  24432892.1914   24432890.4764
  -5920287.18244  -4613208.91044  23404937.2504   23404936.9524
  -9528973.90744  -7425170.22944  22196930.7514   22196929.5964
 -23582438.73944 -18375906.95344  20899169.2264   20899168.7644
 96  3 25  5  8 30.0000000  0  8G23G 6G16G20G21G22G26G17
 -19460423.71344 -15163957.51644  21277525.5134   21277525.2294
 -20417310.55944 -15909579.61144  20510922.8364   20510921.9934
   4219029.73344   3287567.30044  24460248.9214   24460248.1734
  10957728.57444                  24571879.6794
  -3551932.15144  -2767737.03144  24415093.9754   24415092.3894
  -5938355.88844  -4627288.41644  23401498.6904   23401498.4644
  -9549067.39044  -7440827.47644  22193107.3324   22193106.2244
 -23607140.47344 -18395155.05144  20894468.8984   20894468.1934
 96  3 25  5  9  0.0000000  0  8G23G 6G16G20G21G22G26G17
 -19513827.24444 -15205570.64144  21267363.5824   21267363.1624
 -20378425.35644 -15879279.46444  20518322.3434   20518321.3734
   4321077.99144   3367085.41744  24479668.3474   24479665.4114
  11060560.70544                  24591447.2554
  -3645289.84544  -2840483.24844  24397327.1274   24397329.4214
  -5955905.36144  -4640963.33144  23398158.7804   23398158.8864
  -9568641.62144  -7456080.10344  22189382.6234   22189381.8164
 -23631649.12044 -18414252.68844  20889804.7404   20889804.4734
 96  3 25  5  9 30.0000000  0  8G23G 6G16G20G21G22G26G17
 -19566836.47844 -15246876.52144  21257276.2714   21257275.9474
 -20339057.32144 -15848603.08044  20525813.7514   20525812.9844
   4423170.29844   3446637.88744  24499096.4154   24499096.2154
  11163317.22444                  24611002.8764
  -3738506.38844  -2913119.52244  24379587.9474   24379590.8614
  -5972931.17244  -4654230.17744  23394919.7664   23394919.2664
  -9587696.03844  -7470927.67644  22185756.6874   22185755.3604
 -23655966.33644 -18433201.15844  20885177.2664   20885177.0724
 96  3 25  5 10  0.0000000  0  8G23G 6G16G20G21G22G26G17
 -19619431.86544 -15287859.92644  21247267.5454   21247267.2034
 -20299217.39244 -15817558.99044  20533395.0244   20533394.1974
   4525299.19844   3526218.80544  24518530.6794   24518531.3474
  11265984.67244                  24630539.9544
  -3831591.91344  -2985653.60744  24361875.0224   24361877.5774
  -5989449.38444  -4667101.54244  23391776.4904   23391775.2344
  -9606223.47744  -7485364.62244  22182231.4114   22182230.0144
 -23680089.58244 -18451998.47844  20880586.6614   20880586.1754
 96  3 25  5 10 30.0000000  0  8G23G 6G16G20G21G22G26G17
 -19671611.99744 -15328519.75244  21237338.0954   21237337.9014
 -20258919.62144 -15786158.13944  20541063.6154   20541062.7574
   4627452.31044   3605818.69544  24537968.5784   24537969.0884
  11368545.27944                  24650056.8054
  -3924551.00944  -3058089.21444  24344184.9064   24344187.0344
  -6005465.79044  -4679581.85144  23388728.5804   23388728.0294
  -9624218.78244  -7499386.92244  22178806.3964   22178805.4494
 -23704016.70344 -18470642.97144  20876033.7404   20876033.3964
 96  3 25  5 11  0.0000000  0  8G23G 6G16G20G21G22G26G17
 -19723371.72544 -15368851.99044  21227488.0954   21227487.8674
 -20218164.24844 -15754400.71744  20548818.8734   20548818.2354
   4729630.28844   3685437.91744  24557413.1324   24557413.6754
  11470987.46144                  24669548.5654
  -4017381.17944  -3130424.38144  24326521.0464   24326524.6334
  -6020965.56644  -4691659.60244  23385778.6004   23385779.2904
  -9641678.11244  -7512991.57244  22175484.0224   22175482.2164
 -23727755.87344 -18489141.01044  20871515.9544   20871515.9814
 96  3 25  5 11 30.0000000  0  8G23G 6G16G20G21G22G26G17
 -19774707.45644 -15408853.84244  21217719.2844   21217719.0904
 -20176965.96244 -15722298.16444  20556659.0274   20556658.2604
   4831845.71644   3765086.27544  24576864.6434   24576863.6354
  11573306.38144   9018161.30044  24689019.8014
  -4110069.85444  -3202649.29344  24308883.8524   24308884.8874
  -6035935.45544  -4703324.45644  23382930.7624   23382929.7494
  -9658584.44944  -7526165.33244  22172266.2304   22172265.2834
 -23751326.32544 -18507507.58144  20867030.6054   20867030.5654
 96  3 25  5 12  0.0000000  0  8G23G 6G16G20G21G22G26G17
 -19825635.59744 -15448538.09144  21208027.9854   21208027.8944
 -20135316.50744 -15689844.05444  20564584.5244   20564583.9064
   4934093.16044   3844759.65544  24596321.7274   24596321.2214
  11675515.72444                  24708468.9834
  -4202597.10044  -3274748.42944  24291276.5464   24291278.6874
  -6050369.38744  -4714571.68844  23380183.9024   23380184.1444
  -9674934.65944  -7538905.72944  22169155.3024   22169154.2134
 -23774711.99544 -18525730.17344  20862580.5974   20862580.3554
 96  3 25  5 12 30.0000000  0  8G23G 6G16G20G21G22G26G17
 -19876156.29744 -15487904.85244  21198414.4534   21198414.1414
 -20093189.73844 -15657018.01244  20572601.0374   20572600.2714
   5036371.71244   3924457.25544  24615784.4784   24615783.8334
  11777635.42944                  24727901.4944
  -4294955.55444  -3346715.99544  24273702.4134   24273702.7694
  -6064255.62544  -4725392.14244  23377541.9384   23377540.8724
  -9690723.28944  -7551208.53444  22166150.9354   22166150.0974
 -23797904.26044 -18543802.06044  20858167.1654   20858166.7894
 96  3 25  5 13  0.0000000  0  7G23G 6G16G21G22G26G17
 -19926264.30444 -15526950.03844  21188879.1284   21188878.8134
 -20050572.70644 -15623809.94444  20580710.3694   20580709.5604
   5138680.24344   4004178.25444  24635252.6494   24635255.7614
  -4387149.53144  -3418555.41144  24256157.2904   24256158.4294
  -6077600.21544  -4735790.52944  23375003.0214   23375001.6554
  -9705946.26944  -7563070.58744  22163254.4884   22163253.0944
 -23820904.08744 -18561723.99844  20853790.5884   20853790.4754
 96  3 25  5 13 30.0000000  0  8G23G 6G16G20G21G22G26G17
 -19975976.76844 -15565687.00644  21179419.5694   21179419.5494
 -20007468.59344 -15590222.33544  20588913.1504   20588912.2304
   5240993.61744   4083902.99344  24654723.3334   24654721.0784
        -0.64254                  24766723.5054
  -4479193.51444  -3490277.96144  24238642.6614   24238642.8494
  -6090431.57444  -4745789.01044  23372560.0274   23372559.8164
  -9720605.35644  -7574493.23244  22160464.4614   22160463.5774
 -23843712.86144 -18579497.06144  20849450.0754   20849449.9304
 96  3 25  5 14  0.0000000  0  7G23G16G21G22G26G 6G17
 -20025286.72844 -15604110.33444  21170035.8994   21170035.7874
   5343318.98144   4163637.05444  24674194.9424   24674194.3734
  -4571080.11644  -3561877.87944  24221157.7254   24221157.5584
  -6102766.31244  -4755400.48544  23370212.4414   23370213.3434
  -9734703.88444  -7585479.08344  22157781.9044   22157780.9484
 -19963848.56744 -15556232.71544  20597213.3614   20597212.7924
 -23866318.42644 -18597111.77744  20845148.6054   20845148.3004
 96  3 25  5 14 30.0000000  0  7G23G 6G16G21G22G26G17
 -20074199.59044 -15642224.23644  21160728.1404   21160728.1264
 -19919728.99444 -15521853.83844  20605609.3894   20605608.7714
   5445670.68344   4243391.62944  24693670.8664
  -4662828.94244  -3633370.44244  24203698.6224   24203698.2984
  -6114622.99044  -4764639.46044  23367955.4894   23367957.1444
  -9748253.45344  -7596037.17144  22155203.5524   22155202.3674
 -23888746.08244 -18614587.86944  20840880.7264   20840880.3434
 96  3 25  5 15  0.0000000  0  7G23G16G21G 6G22G26G17
 -20122711.46944 -15680025.68244  21151496.6994   21151496.3544
   5548076.18144   4323188.08744  24713159.4734
  -4754412.67644  -3704734.37244  24186270.1814   24186271.2374
 -19875098.76844 -15487077.05044  20614102.4264   20614101.6084
  -6125981.79244  -4773490.50844  23365794.0894   23365794.4214
  -9761241.47644  -7606157.69544  22152731.6234   22152730.8234
 -23910977.22644 -18631910.83244  20836650.3754   20836649.9964
 96  3 25  5 15 30.0000000  0  7G23G 6G16G21G22G26G17
 -20170870.48344 -15717552.17144  21142332.3834   21142331.9994
 -19830004.91644 -15451938.99744  20622683.3154   20622682.4054
   5650486.69844   4402988.60244  24732647.5054   24732644.8354
  -4845867.56244  -3775997.89244  24168865.9604   24168864.9764
  -6136881.07644  -4781983.46344  23363720.6814   23363721.2414
  -9773721.71644  -7615882.54444  22150356.9934   22150355.8454
 -23933056.54044 -18649115.48244  20832448.6724   20832448.3874
 96  3 25  5 16  0.0000000  0  8G23G 6G16G20G21G22G26G17
 -20218621.67344 -15754760.87444  21133245.4994   21133245.0424
 -19784395.76844 -15416399.41144  20631362.7684   20631361.8504
   5752964.21244   4482841.20444  24752147.0544   24752145.7004
        -0.32354                  24863437.7344
  -4937132.55544  -3847113.45244  24151498.4434   24151498.2824
  -6147264.08144  -4790074.10944  23361745.6154   23361746.4534
  -9785647.48444  -7625175.33644  22148087.7274   22148086.6734
 -23954929.20444 -18666159.10644  20828286.4824   20828285.9354
 96  3 25  5 16 30.0000000  0  7G23G16G21G 6G22G26G17
 -20265944.34544 -15791635.66744  21124240.3054   21124239.8714
   5855521.13144   4562755.67544  24771663.1404
  -5028182.46844  -3918061.42244  24134169.4994   24134172.7054
 -19738259.63444 -15380449.18944  20640141.8774   20640141.2044
  -6157086.18044  -4797727.68344  23359876.4194   23359875.6194
  -9796987.36344  -7634011.59944  22145929.5584   22145928.1244
 -23976565.11644 -18683018.25244  20824169.2784   20824168.7614
 96  3 25  5 17  0.0000000  0  7G23G26G16G21G 6G22G17
 -20312889.13944 -15828216.00744  21115306.6794   21115306.3504
  -9807796.53044  -7642434.30844  22143872.0154   22143871.5464
   5958073.51544   4642666.60444  24791175.9834   24791175.1114
  -5119061.44244  -3988876.15544  24116876.6624   24116878.8424
 -19691647.78344 -15344128.27944  20649011.8164   20649011.1084
  -6166392.51844  -4804979.39844  23358105.9694   23358106.0464
 -23998010.65944 -18699729.05844  20820088.2294   20820087.7394
 96  3 25  5 17 30.0000000  0  7G23G16G21G22G 6G26G17
 -20359434.19944 -15864484.86844  21106449.7174   21106449.5574
   6060625.17144                  24810690.9764
  -5209762.39244  -4059552.16444  24099617.2194   24099617.9334
  -6175181.05444  -4811827.61744  23356433.2404   23356433.4544
 -19644564.74144 -15307440.20444  20657971.2744   20657970.2904
  -9818062.92644  -7650434.09444  22141918.2284   22141917.3384
 -24019259.83744 -18716286.85544  20816044.6794   20816044.3794
 96  3 25  5 18  0.0000000  0  7G23G26G16G21G22G 6G17
 -20405555.58744 -15900423.59544  21097673.1914   21097672.9214
  -9827761.17844  -7657991.15044  22140073.4244   22140072.0544
   6163201.53344   4802506.74244  24830211.9694
  -5300249.45444  -4130061.55144  24082398.6804   24082398.2374
  -6183433.74044  -4818258.27544  23354862.4664   23354862.1584
 -19596996.02244 -15270373.68144  20667023.4994   20667022.6134
 -24040292.65344 -18732676.06744  20812042.3614   20812041.9244
 96  3 25  5 18 30.0000000  0  7G23G16G21G22G 6G26G17
 -20451253.00944 -15936031.95644  21088977.0444   21088976.6814
   6265788.24844                  24849734.5744
  -5390541.75444  -4200419.18244  24065217.9394   24065216.2594
  -6191153.42044  -4824273.62644  23353392.7284   23353392.7974
 -19548964.19944 -15232946.29944  20676163.6024   20676162.9054
  -9836897.36144  -7665110.22844  22138334.8364   22138333.9014
 -24061133.91144 -18748916.00844  20808076.3454   20808075.9864
 96  3 25  5 19  0.0000000  0  7G23G26G 6G16G21G22G17
 -20496499.12844 -15971288.65744  21080366.9764   21080366.7734
  -9845453.61044  -7671777.42844  22136706.7184   22136705.5424
 -19500447.91344 -15195141.40944  20685396.1924   20685395.5894
   6368411.68344   4962410.64244  24869263.6064   24869264.6134
  -5480616.81644  -4270607.52144  24048077.7344   24048076.3684
  -6198331.98444  -4829867.32844  23352026.7684   23352026.4854
 -24081768.64644 -18764995.02244  20804149.8234   20804149.4894
 96  3 25  5 19 30.0000000  0  7G23G26G 6G16G21G22G17
 -20541320.38044 -16006214.28944  21071837.9204   21071837.5794
  -9853445.34844  -7678004.72944  22135186.3194   22135184.6144
 -19451484.39644 -15156988.03344  20694713.5034   20694712.6784
   6471036.75144   5042378.26944  24888792.8784   24888789.8034
  -5570511.10544  -4340654.96644  24030973.0314   24030972.0144
  -6205009.54244  -4835070.63344  23350755.7484   23350756.4564
 -24102237.41644 -18780944.71344  20800254.9534   20800254.3834
 96  3 25  5 20  0.0000000  0  8G23G26G 6G16G28G21G22G17
 -20585729.62844 -16040818.88544  21063387.0524   21063386.8094
  -9860863.58144  -7683785.16844  22133774.0284   22133772.6724
 -19402080.02644 -15118491.13044  20704114.7614   20704113.9314
   6573636.48444                  24908316.1104
        -0.48914        -0.12114  25347826.505    25347830.309
  -5660242.66444  -4410575.63844  24013896.6124   24013896.0944
  -6211184.67444  -4839882.42344  23349582.0304   23349582.4084
 -24122551.11644 -18796773.56844  20796389.1444   20796388.5934
 96  3 25  5 20 30.0000000  0  8G23G26G 6G16G28G21G22G17
 -20629713.76844 -16075092.22444  21055016.9974   21055016.7114
  -9867668.73144  -7689087.87644  22132479.0284   22132478.4444
 -19352194.51744 -15079619.31644  20713607.7704   20713607.1614
   6676224.53044                  24927836.0034
   -106346.007 4    -82866.722 4  25327589.762    25327594.000
  -5749809.27644  -4480367.78644  23996851.4724   23996851.5494
  -6216823.67444  -4844276.44944  23348509.2224   23348508.3074
 -24142682.45944 -18812460.32544  20792558.2184   20792557.9504
 96  3 25  5 21  0.0000000  0  8G23G26G 6G16G28G21G22G17
 -20673283.05644 -16109042.29744  21046726.1154   21046725.8954
  -9873845.92044  -7693901.24944  22131303.8604   22131302.8344
 -19301799.78244 -15040350.69844  20723197.4124   20723196.7474
   6778796.67144   5282191.29044  24947355.8614   24947354.3514
   -212689.519 4   -165731.755 4  25307353.036    25307357.557
  -5839192.31244  -4550016.88144  23979841.3994   23979842.9454
  -6221928.15644  -4848253.99644  23347537.6384   23347535.4124
 -24162604.08444 -18827983.66844  20788767.0204   20788766.7474
 96  3 25  5 21 30.0000000  0  8G23G26G 6G16G28G21G22G17
 -20716498.39044 -16142716.56444  21038502.2724   21038502.2804
  -9879441.21144  -7698261.20444  22130238.6494   22130237.8594
 -19250952.06444 -15000729.11044  20732873.4534   20732872.7804
   6881290.65744   5362056.71044  24966860.1724
   -319083.281 4   -248635.982 4  25287107.011    25287112.106
  -5928442.45344  -4619562.39844  23962859.0884   23962858.8544
  -6226547.03844  -4851853.11844  23346657.9124   23346656.8884
 -24182379.55144 -18843393.12544  20785004.0424   20785003.6724
 96  3 25  5 22  0.0000000  0  7G23G26G28G21G22G 6G17
 -20759372.18644 -16176124.70244  21030343.6974   21030343.3764
  -9884476.33444  -7702184.65844  22129280.9084   22129279.8834
   -425522.451 4   -331575.599 4  25266852.992    25266859.244
  -6017556.36944  -4689001.78344  23945902.2534   23945902.5424
  -6230685.42444  -4855077.83744  23345871.1044   23345870.1164
 -19199638.23044 -14960744.31144  20742638.1204   20742637.4154
 -24201998.43844 -18858680.56544  20781270.7054   20781270.2914
 96  3 25  5 22 30.0000000  0  7G23G26G28G21G22G 6G17
 -20801889.60544 -16209255.14244  21022252.9004   21022253.1124
  -9888969.50644  -7705685.81344  22128425.9774   22128424.4164
   -531985.361 4   -414533.719 4  25246593.660    25246600.633
  -6106517.52744  -4758322.15144  23928972.7204   23928971.1404
  -6234344.27344  -4857928.91244  23345175.4424   23345174.4754
 -19147833.30144 -14920376.84544  20752496.2974   20752495.6844
 -24221438.43344 -18873828.60844  20777571.4744   20777570.9694
 96  3 25  5 23  0.0000000  0  7G23G26G 6G28G21G22G17
 -20844029.92444 -16242091.73844  21014233.9194   21014233.6574
  -9892942.02844  -7708781.26844  22127669.7044   22127668.4794
 -19095554.09644 -14879639.80844  20762444.5394   20762443.8614
   -638467.999 4   -497507.208 4  25226330.179    25226335.781
  -6195306.59144  -4827508.42744  23912075.5994   23912077.6984
  -6237529.64844  -4860411.04244  23344569.0864   23344568.5154
 -24240699.77744 -18888837.44344  20773906.1194   20773905.6574
 96  3 25  5 23 30.0000000  0  8G23G26G 6G16G28G21G22G17
 -20885763.65144 -16274611.50944  21006292.1974   21006292.0724
  -9896382.22444  -7711461.92044  22127015.1554   22127014.0124
 -19042796.72944 -14838530.17844  20772484.2484   20772483.5454
        -0.20154        -0.12454  25044819.1434   25044821.9574
   -744951.481 4   -580481.343 4  25206068.113    25206072.433
  -6283919.82644  -4896557.65144  23895212.7734   23895214.9884
  -6240216.62944  -4862504.80344  23344057.2784   23344056.6654
 -24259769.13844 -18903696.67744  20770277.2704   20770277.0174
 96  3 25  5 24  0.0000000  0  7G23G28G21G22G 6G26G17
 -20927076.88044 -16306803.62044  20998430.3794   20998429.9764
   -851418.222 4   -663442.359 4  25185807.701    25185815.468
  -6372356.75444  -4965469.49944  23878385.0744   23878383.9524
  -6242402.19944  -4864207.83444  23343641.4704   23343642.0754
 -18989547.66344 -14797037.41144  20782616.7014   20782616.1304
  -9899278.37244  -7713718.65144  22126463.9924   22126462.9354
 -24278608.50044 -18918376.68844  20766692.3344   20766691.7624
 96  3 25  5 24 30.0000000  0  7G23G26G 6G28G21G22G17
 -20967947.21344 -16338650.61844  20990653.3264   20990653.3014
  -9901597.42444  -7715525.69244  22126022.2424   22126021.4134
 -18935798.32844 -14755154.81944  20792845.2644   20792844.6434
   -957855.377 4   -746380.350 4  25165552.052    25165561.924
  -6460593.17544  -5034225.17544  23861593.9214   23861593.8754
  -6244061.38044  -4865500.71044  23343324.9314   23343325.5584
 -24297206.53444 -18932868.65444  20763153.2714   20763152.6984
 96  3 25  5 25  0.0000000  0  8G26G 6G16G28G21G22G23G17
  -9903333.87244  -7716878.76144  22125692.0774   22125690.8404
 -18881580.44344 -14712907.12344  20803162.6094   20803161.7794
        -0.23654                  25103349.5484
  -1064292.950 4   -829318.752 4  25145296.948    25145301.608
  -6548638.20844  -5102831.66244  23844838.9714   23844840.9624
  -6245217.70444  -4866401.76644  23343105.1344   23343105.6964
 -21008394.15744 -16370167.70444  20982956.6474   20982956.3124
 -24315603.01944 -18947203.57344  20759652.7644   20759652.3044
 96  3 25  5 25 30.0000000  0  8G26G 6G16G28G21G22G23G17
  -9904445.65244  -7717745.06944  22125480.6344   22125479.6134
 -18826860.41644 -14670268.15144  20813575.5514   20813574.8474
    102530.91044                  25122850.0674
  -1170708.438 4   -912239.933 4  25125046.387    25125050.006
  -6636471.13344  -5171272.86444  23828124.4074   23828125.6874
  -6245856.17044  -4866899.28644  23342983.8894   23342984.0254
 -21048405.00544 -16401344.96944  20975342.6164   20975342.4764
 -24333776.44844 -18961364.67944  20756194.2684   20756193.9864
 96  3 25  5 26  0.0000000  0  7G26G28G21G22G 6G23G17
  -9904939.73944  -7718130.05944  22125386.7494   22125385.3604
  -1277098.615 4   -995141.344 4  25104801.526    25104805.014
  -6724061.97744  -5239525.43644  23811453.4864   23811457.5904
  -6245964.35544  -4866983.58944  23342963.0124   23342963.0944
 -18771625.50644 -14627227.96744  20824086.4314   20824085.9144
 -21087975.27044 -16432178.92744  20967812.8424   20967812.4774
 -24351725.60444 -18975351.03244  20752778.5334   20752778.2274
 96  3 25  5 26 30.0000000  0  7G26G28G21G22G 6G23G17
  -9904851.15544  -7718061.01644  22125403.7934   22125402.5554
  -1383478.721 4  -1078034.803 4  25084558.630    25084561.369
  -6811419.50644  -5307596.20644  23794830.8734   23794833.5984
  -6245540.89044  -4866653.62044  23343043.5124   23343044.2344
 -18715891.97744 -14583799.25144  20834691.8914   20834691.4814
 -21127117.59744 -16462679.42844  20960364.0914   20960363.9014
 -24369489.66544 -18989193.15444  20749398.1414   20749397.9134
 96  3 25  5 27  0.0000000  0  6G26G21G22G 6G23G17
  -9904189.58444  -7717545.49944  22125528.9534   22125527.3534
  -6898554.25944  -5375493.40844  23778251.8004   23778253.5424
  -6244584.92744  -4865908.73544  23343225.9604   23343225.5384
 -18659671.73444 -14539991.27644  20845390.3154   20845389.6794
 -21165834.55344 -16492848.47444  20952996.4564   20952996.1144
 -24387064.87444 -19002888.11844  20746053.4544   20746052.9974
 96  3 25  5 27 30.0000000  0  6G26G21G22G 6G23G17
  -9903017.24844  -7716631.98444  22125752.4814   22125751.0214
  -6985537.79244  -5443272.75844  23761700.5134   23761698.9884
  -6243139.80344  -4864782.67644  23343501.3614   23343501.7344
 -18603018.98844 -14495846.28844  20856171.3324   20856170.5584
 -21204186.18244 -16522732.84944  20945698.6144   20945698.0904
 -24404496.88744 -19016471.50344  20742736.4424   20742736.1074
 96  3 25  5 28  0.0000000  0  6G26G21G22G 6G23G17
  -9901309.85644  -7715301.53744  22126077.3694   22126076.3844
  -7072347.81444  -5510916.92544  23745180.6304   23745179.2794
  -6241176.87444  -4863253.14144  23343875.0994   23343874.8564
 -18545923.63844 -14451356.41644  20867036.2734   20867035.3074
 -21242146.60644 -16552312.38844  20938474.9934   20938474.5554
 -24421762.46944 -19029925.19744  20739450.9634   20739450.5534
 96  3 25  5 28 30.0000000  0  6G26G21G22G 6G23G17
  -9898997.15444  -7713499.42144  22126517.2104   22126516.1264
  -7158962.24944  -5578408.66444  23728699.0984   23728698.8034
  -6238684.18344  -4861310.78344  23344349.2064   23344348.9274
 -18488364.83144 -14406505.40744  20877989.0414   20877988.0644
 -21279678.84944 -16581558.28044  20931332.6544   20931332.2064
 -24438827.00244 -19043222.23344  20736203.7124   20736203.1694
 96  3 25  5 29  0.0000000  0  6G26G21G22G 6G23G17
  -9896052.66244  -7711204.99344  22127078.0344   22127076.5784
  -7245386.66444  -5645752.35444  23712252.3194   23712252.2164
  -6235690.22344  -4858977.75844  23344919.0564   23344918.4094
 -18430352.50944 -14361301.01144  20889028.5854   20889027.6164
 -21316783.58544 -16610471.05244  20924271.8634   20924271.3904
 -24455687.86544 -19056360.56444  20732995.1224   20732994.5984
 96  3 25  5 29 30.0000000  0  6G26G21G22G 6G23G17
  -9892502.78444  -7708438.85744  22127753.1854   22127752.0324
  -7331639.28344  -5712962.16444  23695839.7094   23695838.3284
  -6232233.56344  -4856284.39644  23345576.2944   23345575.2564
 -18371907.80744 -14315759.69444  20900150.2054   20900149.4754
 -21353488.90344 -16639072.59044  20917286.9254   20917286.6184
 -24472368.57944 -19069358.52244  20729820.9614   20729820.4994
 96  3 25  5 30  0.0000000  0  6G26G21G22G 6G23G17
  -9888343.97044  -7705198.20644  22128544.7444   22128544.2714
  -7417693.05144  -5780017.04844  23679464.4904   23679462.5574
  -6228304.58144  -4853222.84844  23346323.8904   23346323.4774
 -18313018.47944 -14269871.92344  20911356.3944   20911355.5934
 -21389778.42344 -16667350.12744  20910381.5784   20910381.0914
 -24488840.30944 -19082193.63544  20726686.4984   20726686.1834
 96  3 25  5 30 30.0000000  0  6G26G21G22G 6G23G17
  -9883593.28444  -7701496.37044  22129448.4534   22129447.4354
  -7503563.33644  -5846928.94044  23663123.9844   23663122.9954
  -6223898.85544  -4849789.82444  23347162.4634   23347161.9164
 -18253678.86544 -14223633.27544  20922648.5864   20922647.6644
 -21425651.80344 -16695303.40044  20903554.8074   20903554.4624
 -24505097.32344 -19094861.43844  20723592.7014   20723592.5644
 96  3 25  5 31  0.0000000  0  7G26G28G21G22G 6G23G17
  -9878257.67944  -7697338.74044  22130464.0174   22130462.5274
        -0.07414        -0.90014  24902467.567    24902472.762
  -7589216.94644  -5913672.01344  23646824.2804   23646821.8724
  -6218972.02844  -4845950.74944  23348100.3554   23348100.3734
 -18193845.35344 -14177009.77344  20934034.3654   20934033.8144
 -21461083.10344 -16722912.19044  20896812.3984   20896812.0564
 -24521114.26244 -19107342.16744  20720544.7854   20720544.6124
 96  3 25  5 31 30.0000000  0  7G26G28G21G22G 6G23G17
  -9872401.52344  -7692775.47944  22131578.1764   22131577.0224
   -106202.784 4    -82756.259 4  24882257.205    24882272.500
  -7674683.78744  -5980269.52744  23630560.2974   23630560.4784
  -6213542.35644  -4841719.84744  23349133.2714   23349133.5774
 -18133557.70844 -14130032.40044  20945506.6524   20945505.9344
 -21496117.05144 -16750211.35944  20890146.0254   20890145.6214
 -24536932.82644 -19119668.31944  20717534.6074   20717534.2114
 96  3 25  5 32  0.0000000  0  7G26G28G21G22G 6G23G17
  -9866039.90944  -7687818.36144  22132789.0164   22132787.5744
   -212411.556 4   -165516.182 4  24862045.397    24862054.655
  -7759986.84144  -6046739.42044  23614326.5544   23614327.3584
  -6207616.43344  -4837102.25044  23350260.6054   23350260.3594
 -18072828.54144 -14082710.98544  20957063.4694   20957062.7004
 -21530754.51944 -16777201.58444  20883554.3824   20883554.0354
 -24552585.16944 -19131864.95144  20714556.2454   20714555.8474
 96  3 25  5 32 30.0000000  0  7G26G28G21G22G 6G23G17
  -9859110.92244  -7682419.14044  22134107.3974   22134106.1164
   -318579.896 4   -248244.772 4  24841840.864    24841845.951
  -7845073.56044  -6113040.73944  23598134.0024   23598136.1114
  -6201161.58644  -4832072.50644  23351489.6084   23351489.2684
 -18011611.30844 -14035009.26244  20968712.5084   20968711.8904
 -21564940.73744 -16803840.18544  20877049.1274   20877048.9204
 -24568041.51144 -19143908.85244  20711614.8304   20711614.3644
 96  3 25  5 33  0.0000000  0  7G 6G26G28G21G22G23G17
 -17949890.87444 -13986915.43244  20980457.3544   20980456.6584
  -9851581.15044  -7676551.77044  22135539.6604   22135538.4894
   -424687.088 4   -330925.824 4  24821651.592    24821653.075
  -7929902.99744  -6179141.60444  23581992.3354   23581994.1284
  -6194177.40044  -4826630.30544  23352817.9874   23352816.8014
 -21598676.78444 -16830128.00444  20870629.4424   20870628.8994
 -24583304.37544 -19155801.99444  20708710.5844   20708710.1064
 96  3 25  5 33 30.0000000  0  7G 6G26G28G21G22G23G17
 -17887703.50144 -13938457.75444  20992291.4084   20992290.5904
  -9843446.37744  -7670212.97444  22137087.9364   22137086.7784
   -530742.208 4   -413566.088 4  24801467.923    24801470.128
  -8014497.86644  -6245059.68344  23565894.6154   23565895.5864
  -6186684.74044  -4820791.86444  23354244.2354   23354242.9284
 -21631992.00944 -16856087.91344  20864289.5334   20864289.2674
 -24598379.00444 -19167548.45444  20705841.8094   20705841.3714
 96  3 25  5 34  0.0000000  0  7G 6G26G28G21G22G23G17
 -17825051.58044 -13889638.09244  21004213.5334   21004212.8504
  -9834697.54244  -7663395.69144  22138753.0644   22138752.1584
   -636749.262 4   -496168.870 4  24781294.498    24781298.419
  -8098874.76044  -6310807.89744  23549838.5064   23549838.2994
  -6178709.62044  -4814577.51144  23355761.8534   23355761.3044
 -21664895.47344 -16881726.96144  20858028.5054   20858027.8064
 -24613253.66344 -19179139.09544  20703011.0354   20703010.7064
 96  3 25  5 34 30.0000000  0  7G 6G26G28G21G22G23G17
 -17761930.07944 -13840452.52144  21016224.9964   21016224.4284
  -9825314.89944  -7656084.52044  22140538.7404   22140537.9054
   -742695.346 4   -578724.281 4  24761133.046    24761136.080
  -8183015.07844  -6376371.77844  23533827.5314   23533827.0344
  -6170246.91944  -4807983.18844  23357371.7754   23357372.1154
 -21697406.84644 -16907060.48844  20851841.7934   20851841.3274
 -24627907.07144 -19190557.33144  20700222.5064   20700222.1964
 96  3 25  5 35  0.0000000  0  7G 6G26G28G21G22G23G17
 -17698375.17644 -13790929.23144  21028319.3244   21028318.5294
  -9815339.64244  -7648311.58244  22142437.2484   22142435.9844
   -848606.512 4   -661252.506 4  24740980.232    24740980.130
  -8266956.94244  -6441781.02144  23517852.9804   23517854.5084
  -6161309.96344  -4801019.33144  23359072.9194   23359073.6084
 -21729574.09644 -16932125.86644  20845720.5454   20845719.9624
 -24642359.61444 -19201819.05044  20697472.3414   20697471.7954
 96  3 25  5 35 30.0000000  0  6G 6G26G21G22G23G17
 -17634391.75644 -13741072.03144  21040495.0164   21040494.4634
  -9804788.13044  -7640089.60944  22144444.7644   22144443.3974
  -8350711.05744  -6507043.96144  23501914.9094   23501917.2974
  -6151891.31844  -4793680.14744  23360864.9144   23360864.7564
 -21761374.77544 -16956905.60444  20839668.9514   20839668.5594
 -24656584.33044 -19212903.24144  20694765.7044   20694765.1994
 96  3 25  5 36  0.0000000  0  6G 6G26G21G22G23G17
 -17569945.21544 -13690853.96044  21052758.7044   21052758.1674
  -9793646.05344  -7631407.45944  22146564.8504   22146564.1084
  -8434247.32444  -6572137.12444  23486019.2344   23486019.4734
  -6141974.05944  -4785952.44344  23362752.4514   23362752.4024
 -21792775.85644 -16981373.96544  20833693.4684   20833692.8844
 -24670571.16444 -19223802.07144  20692104.1184   20692103.5834
 96  3 25  5 36 30.0000000  0  6G 6G26G21G22G23G17
 -17504993.71744 -13640242.41644  21065118.4694   21065117.7794
  -9781873.68844  -7622234.18044  22148805.4614   22148803.7984
  -8517512.78644  -6637019.29844  23470174.8104   23470176.2644
  -6131496.00944  -4777787.74044  23364746.6614   23364746.0794
 -21823737.52144 -17005499.92544  20827801.6174   20827801.4094
 -24684302.38844 -19234501.72644  20689491.1054   20689490.6574
 96  3 25  5 37  0.0000000  0  7G 6G26G28G21G22G23G17
 -17439594.12844 -13589281.70844  21077563.5834   21077563.1064
  -9769529.67144  -7612615.45344  22151154.1014   22151152.9464
        -0.42314        -0.81414  24660476.568    24660477.690
  -8600571.67244  -6701740.50244  23454369.2154   23454369.5574
  -6120515.96644  -4769231.86444  23366836.8464   23366836.1914
 -21854295.51344 -17029311.33644  20821986.6684   20821986.0134
 -24697834.83644 -19245046.49044  20686916.1204   20686915.7284
 96  3 25  5 37 30.0000000  0  7G 6G26G28G21G22G23G17
 -17373790.55044 -13538006.20144  21090085.6364   21090084.8674
  -9756659.14644  -7602586.47744  22153603.6244   22153601.8564
   -105656.670 4    -82330.340 4  24640371.558    24640371.121
  -8683478.85844  -6766343.49744  23438592.2334   23438592.8524
  -6109084.26644  -4760324.05444  23369011.9154   23369009.9734
 -21884481.46444 -17052832.84444  20816242.7524   20816242.4314
 -24711222.76544 -19255478.64144  20684368.5974   20684368.1074
 96  3 25  5 38  0.0000000  0  6G 6G26G21G22G23G17
 -17307581.56744 -13486414.79544  21102685.2434   21102684.4804
  -9743250.40844  -7592138.09944  22156155.1884   22156153.9884
  -8766228.76244  -6830823.92944  23422845.4924   23422845.6754
  -6097204.78244  -4751067.32844  23371272.0064   23371269.6024
 -21914294.53044 -17076063.79344  20810569.2014   20810568.7224
 -24724483.15144 -19265811.41244  20681844.9394   20681844.5794
 96  3 25  5 38 30.0000000  0  6G 6G26G21G22G23G17
 -17240934.60544 -13434482.10344  21115367.4754   21115366.8514
  -9729272.59944  -7581246.29444  22158814.9584   22158813.3344
  -8848792.11544  -6895158.99444  23407133.3414   23407133.7394
  -6084852.71944  -4741442.35444  23373622.7824   23373621.1584
 -21943703.67044 -17098979.99044  20804973.1464   20804972.6414
 -24737585.05844 -19276020.68944  20679351.6064   20679351.1024
 96  3 25  5 39  0.0000000  0  7G 6G26G28G21G22G23G17
 -17173822.00344 -13382186.58144  21128138.5974   21128137.8124
  -9714701.87644  -7569892.46444  22161587.3564   22161586.2894
         0.01414         0.49214  24580082.161    24580085.774
  -8931140.14044  -6959326.26844  23391464.5904   23391463.9514
  -6072015.45844  -4731439.29644  23376065.6174   23376063.9594
 -21972669.13144 -17121550.47044  20799460.7454   20799460.2564
 -24750477.37244 -19286066.65144  20676898.4264   20676897.9194
